[[{"header":{"parameterUnit":"m.s-1","parameterCategory":1,"la1":30.6,"la2":28.766,"lo1":-90.7593,"lo2":-88.6598,"dy":0.0162,"dx":0.0183,"nx":116,"ny":114,"refTime":"2023-09-02T00:00:00:Z","depth":0,"parameterNumber":2,"parameterNumberName":"U-component_of_WINDS"},"data":[0.0,0.0,0.0,0.0,0.0,0.0,0.0,0.0,0.0,0.0,0.0,0.0,0.0,0.0,0.0,0.0,0.0,0.0,0.0,0.0,0.0,0.0,0.0,0.0,0.0,0.0,0.0,0.0,0.0,0.0,0.0,0.0,0.0,0.0,0.0,0.0,0.0,0.0,0.0,0.0,0.0,0.0,0.0,0.0,0.0,0.0,0.0,0.0,0.0,0.0,0.0,0.0,0.0,0.0,0.0,0.0,0.0,0.0,0.0,0.0,0.0,0.0,0.0,0.0,0.0,0.0,0.0,0.0,0.0,0.0,0.0,0.0,0.0,0.0,0.0,0.0,0.0,0.0,0.0,0.0,0.0,0.0,0.0,0.0,0.0,0.0,0.0,0.0,0.0,0.0,0.0,0.0,0.0,0.0,0.0,0.0,0.0,0.0,0.0,0.0,0.0,0.0,0.0,0.0,0.0,0.0,0.0,0.0,0.0,0.0,0.0,0.0,0.0,0.0,0.0,0.0,0.0,0.0,0.0,0.0,0.0,0.0,0.0,0.0,0.0,0.0,0.0,0.0,0.0,0.0,0.0,0.0,0.0,0.0,0.0,0.0,0.0,0.0,0.0,0.0,0.0,0.0,0.0,0.0,0.0,0.0,0.0,0.0,0.0,0.0,0.0,0.0,0.0,0.0,0.0,0.0,0.0,0.0,0.0,0.0,0.0,0.0,0.0,0.0,0.0,0.0,0.0,0.0,0.0,0.0,0.0,0.0,0.0,0.0,0.0,0.0,0.0,0.0,0.0,0.0,0.0,0.0,0.0,0.0,0.0,0.0,0.0,0.0,0.0,0.0,0.0,0.0,0.0,0.0,0.0,0.0,0.0,0.0,0.0,0.0,0.0,0.0,0.0,0.0,0.0,0.0,0.0,0.0,0.0,0.0,0.0,0.0,0.0,0.0,0.0,0.0,0.0,0.0,0.0,0.0,0.0,0.0,0.0,0.0,0.0,0.0,0.0,0.0,0.0,0.0,0.0,0.0,0.0,0.0,0.0,0.0,0.0,0.0,0.0,0.0,0.0,0.0,0.0,0.0,0.0,0.0,0.0,0.0,0.0,0.0,0.0,0.0,0.0,0.0,0.0,0.0,0.0,0.0,0.0,0.0,0.0,0.0,0.0,0.0,0.0,0.0,0.0,0.0,0.0,0.0,0.0,0.0,0.0,0.0,0.0,0.0,0.0,0.0,0.0,0.0,0.0,0.0,0.0,0.0,0.0,0.0,0.0,0.0,0.0,0.0,0.0,0.0,0.0,0.0,0.0,0.0,0.0,0.0,0.0,0.0,0.0,0.0,0.0,0.0,0.0,0.0,0.0,0.0,0.0,0.0,0.0,0.0,0.0,0.0,0.0,0.0,0.0,0.0,0.0,0.0,0.0,0.0,0.0,0.0,0.0,0.0,0.0,0.0,0.0,0.0,0.0,0.0,0.0,0.0,0.0,0.0,0.0,0.0,0.0,0.0,0.0,0.0,0.0,0.0,0.0,0.0,0.0,0.0,0.0,0.0,0.0,0.0,0.0,0.0,0.0,0.0,0.0,0.0,0.0,0.0,0.0,0.0,0.0,0.0,0.0,0.0,0.0,0.0,0.0,0.0,0.0,0.0,0.0,0.0,0.0,0.0,0.0,0.0,0.0,0.0,0.0,0.0,0.0,0.0,0.0,0.0,0.0,0.0,0.0,0.0,0.0,0.0,0.0,0.0,0.0,0.0,0.0,0.0,0.0,0.0,0.0,0.0,0.0,0.0,0.0,0.0,0.0,0.0,0.0,0.0,0.0,0.0,0.0,0.0,0.0,0.0,0.0,0.0,0.0,0.0,0.0,0.0,0.0,0.0,0.0,0.0,0.0,0.0,0.0,0.0,0.0,0.0,0.0,0.0,0.0,0.0,0.0,0.0,0.0,0.0,0.0,0.0,0.0,0.0,0.0,0.0,0.0,0.0,0.0,0.0,0.0,0.0,0.0,0.0,0.0,0.0,0.0,0.0,0.0,0.0,0.0,0.0,0.0,0.0,0.0,0.0,0.0,0.0,0.0,0.0,0.0,0.0,0.0,0.0,0.0,0.0,0.0,0.0,0.0,0.0,0.0,0.0,0.0,0.0,0.0,0.0,0.0,0.0,0.0,0.0,0.0,0.0,0.0,0.0,0.0,0.0,0.0,0.0,0.0,0.0,0.0,0.0,0.0,0.0,0.0,0.0,0.0,0.0,0.0,0.0,0.0,0.0,0.0,0.0,0.0,0.0,0.0,0.0,0.0,0.0,0.0,0.0,0.0,0.0,0.0,0.0,0.0,0.0,0.0,0.0,0.0,0.0,0.0,0.0,0.0,0.0,0.0,0.0,0.0,0.0,0.0,0.0,0.0,0.0,0.0,0.0,0.0,0.0,0.0,0.0,0.0,0.0,0.0,0.0,0.0,0.0,0.0,0.0,0.0,0.0,0.0,0.0,0.0,0.0,0.0,0.0,0.0,0.0,0.0,0.0,0.0,0.0,0.0,0.0,0.0,0.0,0.0,0.0,0.0,0.0,0.0,0.0,0.0,0.0,0.0,0.0,0.0,0.0,0.0,0.0,0.0,0.0,0.0,0.0,0.0,0.0,0.0,0.0,0.0,0.0,0.0,0.0,0.0,0.0,0.0,0.0,0.0,0.0,0.0,0.0,0.0,0.0,0.0,0.0,0.0,0.0,0.0,0.0,0.0,0.0,0.0,0.0,0.0,0.0,0.0,0.0,0.0,0.0,0.0,0.0,0.0,0.0,0.0,0.0,0.0,0.0,0.0,0.0,0.0,0.0,0.0,0.0,0.0,0.0,0.0,0.0,0.0,0.0,0.0,0.0,0.0,0.0,0.0,0.0,0.0,0.0,0.0,0.0,0.0,0.0,0.0,0.0,0.0,0.0,0.0,0.0,0.0,0.0,0.0,0.0,0.0,0.0,0.0,0.0,0.0,0.0,0.0,0.0,0.0,0.0,0.0,0.0,0.0,0.0,0.0,0.0,0.0,0.0,0.0,0.0,0.0,0.0,0.0,0.0,0.0,0.0,0.0,0.0,0.0,0.0,0.0,0.0,0.0,0.0,0.0,0.0,0.0,0.0,0.0,0.0,0.0,0.0,0.0,0.0,0.0,0.0,0.0,0.0,0.0,0.0,0.0,0.0,0.0,0.0,0.0,0.0,0.0,0.0,0.0,0.0,0.0,0.0,0.0,0.0,0.0,0.0,0.0,0.0,0.0,0.0,0.0,0.0,0.0,0.0,0.0,0.0,0.0,0.0,0.0,0.0,0.0,0.0,0.0,0.0,0.0,0.0,0.0,0.0,0.0,0.0,0.0,0.0,0.0,0.0,0.0,0.0,0.0,0.0,0.0,0.0,0.0,0.0,0.0,0.0,0.0,0.0,0.0,0.0,0.0,0.0,0.0,0.0,0.0,0.0,0.0,0.0,0.0,0.0,0.0,0.0,0.0,0.0,0.0,0.0,0.0,0.0,0.0,0.0,0.0,0.0,0.0,0.0,0.0,0.0,0.0,0.0,0.0,0.0,0.0,0.0,0.0,0.0,0.0,0.0,0.0,0.0,0.0,0.0,0.0,0.0,0.0,0.0,0.0,0.0,0.0,0.0,0.0,0.0,0.0,0.0,0.0,0.0,0.0,0.0,0.0,0.0,0.0,0.0,0.0,0.0,0.0,0.0,0.0,0.0,0.0,0.0,0.0,0.0,0.0,0.0,0.0,0.0,0.0,0.0,0.0,0.0,0.0,0.0,0.0,0.0,0.0,0.0,0.0,0.0,0.0,0.0,0.0,0.0,0.0,0.0,0.0,0.0,0.0,0.0,0.0,0.0,0.0,0.0,0.0,0.0,0.0,0.0,0.0,0.0,0.0,0.0,0.0,0.0,0.0,0.0,0.0,0.0,0.0,0.0,0.0,0.0,0.0,0.0,0.0,0.0,0.0,0.0,0.0,0.0,0.0,0.0,0.0,0.0,0.0,0.0,0.0,0.0,0.0,0.0,0.0,0.0,0.0,0.0,0.0,0.0,0.0,0.0,0.0,0.0,0.0,0.0,0.0,0.0,0.0,0.0,0.0,0.0,0.0,0.0,0.0,0.0,0.0,0.0,0.0,0.0,0.0,0.0,0.0,0.0,0.0,0.0,0.0,0.0,0.0,0.0,0.0,0.0,0.0,0.0,0.0,0.0,0.0,0.0,0.0,0.0,0.0,0.0,0.0,0.0,0.0,0.0,0.0,0.0,0.0,0.0,0.0,0.0,0.0,0.0,0.0,0.0,0.0,0.0,0.0,0.0,0.0,0.0,0.0,0.0,0.0,0.0,0.0,0.0,0.0,0.0,0.0,0.0,0.0,0.0,0.0,0.0,0.0,0.0,0.0,0.0,0.0,0.0,0.0,0.0,0.0,0.0,0.0,0.0,0.0,0.0,0.0,0.0,0.0,0.0,0.0,0.0,0.0,0.0,0.0,0.0,0.0,0.0,0.0,0.0,0.0,0.0,0.0,0.0,0.0,0.0,0.0,0.0,0.0,0.0,0.0,0.0,0.0,0.0,0.0,0.0,0.0,0.0,0.0,0.0,0.0,0.0,0.0,0.0,0.0,0.0,0.0,0.0,0.0,0.0,0.0,0.0,0.0,0.0,0.0,0.0,0.0,0.0,0.0,0.0,0.0,0.0,0.0,0.0,0.0,0.0,0.0,0.0,0.0,0.0,0.0,0.0,0.0,0.0,0.0,0.0,0.0,0.0,0.0,0.0,0.0,0.0,0.0,0.0,0.0,0.0,0.0,0.0,0.0,0.0,0.0,0.0,0.0,0.0,0.0,0.0,0.0,0.0,0.0,0.0,0.0,0.0,0.0,0.0,0.0,0.0,0.0,0.0,0.0,0.0,0.0,0.0,0.0,0.0,0.0,0.0,0.0,0.0,0.0,0.0,0.0,0.0,0.0,0.0,0.0,0.0,0.0,0.0,0.0,0.0,0.0,0.0,0.0,0.0,0.0,0.0,0.0,0.0,0.0,0.0,0.0,0.0,0.0,0.0,0.0,0.0,0.0,0.0,0.0,0.0,0.0,0.0,0.0,0.0,0.0,0.0,0.0,0.0,0.0,0.0,0.0,0.0,0.0,0.0,0.0,0.0,0.0,0.0,0.0,0.0,0.0,0.0,0.0,0.0,0.0,0.0,0.0,0.0,0.0,0.0,0.0,0.0,0.0,0.0,0.0,0.0,0.0,0.0,0.0,0.0,0.0,0.0,0.0,0.0,0.0,0.0,0.0,0.0,0.0,0.0,0.0,0.0,0.0,0.0,0.0,0.0,0.0,0.0,0.0,0.0,0.0,0.0,0.0,0.0,0.0,0.0,0.0,0.0,0.0,0.0,0.0,0.0,0.0,0.0,0.0,0.0,0.0,0.0,0.0,0.0,0.0,0.0,0.0,0.0,0.0,0.0,0.0,0.0,0.0,0.0,0.0,0.0,0.0,0.0,0.0,0.0,0.0,0.0,0.0,0.0,0.0,0.0,0.0,0.0,0.0,0.0,0.0,0.0,0.0,0.0,0.0,0.0,0.0,0.0,0.0,0.0,0.0,0.0,0.0,0.0,0.0,0.0,0.0,0.0,0.0,0.0,0.0,0.0,0.0,0.0,0.0,0.0,0.0,0.0,0.0,0.0,0.0,0.0,0.0,0.0,0.0,0.0,0.0,0.0,0.0,0.0,0.0,0.0,0.0,0.0,0.0,0.0,0.0,0.0,0.0,0.0,0.0,0.0,0.0,0.0,0.0,0.0,0.0,0.0,0.0,0.0,0.0,0.0,0.0,0.0,0.0,0.0,0.0,0.0,0.0,0.0,0.0,0.0,0.0,0.0,0.0,0.0,0.0,0.0,0.0,0.0,0.0,0.0,0.0,0.0,0.0,0.0,0.0,0.0,0.0,0.0,0.0,0.0,0.0,0.0,0.0,0.0,0.0,0.0,0.0,0.0,0.0,0.0,0.0,0.0,0.0,0.0,0.0,0.0,0.0,0.0,0.0,0.0,0.0,0.0,0.0,0.0,0.0,0.0,0.0,0.0,-1.7166,0.0,0.0,0.0,0.0,0.0,0.0,0.0,0.0,0.0,0.0,0.0,0.0,0.0,0.0,0.0,0.0,0.0,0.0,0.0,0.0,0.0,0.0,0.0,0.0,0.0,0.0,0.0,0.0,0.0,0.0,0.0,0.0,0.0,0.0,0.0,0.0,0.0,0.0,0.0,-1.8382,-1.7764,-1.6617,-1.5463,-1.4417,-1.3625,0.0,0.0,0.0,0.0,0.0,0.0,0.0,0.0,0.0,0.0,0.0,0.0,0.0,0.0,0.0,0.0,0.0,0.0,0.0,0.0,0.0,0.0,0.0,0.0,0.0,0.0,0.0,0.0,0.0,0.0,0.0,0.0,0.0,0.0,0.0,0.0,0.0,0.0,0.0,0.0,0.0,0.0,0.0,0.0,0.0,0.0,0.0,0.0,0.0,0.0,0.0,0.0,0.0,0.0,0.0,0.0,0.0,0.0,0.0,0.0,0.0,0.0,0.0,0.0,0.0,0.0,0.0,0.0,0.0,0.0,0.0,-1.6852,0.0,0.0,0.0,0.0,0.0,0.0,0.0,0.0,0.0,0.0,0.0,0.0,0.0,0.0,0.0,0.0,0.0,0.0,0.0,0.0,0.0,0.0,0.0,0.0,-1.67,-1.7447,-1.7605,-1.7578,0.0,0.0,0.0,0.0,0.0,0.0,0.0,0.0,0.0,-1.8609,-1.8279,-1.7443,-1.6305,-1.5526,-1.4958,-1.458,-1.3554,0.0,0.0,0.0,0.0,0.0,0.0,0.0,0.0,0.0,0.0,0.0,0.0,0.0,0.0,0.0,0.0,0.0,0.0,0.0,0.0,0.0,0.0,0.0,0.0,0.0,0.0,0.0,0.0,0.0,0.0,0.0,0.0,0.0,0.0,0.0,0.0,0.0,0.0,0.0,0.0,0.0,0.0,0.0,0.0,0.0,0.0,0.0,0.0,0.0,0.0,0.0,0.0,0.0,0.0,0.0,0.0,0.0,0.0,0.0,0.0,0.0,0.0,0.0,-1.86,-1.8434,-1.8295,-1.8295,-1.8334,-1.8414,-1.7624,-1.7022,-1.666,-1.6272,0.0,0.0,0.0,0.0,0.0,0.0,0.0,0.0,0.0,0.0,0.0,0.0,0.0,0.0,0.0,0.0,0.0,0.0,0.0,0.0,0.0,-1.4593,-1.5191,-1.5863,-1.6267,-1.6507,0.0,0.0,0.0,0.0,0.0,0.0,0.0,-1.8239,-1.8291,-1.8377,-1.7754,-1.714,-1.6613,-1.6133,-1.5972,-1.5876,-1.4262,-1.3452,-1.3174,0.0,0.0,0.0,0.0,0.0,0.0,0.0,0.0,0.0,0.0,0.0,0.0,0.0,0.0,0.0,0.0,0.0,0.0,0.0,0.0,0.0,0.0,0.0,0.0,0.0,0.0,0.0,0.0,0.0,0.0,0.0,0.0,0.0,0.0,0.0,0.0,0.0,0.0,0.0,0.0,0.0,-0.5895,-0.7173,0.0,0.0,0.0,0.0,0.0,0.0,0.0,0.0,0.0,0.0,0.0,0.0,0.0,-1.916,-1.9191,-1.9338,-1.9592,-1.9839,-1.9396,-1.9312,-1.9566,-1.9353,-1.9266,-1.9166,-1.8861,0.0,-1.7232,-1.6637,0.0,0.0,0.0,0.0,0.0,0.0,0.0,0.0,0.0,0.0,0.0,0.0,0.0,0.0,0.0,0.0,0.0,0.0,0.0,0.0,0.0,-1.3536,-1.3998,-1.4443,-1.4603,-1.4802,-1.4952,-1.476,0.0,0.0,0.0,0.0,-1.7339,-1.7251,-1.7155,-1.7249,-1.7085,-1.6985,-1.6739,-1.6628,-1.6594,-1.6404,-1.5602,-1.4641,-1.3817,-1.2739,0.0,0.0,0.0,0.0,0.0,0.0,0.0,0.0,0.0,0.0,0.0,0.0,0.0,0.0,0.0,0.0,0.0,0.0,0.0,0.0,0.0,0.0,0.0,0.0,0.0,0.0,0.0,0.0,0.0,0.0,0.0,0.0,0.0,0.0,0.0,0.0,0.0,0.0,0.0,-0.8119,-0.917,-1.0108,-1.0875,-1.1805,0.0,0.0,0.0,0.0,0.0,0.0,0.0,0.0,0.0,-1.8463,-1.9434,-1.9868,-1.9822,-2.0044,-2.0219,-2.0123,-1.9888,-1.9838,-1.9965,-1.9853,-1.9853,-1.9833,-1.9546,-1.9072,-1.8449,-1.7327,-1.6808,-1.655,0.0,0.0,0.0,0.0,-1.6662,-1.632,0.0,0.0,0.0,0.0,0.0,0.0,0.0,0.0,0.0,0.0,0.0,0.0,-1.2283,-1.2554,-1.275,-1.2963,-1.2931,-1.2964,-1.3171,-1.3171,0.0,0.0,0.0,-1.5701,-1.6562,-1.6433,-1.6385,-1.6338,-1.657,-1.6654,-1.6579,-1.6878,-1.6954,-1.682,-1.6603,-1.5799,-1.4576,-1.3292,-1.2592,-1.2093,0.0,0.0,0.0,0.0,0.0,0.0,0.0,0.0,0.0,0.0,0.0,0.0,0.0,0.0,0.0,0.0,0.0,0.0,0.0,0.0,0.0,0.0,0.0,0.0,0.0,0.0,0.0,0.0,0.0,0.0,0.0,0.0,0.0,0.0,0.0,0.0,0.0,-1.0833,-1.1967,-1.286,-1.3547,-1.4284,0.0,0.0,0.0,0.0,0.0,0.0,-1.7591,-1.8646,-1.9273,-1.9355,-2.0252,-2.0732,-2.0597,-2.0822,-2.0814,-2.0568,-2.0494,-2.0454,-2.0454,-2.0454,-2.0454,-2.0434,-2.0074,-1.9786,-1.9479,-1.807,-1.7425,-1.7313,-1.6973,-1.6953,-1.7154,-1.7355,-1.7305,-1.6931,0.0,0.0,0.0,0.0,0.0,0.0,0.0,0.0,0.0,0.0,0.0,-1.1938,-1.1475,-1.1673,-1.1646,-1.1225,-1.1341,-1.149,-1.1501,-1.1978,-1.2624,-1.3526,-1.4539,-1.5371,-1.5837,-1.6299,-1.6459,-1.6197,-1.6218,-1.6279,-1.6377,-1.6573,-1.6854,-1.7141,-1.7115,-1.649,-1.54,-1.4382,-1.3485,-1.2677,-1.1844,0.0,0.0,0.0,0.0,0.0,0.0,0.0,0.0,0.0,0.0,0.0,0.0,0.0,0.0,0.0,0.0,0.0,0.0,0.0,0.0,0.0,0.0,0.0,0.0,0.0,0.0,0.0,0.0,0.0,0.0,0.0,0.0,0.0,0.0,0.0,0.0,0.0,0.0,-1.5589,-1.5809,0.0,0.0,0.0,0.0,-1.813,-1.7998,-1.829,-1.9159,-1.9577,-1.982,-2.0114,-2.1108,-2.1578,-2.1592,-2.1612,-2.1483,-2.1483,-2.1196,-2.1062,-2.1062,-2.1062,-2.1062,-2.1029,-2.0461,-2.0201,-2.01,-1.8911,-1.825,-1.7949,-1.7945,-1.7928,-1.7928,-1.8144,-1.795,-1.749,0.0,0.0,0.0,0.0,0.0,0.0,0.0,0.0,-1.1403,-1.1359,-1.1372,-1.13,-1.1008,-1.0837,-1.0702,-1.0425,-1.0178,-1.0259,-1.0386,-1.066,-1.1313,-1.2254,-1.3371,-1.4371,-1.5295,-1.5684,-1.5825,-1.5737,-1.6121,-1.6269,-1.6279,-1.6567,-1.676,-1.6874,-1.7071,-1.6878,-1.6266,-1.5346,-1.4562,-1.3778,-1.3052,-1.2753,0.0,0.0,0.0,0.0,0.0,0.0,0.0,0.0,0.0,0.0,0.0,0.0,0.0,0.0,0.0,0.0,0.0,0.0,0.0,0.0,0.0,0.0,0.0,0.0,0.0,0.0,0.0,0.0,0.0,0.0,0.0,0.0,0.0,0.0,0.0,0.0,0.0,-1.7238,-1.7624,0.0,-1.8551,-1.8477,-1.8695,-1.9212,-1.9597,-1.9831,-2.0147,-2.0731,-2.0975,-2.1082,-2.175,-2.2024,-2.1837,-2.183,-2.1737,-2.155,-2.1249,-2.1109,-2.1109,-2.1109,-2.1109,-2.1089,-2.0688,-2.0514,-2.0454,-1.9659,-1.9052,-1.8584,-1.84,-1.8279,-1.8279,-1.8394,-1.8198,-1.7835,0.0,0.0,0.0,0.0,0.0,0.0,0.0,0.0,-1.0761,-1.0867,-1.0861,-1.0753,-1.0466,-1.0224,-1.0,-0.9704,-0.948,-0.948,-0.9605,-0.9883,-1.045,-1.1497,-1.2676,-1.3851,-1.4975,-1.5261,-1.5452,-1.554,-1.5929,-1.6126,-1.6126,-1.6426,-1.656,-1.6573,-1.6974,-1.7052,-1.6852,-1.6412,-1.5669,-1.4684,-1.4124,-1.3849,-1.3645,0.0,0.0,0.0,0.0,0.0,0.0,0.0,0.0,0.0,0.0,0.0,0.0,0.0,0.0,0.0,0.0,0.0,0.0,0.0,0.0,0.0,0.0,0.0,0.0,0.0,0.0,0.0,0.0,0.0,0.0,0.0,0.0,0.0,0.0,-1.6257,-1.7635,-1.8711,-1.9216,-1.9633,-1.9927,-1.9953,-2.0074,-2.0368,-2.0755,-2.1015,-2.1116,-2.1577,-2.1844,-2.1844,-2.2318,-2.2478,-2.2285,-2.2084,-2.1891,-2.1697,-2.1296,-2.1109,-2.1109,-2.1109,-2.1109,-2.1096,-2.0802,-2.0621,-2.0488,-2.0,-1.9512,-1.9052,-1.8865,-1.8784,-1.8784,-1.8784,-1.8537,-1.8163,0.0,0.0,0.0,0.0,0.0,0.0,0.0,-0.9448,-0.9916,-1.0151,-1.0355,-1.0307,-0.9947,-0.996,-0.9764,-0.9007,-0.9037,-0.9133,-0.9057,-0.9623,-1.0288,-1.1313,-1.2729,-1.3838,-1.4688,-1.4981,-1.5172,-1.5445,-1.573,-1.5832,-1.5838,-1.6126,-1.6259,-1.6286,-1.6867,-1.723,-1.7154,-1.7442,-1.6773,-1.5471,-1.4999,-1.4533,-1.4148,0.0,0.0,0.0,0.0,0.0,0.0,0.0,0.0,0.0,0.0,0.0,0.0,0.0,0.0,0.0,0.0,0.0,0.0,0.0,0.0,0.0,0.0,0.0,0.0,0.0,0.0,0.0,0.0,0.0,0.0,0.0,0.0,0.0,-1.636,-1.7417,-1.8631,-2.0087,-2.0521,-2.0822,-2.1122,-2.1149,-2.1276,-2.157,-2.159,-2.1717,-2.1997,-2.2278,-2.2432,-2.2432,-2.2712,-2.2859,-2.2859,-2.2278,-2.1984,-2.1977,-2.139,-2.1109,-2.1109,-2.1109,-2.1109,-2.1096,-2.0815,-2.0521,-2.0227,-1.9933,-1.9639,-1.9379,-1.9372,-1.9366,-1.9366,-1.9359,-1.8978,-1.839,0.0,0.0,0.0,0.0,0.0,0.0,0.0,-0.8377,-0.8835,-0.9365,-0.9428,-0.9473,-0.9403,-0.9248,-0.894,-0.8682,-0.8426,-0.8424,-0.8672,-0.9039,-1.0003,-1.1487,-1.2461,-1.3182,-1.3823,-1.4502,-1.4981,-1.5178,-1.5642,-1.5832,-1.5832,-1.5912,-1.5952,-1.5965,-1.6346,-1.6633,-1.6847,-1.7141,-1.7128,-1.6671,-1.6295,-1.58,-1.5338,0.0,0.0,0.0,0.0,0.0,0.0,0.0,0.0,0.0,0.0,0.0,0.0,0.0,0.0,0.0,0.0,0.0,0.0,0.0,0.0,0.0,0.0,0.0,0.0,0.0,0.0,0.0,0.0,0.0,0.0,0.0,-1.6321,-1.7235,-1.7516,-1.8444,-1.9466,-2.0722,-2.1129,-2.151,-2.2011,-2.2058,-2.2178,-2.2478,-2.2505,-2.2539,-2.2619,-2.2699,-2.2739,-2.2739,-2.2819,-2.2859,-2.2859,-2.2278,-2.1984,-2.1977,-2.139,-2.1109,-2.1109,-2.1109,-2.1109,-2.1109,-2.1029,-2.0822,-2.0535,-2.0234,-1.9947,-1.9659,-1.9452,-1.9366,-1.9339,-1.9125,-1.8671,-1.811,0.0,0.0,0.0,0.0,0.0,0.0,0.0,-0.7458,-0.7873,-0.8501,-0.864,-0.8755,-0.8909,-0.8781,-0.8582,-0.8296,-0.814,-0.8119,-0.8404,-0.9187,-1.0076,-1.1211,-1.1994,-1.2619,-1.3249,-1.4112,-1.4694,-1.5083,-1.5547,-1.5832,-1.5832,-1.5832,-1.5832,-1.5845,-1.6139,-1.6433,-1.6727,-1.7021,-1.7221,-1.7218,-1.6832,-1.6419,-1.5978,-1.5395,-1.4984,-1.4662,-1.434,-1.3957,-1.3646,-1.3417,0.0,0.0,0.0,0.0,0.0,0.0,0.0,0.0,0.0,0.0,0.0,0.0,0.0,0.0,0.0,0.0,0.0,0.0,0.0,0.0,0.0,0.0,0.0,0.0,-1.7055,-1.811,-1.8658,-1.9289,-2.012,-2.1169,-2.1557,-2.1911,-2.2372,-2.2532,-2.2679,-2.2846,-2.2859,-2.2859,-2.2859,-2.2859,-2.2859,-2.2859,-2.2859,-2.2806,-2.2679,-2.2218,-2.1924,-2.1797,-2.1329,-2.1109,-2.1109,-2.1109,-2.1109,-2.1102,-2.0982,-2.0762,-2.0468,-2.0174,-1.988,0.0,0.0,0.0,0.0,0.0,-1.8337,-1.7989,0.0,0.0,0.0,0.0,0.0,0.0,0.0,-0.6607,-0.7064,-0.7572,-0.7911,-0.8154,-0.8357,-0.8506,-0.8438,-0.8001,-0.7974,-0.8083,-0.8307,-0.9447,-1.0209,-1.0515,-1.137,-1.2175,-1.2667,-1.3721,-1.449,-1.5083,-1.5547,-1.5737,-1.5832,-1.5832,-1.5832,-1.5838,-1.6106,-1.6386,-1.668,-1.6974,-1.7171,-1.7127,-1.6723,-1.6425,-1.6137,-1.527,-1.4955,-1.4765,-1.41,-1.3996,-1.4068,-1.3681,0.0,0.0,0.0,0.0,0.0,0.0,0.0,0.0,0.0,0.0,0.0,0.0,0.0,0.0,0.0,0.0,0.0,0.0,0.0,0.0,0.0,0.0,0.0,0.0,-1.7401,-1.8816,-1.9781,-2.0136,-2.0675,-2.1463,-2.181,-2.2104,-2.2392,-2.2686,-2.2859,-2.2859,-2.2859,-2.2859,-2.2859,0.0,0.0,0.0,0.0,-2.2686,-2.2418,-2.2098,-2.181,-2.155,-2.1249,-2.1109,-2.1109,-2.1109,-2.1089,-2.1042,-2.0788,-2.0488,-2.004,-1.9787,-1.9508,-1.9243,-1.9332,-1.9132,-1.8804,-1.825,-1.8023,-1.7916,0.0,0.0,0.0,0.0,0.0,0.0,0.0,-0.5982,-0.6275,-0.6753,-0.7068,-0.7332,-0.7692,-0.7736,-0.7811,-0.7689,-0.7573,-0.7738,-0.8094,-0.8706,-0.9239,-0.9862,-1.0577,-1.1389,-1.2175,-1.313,-1.4004,-1.479,-1.5261,-1.5635,-1.5832,-1.5832,-1.5832,-1.5832,-1.5885,-1.6079,-1.6373,-1.6667,-1.6764,-1.6743,-1.6225,-1.5909,-1.5512,-1.5142,-1.468,-1.428,-1.4082,-1.3993,-1.3927,-1.4004,-1.3872,-1.3703,-1.3601,-1.3394,0.0,0.0,0.0,0.0,0.0,0.0,0.0,0.0,0.0,0.0,0.0,0.0,0.0,0.0,0.0,0.0,0.0,0.0,0.0,-1.6695,-1.8313,-1.9677,-2.0566,-2.1041,-2.1363,-2.153,-2.181,-2.2104,-2.2392,-2.2686,-2.2859,-2.2859,-2.2859,-2.2859,-2.2859,-2.2859,-2.2859,-2.2859,-2.2632,-2.2478,-2.2418,-2.1897,-2.161,-2.155,0.0,0.0,-2.1109,-2.1109,-2.0982,-2.0755,-2.0702,-2.0245,-1.9502,-1.9443,-1.9024,-1.8635,-1.8869,-1.8831,-1.8531,-1.8176,-1.7889,-1.7622,0.0,0.0,0.0,0.0,0.0,0.0,0.0,-0.5623,-0.5902,-0.6286,-0.6588,-0.6864,-0.718,-0.7327,-0.7343,-0.7268,-0.7282,-0.7478,-0.7898,-0.8244,-0.8694,-0.9156,-0.9917,-1.0703,-1.1389,-1.2554,-1.3522,-1.4298,-1.4975,-1.5452,-1.5635,-1.5737,-1.5832,-1.5832,-1.5832,-1.5999,-1.6286,-1.6426,-1.646,-1.6234,-1.5756,-1.511,-1.4395,-1.4101,-1.3689,-1.3236,-1.2915,-1.2897,-1.3071,-1.3219,-1.3373,-1.3405,-1.3586,-1.341,-1.3124,0.0,0.0,0.0,0.0,0.0,0.0,0.0,0.0,0.0,0.0,0.0,0.0,0.0,0.0,-1.1146,-1.1322,0.0,-1.4538,-1.6193,-1.7771,-1.9322,-2.0529,-2.0993,-2.1368,-2.1349,-2.159,-2.1884,-2.2171,-2.2465,-2.2706,-2.2853,-2.2859,-2.2859,-2.2859,-2.2859,-2.2792,-2.2645,-2.2498,-2.2278,-2.1991,-2.1697,-2.1476,-2.1329,-2.1182,-2.1109,-2.1109,-2.1109,-2.0949,-2.0668,-2.0514,-1.9952,-1.9292,-1.8788,-1.8412,-1.8131,-1.7837,-1.7927,-1.8203,-1.7767,-1.7523,-1.7321,0.0,0.0,0.0,0.0,0.0,0.0,0.0,-0.5467,-0.564,-0.5911,-0.6176,-0.6447,-0.6725,-0.6881,-0.6936,-0.6848,-0.7034,-0.7277,-0.7615,-0.7969,-0.8241,-0.8534,-0.9351,-1.0019,-1.0605,-1.178,-1.2851,-1.3715,-1.4496,-1.507,-1.5356,-1.5635,-1.573,-1.573,-1.5737,-1.5965,-1.6192,-1.6246,-1.6117,-1.5733,-1.5279,-1.4491,-1.341,-1.2926,-1.2519,-1.2257,-1.1622,-1.1789,-1.222,-1.236,-1.2662,-1.3125,-1.3314,-1.325,-1.2975,-1.2841,-1.2368,0.0,0.0,0.0,0.0,0.0,0.0,0.0,0.0,-1.0586,-1.0546,-1.0112,-1.0443,-1.0961,-1.1098,-1.2316,-1.3792,-1.5228,-1.7064,-1.887,-2.0111,-2.0736,-2.1116,-2.1149,-2.137,-2.1643,-2.1877,-2.2164,-2.2432,-2.2672,-2.2692,-2.2692,-2.2692,-2.2692,-2.2585,-2.2345,-2.2278,-2.2024,-2.1557,-2.1496,-2.1349,-2.1109,-2.1109,-2.1109,-2.1109,-2.1049,-2.0869,-2.0575,-2.0093,-1.9561,-1.9082,-1.8022,-1.7584,-1.7529,-1.6535,-1.667,-1.7388,-1.7173,-1.699,-1.6896,0.0,0.0,0.0,0.0,0.0,0.0,0.0,0.0,-0.5447,-0.5616,-0.5779,-0.5939,-0.6112,-0.6268,-0.6403,-0.6515,-0.6647,-0.6994,-0.7434,-0.7605,-0.7914,-0.8393,-0.8718,-0.932,-1.0117,-1.09,-1.1878,-1.2851,-1.3619,-1.4298,-1.4783,-1.5261,-1.554,-1.554,-1.5737,-1.5845,-1.5899,-1.6159,-1.5999,-1.5461,-1.5187,-1.4361,-1.3351,-1.2481,-1.2091,-1.1879,-1.1728,-1.1802,-1.1947,-1.2184,-1.2516,-1.2909,-1.3086,-1.304,-1.2825,-1.2977,-1.2701,-1.2346,-1.2732,-1.3131,-1.3297,-1.256,-1.2426,-1.2138,0.0,-1.0555,-1.0294,-0.9652,-1.0103,-1.0543,-1.0627,-1.2107,-1.3765,-1.4957,-1.7115,-1.8863,-1.9741,-2.0762,-2.1332,-2.1176,-2.137,-2.157,-2.1597,-2.1864,-2.2044,-2.2078,-2.2084,-2.2084,-2.2084,-2.2084,-2.2071,-2.2038,-2.1784,-2.1617,-2.155,-2.1289,-2.1142,-2.1109,-2.1109,-2.1109,-2.1102,-2.0842,-2.0568,-2.0247,-1.9101,-1.8615,-1.8342,-1.6897,-1.6414,-1.6486,-1.4938,-1.4864,-1.5704,-1.6192,-1.6249,-1.6066,0.0,0.0,0.0,0.0,0.0,0.0,0.0,0.0,0.0,0.0,-0.564,-0.5735,-0.5881,-0.5956,-0.6088,-0.6329,-0.6481,-0.6797,-0.7336,-0.7516,-0.7733,-0.8124,-0.8432,-0.8825,-0.9324,-1.0113,-1.09,-1.1585,-1.2554,-1.3232,-1.3806,-1.4484,-1.4873,-1.507,-1.5445,-1.5635,-1.5648,-1.587,-1.582,-1.5448,-1.5174,-1.4624,-1.3813,-1.3182,-1.2737,-1.2464,-1.1601,-1.1321,0.0,-1.1768,-1.1947,-1.1963,-1.224,-1.2015,-1.1844,-1.2204,-1.2042,-1.1898,-1.2731,-1.3387,-1.3671,-1.3215,-1.2819,-1.2517,-1.1932,-1.149,-1.1225,-1.0739,-1.0981,-1.1275,-1.1022,-1.2102,-1.3461,-1.4806,-1.6534,-1.8161,-1.9834,-2.0628,-2.1175,-2.1416,-2.1323,-2.1363,-2.1537,-2.1663,-2.1804,-2.1971,-2.1984,-2.1984,-2.1984,-2.1984,-2.1773,-2.1476,-2.1351,-2.1083,-2.0791,-2.0795,-2.0862,-2.0862,-2.0982,-2.1109,-2.1096,-2.0808,-2.0421,-1.9953,-1.9063,-1.8648,-1.8532,-1.7232,-1.6557,-1.6158,-1.4427,-1.3768,-1.3953,-1.4722,-1.5094,-1.524,0.0,0.0,0.0,0.0,0.0,0.0,0.0,0.0,0.0,0.0,-0.5528,-0.5566,-0.5671,-0.5681,-0.5803,-0.6108,-0.6268,-0.6607,-0.721,-0.7428,-0.7668,-0.7963,-0.8212,-0.8432,-0.8726,-0.9324,-0.9916,-1.0507,-1.1487,-1.2165,-1.2543,-1.342,-1.4004,-1.4298,-1.4873,-1.5255,-1.5458,-1.5721,-1.5708,-1.5452,-1.5351,-1.4948,-1.4364,-1.3908,-1.3479,-1.306,-1.1747,-1.1208,-1.1057,-1.1543,-1.1486,-1.1319,-1.1563,-1.1297,-1.0998,-1.1415,-1.1576,-1.1847,-1.2769,-1.3448,-1.3835,-1.3561,-1.3222,-1.2899,-1.2629,-1.2422,-1.2087,-1.187,-1.2022,-1.2069,-1.1701,-1.2401,-1.3323,-1.48,-1.6269,-1.7807,-1.978,-2.0414,-2.0947,-2.1356,-2.1189,-2.1162,-2.1296,-2.1383,-2.1516,-2.173,-2.1744,-2.1744,-2.1744,-2.1744,-2.1514,-2.0922,-2.0915,-2.0689,-2.0106,-2.0482,-2.0609,-2.0609,-2.0903,-2.0989,-2.0975,-2.0608,-2.016,-1.9666,-1.9089,-1.8829,-1.8641,-1.7358,-1.6507,-1.5789,-1.4065,-1.2988,-1.2604,-1.3103,-1.3604,-1.4174,0.0,0.0,0.0,0.0,0.0,0.0,0.0,0.0,0.0,0.0,0.0,0.0,0.0,-0.5442,-0.5494,-0.5789,-0.5956,-0.6298,-0.6902,-0.7214,-0.7509,-0.7804,-0.796,-0.8137,-0.8432,-0.8726,-0.9118,-0.9608,-1.0404,-1.0998,-1.1292,-1.2252,-1.2926,-1.3216,-1.4004,-1.4592,-1.5198,-1.5648,-1.5699,-1.5566,-1.5745,-1.5402,-1.4663,-1.429,-1.3933,-1.3399,-1.2517,-1.2071,-1.1887,-1.1876,-1.1609,-1.1294,-1.1506,-1.1189,-1.0712,-1.1185,-1.1778,-1.2496,-1.2937,-1.3664,-1.4129,-1.3915,-1.3864,-1.3636,-1.3014,-1.2739,-1.2528,-1.2502,-1.25,-1.2526,-1.253,-1.3238,-1.401,-1.4796,-1.6486,-1.805,-1.9256,-2.0005,-2.0586,-2.0768,-2.0942,-2.1002,0.0,-2.0955,-2.1129,-2.1136,-2.1136,-2.1136,-2.1136,-2.1136,-2.1009,-2.0622,-2.0622,-2.0495,-2.0106,-2.0482,-2.0609,-2.0609,-2.0704,-2.0688,-2.0668,-2.0094,-1.9666,-1.9379,-1.9004,-1.8718,-1.8343,-1.7086,-1.6126,-1.5186,-1.3384,-1.2418,-1.1823,-1.1225,-1.1691,-1.274,0.0,0.0,0.0,0.0,0.0,0.0,0.0,0.0,0.0,0.0,0.0,0.0,0.0,0.0,0.0,0.0,-0.6172,-0.635,-0.6767,-0.7,-0.7309,-0.7509,-0.7665,-0.7746,-0.7842,-0.8126,-0.8317,-0.8504,-0.9292,-0.9736,-1.0026,-1.1025,-1.177,-1.2457,-1.3323,-1.4196,-1.4892,-1.5454,-1.5632,-1.5724,-1.5631,-1.5444,-1.5119,-1.4546,-1.4307,-1.405,0.0,-1.26,-1.2126,-1.2123,-1.1925,-1.1651,-1.1735,-1.1677,-1.1521,-1.169,-1.2122,-1.2686,-1.3219,-1.3952,-1.4561,-1.4801,-1.4951,-1.4872,-1.4859,-1.463,-1.4367,-1.4023,-1.4073,-1.404,-1.3689,-1.3859,-1.4557,-1.5841,-1.6914,-1.8185,-1.9573,-2.0392,-2.0889,-2.1009,-2.1049,0.0,0.0,0.0,0.0,-2.1109,-2.1109,-2.1109,-2.1109,-2.1109,-2.0856,-2.0234,-2.0042,-1.9695,-1.9197,-1.9511,-1.9781,-1.9781,-2.0183,-2.0281,-2.0087,-1.9893,-1.9639,-1.9359,-1.9037,-1.8891,-1.8671,-1.7453,-1.6428,-1.5492,-1.3597,-1.245,-1.1652,-1.1076,-1.1371,-1.2102,0.0,0.0,0.0,0.0,0.0,0.0,0.0,0.0,0.0,0.0,0.0,0.0,0.0,0.0,0.0,0.0,0.0,-0.6508,-0.6684,-0.685,-0.7056,-0.721,-0.7326,-0.7438,-0.7533,-0.7714,-0.7923,-0.8166,-0.864,-0.9103,-0.9453,-1.0241,-1.0972,-1.1642,-1.2585,-1.3495,-1.4444,-1.5106,-1.5483,-1.5752,-1.5749,-1.5606,-1.5456,-1.5048,-1.4783,0.0,-1.3722,-1.315,-1.2675,-1.238,-1.2111,-1.2022,-1.2111,-1.2152,-1.21,-1.2015,-1.2348,-1.2794,-1.3424,-1.4189,-1.4992,-1.5429,-1.5646,-1.5858,-1.6084,-1.584,-1.5551,-1.5272,-1.5203,-1.5053,-1.4632,-1.4766,-1.5338,-1.6566,-1.7404,-1.8374,-1.9896,-2.0488,-2.0788,-2.0975,-2.1042,-2.1069,0.0,0.0,0.0,-2.1109,-2.1109,-2.1109,-2.1109,-2.1109,-2.081,-1.9954,-1.9644,-1.9125,-1.8416,-1.8729,-1.9075,-1.9344,-1.9833,-1.9927,-1.9646,-1.9646,-1.9486,-1.9199,-1.9005,-1.8804,-1.8486,-1.7616,-1.6654,-1.5654,-1.4089,-1.2825,-1.1773,-1.1465,-1.1609,-1.1993,0.0,0.0,0.0,0.0,0.0,0.0,0.0,0.0,0.0,0.0,0.0,0.0,0.0,0.0,0.0,0.0,0.0,0.0,-0.6791,-0.6751,-0.6837,-0.6983,-0.7107,-0.7186,-0.7457,-0.7552,-0.7805,-0.8407,-0.8693,-0.8972,-0.9418,-0.989,-1.0454,-1.092,-1.1747,-1.271,-1.3975,-1.4699,-1.5252,-1.5718,-1.6134,-1.6027,-1.5553,-1.5526,-1.5254,-1.4847,-1.4248,-1.3879,-1.3473,-1.2746,-1.2361,-1.2333,-1.2618,-1.2626,-1.2404,-1.2158,-1.2426,-1.2928,-1.3538,-1.4436,-1.5293,-1.5774,-1.6125,-1.6367,-1.6627,-1.6447,-1.6211,-1.6217,-1.5884,-1.5579,-1.5215,-1.5672,-1.621,-1.684,-1.7695,-1.874,-2.0054,-2.0172,-2.0316,-2.0695,-2.0942,-2.1002,0.0,0.0,0.0,-2.1109,0.0,-2.1109,-2.1109,-2.1109,-2.0717,-1.9674,-1.9406,-1.8771,-1.7766,-1.8111,-1.858,-1.9279,-1.9529,-1.9633,-1.9366,-1.9352,-1.9192,-1.8925,-1.8891,-1.8564,-1.7935,-1.7679,-1.6806,-1.5493,-1.4827,-1.3626,-1.2177,-1.2259,-1.2279,-1.2374,0.0,0.0,0.0,0.0,0.0,0.0,0.0,0.0,0.0,0.0,0.0,0.0,0.0,0.0,0.0,0.0,0.0,0.0,-0.7285,-0.722,-0.7143,-0.7038,-0.716,-0.727,-0.7354,-0.7639,-0.7893,-0.802,-0.8539,-0.8867,-0.9005,-0.9587,-1.0262,-1.113,-1.2026,-1.3249,-1.4689,-1.4994,-1.542,-1.5901,-1.5529,-1.5448,-1.5434,-1.5353,-1.5085,-1.475,-1.4335,-1.4116,-1.3818,-1.322,-1.3279,-1.3697,-1.4202,-1.4046,-1.3785,-1.3725,-1.3659,-1.3747,-1.4366,-1.5143,-1.5871,-1.6348,-1.6742,-1.697,-1.7042,-1.6782,-1.6464,-1.6074,-1.5929,-1.5739,-1.5153,-1.5382,-1.5863,-1.6673,-1.7514,-1.8525,-1.9794,-2.0279,-2.0631,-2.0975,-2.1069,-2.1082,-2.1002,-2.1069,0.0,0.0,-2.1109,-2.1109,-2.1109,-2.1109,-2.0717,-1.9674,-1.9224,-1.8374,-1.7127,-1.7291,-1.7754,-1.864,-1.8992,-1.9193,-1.9359,-1.9138,-1.8991,-1.8898,-1.8457,-1.8183,-1.7901,-1.7246,-1.6561,-1.5969,-1.5046,-1.4242,-1.3757,-1.3509,-1.3614,-1.3808,0.0,0.0,0.0,0.0,0.0,0.0,0.0,0.0,0.0,0.0,0.0,0.0,0.0,0.0,0.0,0.0,0.0,0.0,0.0,-0.7655,-0.741,-0.7343,-0.7371,-0.7389,-0.7533,-0.7785,-0.8152,-0.8714,-0.91,-0.9471,-0.982,-1.0277,-1.0821,-1.1629,-1.2385,-1.347,-1.4685,-1.5047,-1.5486,0.0,0.0,-1.5811,-1.5732,-1.5803,-1.5589,-1.5167,-1.4845,-1.4543,-1.4378,-1.422,-1.4302,-1.4549,-1.501,-1.4956,-1.4737,-1.4848,-1.474,-1.4745,-1.5161,-1.5774,-1.6434,-1.6804,-1.7055,-1.7114,-1.6981,-1.6727,-1.64,-1.5794,-1.5708,-1.552,-1.5039,-1.5317,-1.5778,-1.6557,-1.7496,-1.8414,-1.9659,-2.0194,-2.0635,-2.1056,-2.1109,-2.1109,-2.1109,-2.1109,-2.1109,0.0,-2.1109,-2.1109,-2.1109,-2.0989,-2.0532,-1.949,-1.885,-1.7732,-1.639,-1.6482,-1.6885,-1.7596,-1.8175,-1.8461,-1.8583,-1.865,-1.8546,-1.8295,0.0,-1.7896,-1.7629,-1.7087,-1.6593,-1.6017,-1.5499,-1.4912,-1.4497,-1.4449,-1.449,-1.4586,0.0,0.0,0.0,0.0,0.0,0.0,0.0,0.0,0.0,0.0,0.0,0.0,0.0,0.0,0.0,0.0,0.0,0.0,0.0,0.0,0.0,-0.7865,-0.7697,-0.7715,-0.8055,-0.8084,-0.8638,-0.9771,-0.9803,-1.0258,-1.0988,-1.1253,-1.169,-1.2201,-1.2851,-1.3743,-1.4663,-1.5126,-1.5622,-1.6188,-1.6598,-1.6606,-1.6313,0.0,0.0,0.0,-1.537,-1.5177,-1.5046,-1.5429,-1.5308,-1.5137,-1.5464,-1.5556,-1.5621,-1.562,-1.567,-1.5707,-1.5987,-1.6447,-1.6836,-1.7022,-1.7074,-1.6954,-1.6653,-1.6339,-1.5945,-1.5391,-1.5277,-1.519,-1.4903,-1.5324,-1.5892,-1.6446,-1.7321,-1.8323,-1.9466,-1.9947,-2.0394,-2.0982,-2.1082,-2.1109,-2.1109,-2.1109,-2.1109,-2.1109,-2.1109,-2.1109,-2.1109,-2.0835,-2.0152,-1.921,-1.8196,-1.6993,-1.5477,-1.5704,-1.6059,-1.6301,-1.7196,-1.7524,-1.7538,-1.7913,-1.7948,-1.7597,-1.7747,0.0,-1.7141,-1.7068,-1.6627,-1.5967,-1.5927,-1.5474,-1.4879,-1.5077,-1.5077,-1.4879,0.0,0.0,0.0,0.0,0.0,0.0,0.0,0.0,0.0,0.0,-0.8975,-0.9862,0.0,0.0,0.0,0.0,0.0,0.0,0.0,0.0,0.0,0.0,-0.8728,-0.875,-0.8816,-0.9136,-0.9417,0.0,0.0,-1.0219,-1.0385,-1.1039,-1.1784,-1.254,-1.3532,-1.4668,-1.5899,-1.598,-1.6382,-1.6858,-1.6688,-1.6678,-1.6794,0.0,0.0,0.0,-1.5591,-1.5501,-1.5677,-1.6058,-1.5951,-1.5772,-1.6306,-1.6322,-1.6227,-1.6412,-1.6317,-1.62,-1.6478,-1.681,-1.7009,-1.6879,-1.6625,-1.6346,-1.6046,-1.5571,-1.5097,-1.4743,-1.4676,-1.4583,-1.4289,-1.4716,-1.5231,-1.5565,-1.6573,-1.7635,-1.8584,-1.9386,-2.0094,-2.0681,-2.0962,-2.1109,-2.1109,-2.1109,0.0,0.0,-2.1109,-2.1109,-2.1109,-2.0835,-1.9931,-1.8196,-1.6964,-1.5861,-1.4748,-1.4629,-1.4748,-1.5348,-1.562,-1.6079,-1.6718,-1.6727,-1.6917,-1.7239,-1.6996,0.0,-1.7114,-1.6627,-1.6366,-1.6246,-1.5903,-1.5777,-1.5642,-1.5642,-1.5642,-1.5635,0.0,0.0,0.0,0.0,0.0,0.0,0.0,-0.5727,-0.5816,-0.6017,-0.6867,-0.7944,-0.9245,-0.9508,-0.9734,0.0,0.0,0.0,0.0,0.0,0.0,0.0,0.0,0.0,0.0,0.0,0.0,0.0,0.0,0.0,0.0,0.0,0.0,0.0,0.0,0.0,0.0,-1.6149,-1.6498,0.0,0.0,0.0,0.0,0.0,0.0,0.0,0.0,-1.6044,-1.6285,-1.6533,-1.6674,-1.6664,-1.7169,-1.7231,-1.7208,-1.7348,-1.7173,-1.6984,-1.7121,-1.7265,-1.7312,-1.7021,-1.6607,-1.6159,-1.5705,-1.515,-1.4649,-1.4355,-1.4295,-1.4255,-1.4115,-1.4442,-1.4877,-1.5324,-1.6253,-1.7288,-1.8343,-1.9118,-1.9853,-2.0588,-2.0661,-2.0715,-2.0869,-2.0742,-2.0715,-2.0869,-2.0882,-2.0949,-2.1102,-2.0433,-1.9319,-1.769,-1.6357,-1.5053,-1.3991,-1.3509,-1.3339,-1.3358,-1.3943,-1.4406,-1.4848,-1.5509,-1.6096,-1.6485,-1.6612,0.0,-1.6887,-1.6453,-1.6179,-1.6025,-1.5885,-1.5832,-1.5832,-1.5832,-1.5832,-1.5832,0.0,0.0,0.0,0.0,0.0,0.0,0.0,-0.4256,-0.4064,-0.4199,-0.4543,-0.5547,-0.7627,-0.8507,-0.9168,0.0,0.0,0.0,0.0,0.0,0.0,0.0,0.0,0.0,0.0,0.0,0.0,0.0,0.0,0.0,0.0,0.0,0.0,0.0,0.0,0.0,0.0,0.0,0.0,0.0,0.0,0.0,0.0,0.0,0.0,0.0,0.0,-1.6673,-1.6831,-1.703,-1.7305,-1.7504,-1.7983,-1.7981,-1.7957,-1.7984,-1.7809,-1.7607,-1.7674,-1.7687,-1.7502,-1.7141,-1.6613,-1.6025,-1.5438,-1.485,-1.4362,-1.4135,-1.4088,-1.4088,-1.4088,-1.4322,-1.4669,-1.513,-1.5945,-1.6887,-1.7956,-1.8724,-1.9486,-2.0301,-2.0301,0.0,-2.0561,-2.0368,0.0,-2.0568,-2.0581,-2.0681,-2.0909,-1.9931,-1.8665,-1.7412,-1.5981,-1.4575,-1.3306,-1.2602,-1.2056,-1.1574,-1.2324,-1.2782,-1.3073,-1.4355,-1.5184,-1.5683,-1.6251,0.0,0.0,-1.6299,-1.6039,-1.5832,-1.5832,-1.5832,-1.5927,-1.5927,-1.5927,-1.6116,0.0,0.0,0.0,0.0,0.0,0.0,0.0,-0.2665,-0.2462,-0.239,-0.2876,-0.3736,-0.4961,-0.6734,-0.8182,0.0,0.0,0.0,0.0,0.0,0.0,0.0,0.0,0.0,0.0,0.0,0.0,0.0,0.0,0.0,0.0,0.0,0.0,0.0,0.0,0.0,0.0,0.0,0.0,0.0,0.0,0.0,0.0,0.0,0.0,0.0,0.0,-1.7199,-1.7369,-1.7709,-1.778,-1.7821,-1.8596,-1.8294,-1.7681,-1.8152,-1.7914,-1.7565,-1.7837,-1.7799,-1.7448,-1.6887,-1.6306,-1.5718,-1.5137,-1.4549,-1.4122,-1.4095,-1.4088,-1.4088,-1.4088,-1.4322,-1.4536,-1.4589,-1.5337,-1.6132,-1.678,-1.7856,-1.8804,-1.9412,0.0,0.0,-2.0267,-2.0247,-2.0241,-2.0267,-2.0274,-2.0287,-2.0314,-1.9633,-1.8599,-1.7231,-1.5958,-1.4456,-1.2749,-1.1825,-1.124,-1.0878,-1.0826,-1.1297,-1.2399,-1.2869,-1.3842,-1.5088,-1.5438,0.0,0.0,-1.5992,-1.5852,-1.5832,-1.5832,-1.5927,-1.613,-1.613,-1.6501,-1.6885,0.0,0.0,0.0,0.0,0.0,0.0,-0.2348,-0.1734,-0.1423,-0.1352,-0.1762,-0.255,-0.3674,-0.5249,-0.6781,-0.8216,0.0,0.0,0.0,0.0,0.0,0.0,0.0,0.0,0.0,0.0,0.0,-1.1016,0.0,0.0,0.0,0.0,0.0,0.0,0.0,0.0,0.0,0.0,0.0,0.0,0.0,0.0,0.0,0.0,0.0,0.0,0.0,0.0,-1.7688,-1.8181,-1.819,-1.7976,-1.8364,-1.8095,-1.7739,-1.8354,-1.8105,-1.7584,-1.7691,-1.7469,-1.7164,-1.6646,-1.6005,-1.5464,-1.5057,-1.4509,-1.4088,-1.4088,-1.4088,-1.4088,-1.4088,-1.4182,-1.4315,-1.4489,-1.4963,-1.5578,-1.6339,-1.7161,-1.7969,-1.8744,-1.9199,-1.9512,0.0,0.0,-1.9786,-1.996,-1.9813,-1.9713,-1.9713,-1.9122,-1.8286,-1.7092,-1.5434,-1.3759,-1.2194,-1.1057,-1.0217,-0.9673,-0.9939,-1.0512,-1.1167,-1.2383,-1.3499,-1.4619,-1.5169,0.0,0.0,-1.5952,-1.5832,-1.5832,-1.5832,-1.5927,-1.6224,-1.6407,-1.6777,-1.7246,0.0,0.0,0.0,0.0,0.0,-0.2918,-0.2186,-0.1504,-0.112,-0.126,-0.1576,-0.2184,-0.3276,-0.4395,-0.5718,-0.7276,-0.8328,0.0,0.0,0.0,0.0,0.0,0.0,0.0,0.0,0.0,-1.0506,-1.139,-1.1803,0.0,0.0,0.0,0.0,0.0,0.0,0.0,0.0,0.0,0.0,0.0,0.0,0.0,0.0,0.0,0.0,0.0,0.0,0.0,0.0,0.0,0.0,-1.7953,-1.821,-1.8028,0.0,-1.8548,-1.8132,-1.7501,-1.7624,-1.7372,-1.6908,-1.6413,-1.5859,-1.5297,-1.4917,-1.4442,-1.4088,-1.4088,-1.4088,-1.4088,-1.4088,-1.4088,-1.4155,-1.4355,-1.4643,-1.511,-1.5899,-1.652,-1.7221,-1.8116,0.0,-1.8784,-1.9078,-1.9105,-1.9225,-1.9519,-1.9272,-1.9105,-1.9105,-1.8483,-1.7761,-1.6857,-1.5013,-1.3325,-1.1788,-1.052,-0.9563,-0.8804,-0.924,-0.9823,-1.0445,-1.192,-1.3164,-1.4263,-1.5078,0.0,0.0,-1.5912,-1.5832,-1.5832,-1.5927,-1.6123,-1.6508,-1.6871,-1.7419,-1.8064,0.0,0.0,0.0,0.0,0.0,0.0,-0.2572,-0.2092,-0.1887,-0.2028,-0.243,-0.2976,-0.3772,-0.4464,-0.5296,-0.6268,-0.7637,0.0,0.0,0.0,0.0,0.0,0.0,0.0,0.0,0.0,-1.0781,-1.1593,-1.2284,-1.2938,-1.3608,-1.3819,0.0,0.0,0.0,0.0,0.0,0.0,0.0,0.0,0.0,0.0,0.0,0.0,0.0,0.0,0.0,0.0,0.0,0.0,0.0,0.0,0.0,0.0,0.0,0.0,-1.7858,-1.7219,-1.7946,-1.7527,-1.6767,-1.63,-1.5805,-1.5244,-1.4656,-1.4295,-1.4088,-1.4088,-1.4088,-1.4088,-1.4088,-1.4088,-1.4088,-1.4088,-1.4335,-1.473,-1.5324,-1.5912,-1.6607,0.0,-1.7862,-1.817,-1.847,-1.8497,-1.8617,-1.8911,-1.8664,0.0,-1.8497,-1.7727,-1.6889,-1.6278,-1.495,-1.3306,-1.1385,-1.0253,-0.9328,-0.8486,-0.8811,-0.9436,-1.0577,-1.1403,-1.2725,-1.4208,0.0,0.0,0.0,-1.5832,-1.5832,-1.5832,-1.6123,-1.6508,-1.7073,-1.7807,-1.8719,-1.953,0.0,0.0,0.0,0.0,0.0,0.0,0.0,-0.3381,-0.3377,-0.3574,-0.3883,-0.4384,-0.4999,-0.544,-0.5955,-0.6493,-0.7229,0.0,0.0,0.0,0.0,0.0,0.0,0.0,0.0,0.0,-1.1284,-1.2112,-1.3172,-1.3994,-1.4474,-1.5133,-1.5206,-1.4908,0.0,0.0,0.0,0.0,0.0,0.0,0.0,0.0,0.0,0.0,0.0,0.0,0.0,0.0,0.0,0.0,0.0,0.0,0.0,0.0,0.0,-1.8748,-1.8451,-1.7987,-1.7818,-1.7443,-1.6973,-1.6259,-1.5735,-1.5304,-1.4552,-1.4389,-1.4183,-1.3821,-1.3948,-1.4088,-1.4088,-1.4088,-1.4088,-1.4088,-1.4162,-1.4429,-1.5017,0.0,0.0,-1.6881,-1.7615,-1.8163,0.0,0.0,-1.8531,-1.8617,-1.8156,-1.7869,-1.7869,-1.7204,-1.6704,-1.6334,-1.4628,-1.3013,-1.1599,-1.0393,-0.9433,-0.8804,-0.9223,-0.9784,-1.0374,-1.1894,-1.3082,0.0,0.0,0.0,0.0,-1.5832,-1.5927,-1.6123,-1.6407,-1.6864,-1.7606,-1.8342,-1.9171,-2.0102,0.0,0.0,0.0,0.0,0.0,0.0,0.0,-0.503,-0.5182,-0.5531,-0.5621,-0.5849,-0.6248,-0.6461,-0.6706,-0.7043,-0.7449,0.0,0.0,0.0,0.0,0.0,0.0,0.0,0.0,-1.1044,-1.1862,-1.2701,-1.3871,-1.4576,-1.4935,-1.5497,-1.5432,-1.4788,-1.4717,0.0,0.0,0.0,0.0,0.0,0.0,0.0,-1.7501,0.0,0.0,0.0,0.0,0.0,0.0,0.0,0.0,0.0,0.0,0.0,0.0,0.0,-1.9258,-1.8926,-1.8132,-1.7565,-1.6999,-1.6159,-1.5672,-1.5195,-1.4543,-1.4302,-1.409,-1.3669,-1.3702,-1.3788,-1.3901,-1.3921,-1.3955,-1.4068,-1.4175,-1.4416,-1.4897,0.0,0.0,-1.6767,0.0,0.0,0.0,-1.8217,-1.815,-1.815,-1.7695,-1.7368,-1.7255,-1.68,-1.6413,-1.6266,-1.4593,-1.3111,-1.1694,-1.0399,-0.9445,-0.8834,-0.9347,-0.9896,-1.058,-1.2167,-1.3372,0.0,0.0,0.0,0.0,-1.6211,-1.6312,-1.6508,-1.6965,-1.7505,-1.8241,-1.9155,-2.0076,-2.0907,0.0,0.0,0.0,0.0,0.0,0.0,0.0,-0.6924,-0.7136,-0.7747,-0.7541,-0.7443,-0.7534,-0.7626,-0.7695,-0.7768,0.0,0.0,0.0,0.0,0.0,0.0,0.0,0.0,-1.0926,-1.1797,-1.2602,-1.3337,-1.4395,-1.4952,-1.4976,-1.515,-1.5007,-1.4585,-1.4018,-1.3793,-1.3863,-1.4364,-1.5038,-1.5833,-1.6324,-1.6742,0.0,0.0,0.0,0.0,0.0,0.0,0.0,0.0,0.0,0.0,0.0,0.0,0.0,0.0,0.0,0.0,0.0,-1.7793,-1.6843,-1.6213,-1.5594,-1.5048,-1.4572,-1.4116,0.0,-1.3546,-1.3338,-1.3293,-1.3567,-1.3627,-1.3734,-1.4008,-1.4315,-1.4623,-1.4923,-1.5498,0.0,0.0,-1.7395,0.0,-1.7989,-1.7736,-1.7549,-1.7549,-1.7261,-1.6967,-1.6687,-1.64,-1.6142,-1.5836,-1.4851,-1.3463,-1.1673,-1.0595,-0.9719,-0.8924,-0.9229,-1.0019,-1.1292,-1.2349,-1.3511,0.0,0.0,0.0,0.0,-1.6756,-1.7037,-1.7131,-1.7893,-1.8535,-1.9063,-2.0266,-2.1078,-2.1882,0.0,0.0,0.0,0.0,0.0,0.0,0.0,0.0,0.0,0.0,-0.9089,-0.9058,-0.9007,-0.9108,-0.9181,0.0,0.0,0.0,0.0,0.0,0.0,0.0,0.0,0.0,-1.1483,-1.2683,-1.347,-1.3978,-1.4749,-1.5201,-1.5243,-1.5265,-1.4913,-1.4349,-1.3935,-1.3784,-1.3784,-1.4086,-1.4625,-1.5346,-1.5638,-1.6123,0.0,0.0,0.0,0.0,-1.794,-1.8008,0.0,0.0,0.0,0.0,0.0,0.0,0.0,0.0,-2.0584,-2.0391,-1.9967,0.0,-1.8126,-1.7071,-1.647,-1.5928,0.0,-1.4567,-1.4285,-1.3509,-1.3416,-1.3371,-1.33,-1.3494,-1.3667,-1.3734,-1.4182,-1.4623,-1.4923,-1.5852,0.0,-1.678,-1.7268,-1.7609,-1.7689,-1.7422,-1.7248,-1.7248,-1.6774,-1.6348,-1.6072,-1.5803,-1.5454,-1.4973,-1.4582,-1.3796,-1.2721,-1.1507,-1.0605,-1.0015,-1.0314,-1.0801,-1.1585,-1.2937,-1.4094,0.0,0.0,0.0,-1.6685,-1.7066,-1.7424,-1.7985,-1.8716,-1.9455,-2.0266,-2.0997,-2.1624,-2.2208,0.0,0.0,0.0,0.0,0.0,0.0,0.0,0.0,0.0,0.0,0.0,-1.0342,-1.0187,-1.0477,0.0,0.0,0.0,0.0,0.0,0.0,0.0,0.0,0.0,-1.2504,-1.2852,-1.3866,-1.4608,-1.5092,-1.5576,-1.5788,-1.5689,-1.5346,-1.4828,-1.4028,-1.3469,-1.3251,-1.3251,-1.355,-1.3985,-1.4625,-1.4927,0.0,0.0,0.0,0.0,0.0,-1.793,-1.8008,0.0,-1.8144,-1.8279,-1.8472,0.0,0.0,0.0,0.0,-2.1146,-2.1001,-2.1023,-2.0039,-1.874,-1.7861,-1.7211,-1.6502,-1.5708,-1.5091,-1.4471,-1.3695,-1.3346,-1.3209,-1.3121,-1.324,-1.3487,-1.3539,-1.4249,-1.4923,0.0,0.0,-1.656,-1.6693,-1.6987,-1.7181,0.0,-1.7034,-1.6894,-1.676,-1.6348,-1.6011,-1.568,-1.5441,-1.5108,-1.4691,-1.4496,-1.3921,-1.2958,-1.191,-1.1187,-1.081,-1.081,-1.1287,-1.2141,-1.3356,-1.4297,0.0,0.0,0.0,-1.7071,-1.7613,-1.8137,-1.8691,-1.9507,-2.0277,-2.0926,-2.164,-2.2054,-2.2303,0.0,0.0,0.0,0.0,0.0,0.0,0.0,0.0,0.0,0.0,0.0,0.0,0.0,0.0,0.0,0.0,0.0,0.0,0.0,0.0,0.0,0.0,0.0,-1.3739,-1.4429,-1.5112,-1.5765,-1.6328,-1.6564,-1.6493,-1.6146,-1.5628,-1.4736,-1.3582,-1.2885,-1.2599,-1.2599,-1.2973,-1.3331,-1.376,-1.4274,0.0,0.0,0.0,0.0,0.0,0.0,0.0,0.0,-1.8279,-1.8472,-1.8741,-1.9473,0.0,0.0,0.0,0.0,0.0,-2.1793,-2.0682,-1.9354,-1.8801,-1.7947,-1.7143,-1.6628,0.0,0.0,0.0,0.0,0.0,0.0,-1.3148,0.0,0.0,0.0,0.0,-1.6092,-1.6246,-1.6359,-1.6613,-1.668,0.0,-1.6707,-1.6667,-1.6533,-1.6293,-1.6031,-1.5699,-1.5465,-1.5134,-1.481,-1.4558,-1.452,-1.3914,-1.2839,-1.2218,-1.1765,-1.1482,-1.1206,-1.1757,-1.2865,-1.358,-1.4398,-1.5397,0.0,0.0,-1.751,-1.8374,-1.8974,-1.9264,-2.0336,-2.093,-2.1235,-2.2032,-2.2207,-2.2167,0.0,0.0,0.0,0.0,0.0,0.0,0.0,0.0,0.0,0.0,0.0,0.0,0.0,0.0,0.0,0.0,0.0,0.0,0.0,0.0,0.0,-1.5373,-1.4949,-1.4951,-1.541,-1.6067,-1.6668,-1.7279,-1.6991,-1.6902,-1.6879,-1.6041,-1.4881,-1.3431,-1.2662,-1.2452,-1.2599,-1.2673,-1.29,-1.3339,-1.3912,0.0,0.0,0.0,0.0,0.0,0.0,0.0,0.0,-1.8414,-1.8798,-1.9309,-1.9835,0.0,0.0,0.0,0.0,0.0,-2.1542,-2.113,-2.0459,-1.9818,-1.9025,-1.8201,-1.7352,-1.6639,0.0,0.0,0.0,0.0,0.0,-1.3374,-1.3607,0.0,0.0,-1.5464,0.0,0.0,-1.6293,-1.6333,0.0,-1.6707,-1.6707,-1.648,-1.6319,-1.6279,-1.5846,-1.5402,-1.5178,-1.4666,-1.4328,-1.3999,-1.397,-1.3826,-1.3401,-1.3176,-1.2991,-1.2677,-1.2677,-1.2865,-1.332,-1.4038,-1.4937,-1.5821,0.0,-1.7395,-1.8322,-1.8915,-1.9504,-2.0044,-2.0606,-2.1025,-2.1473,-2.1623,-2.1781,-2.1934,0.0,0.0,0.0,0.0,0.0,0.0,0.0,0.0,0.0,0.0,0.0,0.0,0.0,0.0,0.0,0.0,0.0,0.0,0.0,0.0,-1.6517,-1.7171,-1.6874,-1.6627,-1.6478,-1.6927,-1.7432,-1.7791,-1.7495,-1.7382,-1.7371,-1.611,-1.4844,-1.36,-1.2982,-1.2608,-1.2452,-1.2452,-1.2599,-1.29,0.0,0.0,0.0,0.0,0.0,0.0,0.0,0.0,0.0,0.0,-1.8702,-1.9233,-1.9585,0.0,0.0,0.0,0.0,0.0,-2.1487,-2.1197,-2.0849,-2.0586,-1.9925,-1.9134,-1.8564,-1.7824,0.0,0.0,0.0,0.0,0.0,0.0,-1.392,-1.4522,0.0,-1.5498,-1.5792,-1.5945,-1.6032,0.0,0.0,-1.6233,-1.6233,-1.5972,-1.5798,-1.5798,-1.5145,-1.4699,-1.4619,-1.413,-1.3811,-1.3658,-1.3667,-1.3566,-1.3366,-1.3347,-1.331,-1.3248,-1.3073,-1.3248,-1.3605,-1.4295,-1.5067,-1.5833,0.0,-1.7771,-1.8679,-1.9335,-1.9826,-2.0273,-2.0852,-2.1106,-2.137,-2.137,-2.1452,-2.1465,0.0,0.0,0.0,0.0,0.0,0.0,0.0,0.0,0.0,0.0,0.0,0.0,0.0,0.0,0.0,0.0,0.0,0.0,0.0,0.0,-1.7587,-1.8026,-1.8128,-1.7934,-1.7464,-1.7695,-1.7927,-1.8218,-1.7924,-1.7761,-1.77,-1.6119,-1.4909,-1.4045,-1.3348,-1.2811,-1.2305,-1.2305,-1.2378,-1.2599,0.0,0.0,0.0,0.0,0.0,0.0,0.0,0.0,0.0,0.0,0.0,0.0,0.0,0.0,0.0,-2.088,-2.0894,-2.0843,-2.1213,-2.0941,-2.0565,-2.0751,0.0,-1.984,-1.9573,-1.8853,0.0,0.0,0.0,0.0,0.0,-1.43,0.0,-1.4939,-1.5264,-1.5578,-1.5798,-1.5832,-1.5832,-1.5832,-1.5832,-1.5805,-1.5732,-1.5524,-1.5364,-1.5297,-1.4715,0.0,-1.4219,-1.3715,-1.3465,-1.3361,-1.3347,-1.3265,-1.3215,-1.3234,-1.3346,-1.3445,-1.3278,-1.3361,-1.3778,-1.4434,-1.5129,-1.5942,-1.7154,-1.8178,-1.8984,-1.9706,-2.0177,-2.0449,-2.0868,-2.1074,-2.1074,-2.1074,-2.1074,-2.1025,0.0,0.0,0.0,0.0,0.0,0.0,0.0,0.0,0.0,0.0,0.0,0.0,0.0,0.0,0.0,0.0,0.0,0.0,0.0,0.0,-1.7755,-1.7743,-1.8177,-1.837,-1.8341,-1.8085,-1.8144,-1.8562,-1.836,-1.8064,-1.77,-1.6428,-1.5377,-1.4421,-1.3495,-1.2811,-1.2305,-1.2305,-1.2305,-1.2378,-1.2973,0.0,0.0,0.0,0.0,0.0,0.0,0.0,0.0,0.0,0.0,0.0,0.0,0.0,-2.0171,-2.0983,-2.0507,-1.9969,-2.0629,-2.0236,-1.9663,-1.9785,-2.0136,-2.0343,-1.9811,-1.9601,0.0,-1.7703,0.0,0.0,0.0,-1.5057,-1.4979,-1.495,-1.5431,-1.5805,-1.5825,0.0,-1.5832,-1.5832,-1.5832,-1.5725,-1.5451,-1.5404,-1.5284,-1.5017,0.0,0.0,-1.4112,-1.3681,-1.3237,-1.2959,-1.293,-1.2942,-1.2922,-1.3279,-1.3444,-1.3484,-1.3484,-1.3643,-1.4123,-1.4509,-1.5364,-1.646,-1.7405,-1.8485,-1.9557,-2.0029,-2.042,-2.0566,-2.0605,-2.0615,-2.0615,-2.0615,-2.0615,-2.0605,0.0,0.0,0.0,0.0,0.0,0.0,0.0,0.0,0.0,0.0,0.0,0.0,0.0,0.0,0.0,0.0,0.0,0.0,0.0,-1.7714,-1.812,-1.8708,-1.856,-1.8511,-1.8511,-1.8163,-1.8086,-1.8252,-1.8155,-1.7989,-1.7716,-1.7105,-1.6276,-1.5362,-1.4769,-1.391,-1.307,-1.2886,-1.2729,-1.2634,-1.2748,-1.3112,0.0,0.0,0.0,0.0,0.0,0.0,0.0,0.0,-1.8015,-1.8386,-1.8906,-1.9292,-1.9592,-2.0163,-2.003,-1.9789,-2.0194,-1.9883,-1.9631,-2.0045,-2.0179,0.0,0.0,-2.0081,-1.9925,-1.8798,-1.7976,0.0,0.0,0.0,-1.475,-1.4937,-1.5297,-1.5625,-1.5805,-1.5832,-1.5758,-1.5578,-1.5558,-1.5444,-1.5157,-1.4796,-1.4536,0.0,0.0,0.0,-1.3378,-1.2856,-1.2571,-1.2621,-1.2428,-1.2431,-1.2494,-1.2608,-1.2905,-1.3475,-1.3874,-1.4216,-1.4443,-1.5134,-1.5745,-1.6415,-1.7497,-1.8346,-1.8872,-1.9476,-1.9701,-1.9766,-1.9766,-1.9932,-2.0156,-2.0156,-2.0332,-2.0566,0.0,0.0,0.0,0.0,0.0,0.0,0.0,0.0,0.0,0.0,0.0,0.0,0.0,0.0,0.0,0.0,0.0,0.0,-1.7429,-1.7783,-1.8213,-1.8662,-1.8652,-1.8574,-1.8437,-1.8027,-1.7881,-1.8008,-1.8078,-1.8059,-1.7868,-1.7655,-1.7128,-1.6182,-1.572,-1.4843,-1.3649,-1.3369,-1.3079,-1.2743,-1.2688,-1.2973,0.0,0.0,0.0,0.0,0.0,0.0,0.0,0.0,-1.7405,-1.7707,-1.8274,-1.8762,-1.9186,-1.9552,-1.9548,-1.944,-1.975,-1.9454,-1.9141,-1.9805,0.0,0.0,-1.9755,-2.0327,-2.0492,-1.9606,-1.8505,-1.7143,-1.5216,0.0,0.0,0.0,-1.507,-1.5331,-1.5524,-1.5558,-1.5484,-1.5284,-1.5177,-1.501,-1.4716,-1.4242,0.0,0.0,0.0,0.0,0.0,-1.2214,-1.2065,-1.2048,-1.1932,-1.1893,-1.2024,-1.2107,-1.2537,-1.3263,-1.4177,-1.472,-1.4903,-1.564,-1.6155,-1.6647,-1.7696,-1.8294,-1.8627,-1.9068,-1.937,-1.937,-1.9433,-1.961,-1.9885,-1.9948,-2.0193,-2.0468,0.0,0.0,0.0,0.0,0.0,0.0,0.0,0.0,0.0,0.0,0.0,0.0,0.0,0.0,0.0,0.0,0.0,0.0,-1.6317,-1.7341,-1.7803,-1.7402,-1.8184,-1.8437,-1.8018,-1.7598,-1.7588,-1.8008,-1.8228,-1.8284,-1.8313,-1.8114,-1.7596,-1.6893,-1.619,-1.5187,-1.4035,-1.3823,-1.3262,-1.2606,-1.2826,-1.29,-1.2973,0.0,0.0,0.0,0.0,0.0,0.0,0.0,-1.6958,-1.7112,-1.7875,-1.8483,-1.9052,-1.9316,-1.8987,-1.8729,-1.9356,-1.8726,-1.8093,0.0,0.0,0.0,-1.9537,-2.0451,-2.093,-2.0108,-1.8355,-1.6569,-1.5314,-1.5014,0.0,-1.4522,-1.477,-1.4963,-1.4963,-1.4963,-1.4957,-1.495,-1.4689,-1.4396,-1.4102,-1.3808,0.0,0.0,0.0,0.0,0.0,-1.1864,-1.1724,-1.143,-1.1423,-1.1423,-1.1423,-1.1901,-1.2376,-1.2803,-1.4283,-1.5196,-1.5497,-1.5833,-1.6537,-1.7495,-1.7924,-1.8457,-1.8995,-1.9204,-1.9423,-1.9578,-1.9703,-1.9775,-1.9835,-2.0064,-2.0167,-2.0226,0.0,0.0,0.0,0.0,0.0,0.0,0.0,0.0,0.0,0.0,0.0,0.0,0.0,0.0,0.0,0.0,0.0,0.0,-1.6777,-1.7042,-1.7236,-1.753,-1.7797,-1.7957,-1.8008,-1.7891,-1.7744,-1.7568,-1.792,-1.8363,-1.8784,-1.8611,-1.8357,-1.8162,-1.7763,-1.6779,-1.5318,-1.4849,-1.4182,-1.3276,-1.2984,-1.3046,-1.3346,0.0,0.0,0.0,0.0,0.0,0.0,0.0,0.0,0.0,-1.749,-1.8159,-1.856,-1.8893,-1.8614,-1.8377,-1.9064,-1.8423,0.0,-1.9254,0.0,0.0,0.0,-2.0393,0.0,0.0,-1.7965,-1.6759,-1.5358,-1.4825,0.0,-1.4482,-1.4596,-1.4656,-1.4656,-1.4656,-1.4502,-1.4082,-1.3961,-1.3701,-1.3193,0.0,0.0,0.0,0.0,0.0,0.0,-1.1363,-1.1209,-1.1122,-1.1122,-1.1122,-1.1122,-1.1581,-1.2218,-1.2967,-1.3884,-1.4735,-1.5515,-1.6408,-1.7024,-1.7274,-1.7691,-1.7906,-1.8072,-1.8115,-1.8022,-1.7981,-1.8604,-1.8987,-1.9267,-1.9706,-2.0002,-2.0088,0.0,0.0,0.0,0.0,0.0,0.0,0.0,0.0,0.0,0.0,0.0,0.0,0.0,0.0,0.0,0.0,0.0,0.0,0.0,-1.7089,-1.7236,-1.7647,-1.7656,-1.7744,-1.7754,-1.793,-1.7803,-1.7383,-1.7803,-1.8308,-1.9004,-1.8867,-1.8929,-1.9063,-1.8664,-1.7743,-1.6436,-1.5755,-1.4878,-1.3822,-1.355,-1.355,-1.363,0.0,0.0,0.0,0.0,0.0,0.0,0.0,0.0,0.0,-1.6705,-1.7268,-1.7667,-1.7886,-1.7655,-1.7465,-1.8224,-1.7874,0.0,-1.8887,-1.9137,-1.9164,-1.9889,0.0,0.0,0.0,-1.8079,-1.7009,-1.5426,-1.4807,0.0,-1.4072,-1.4001,-1.4001,-1.4001,-1.3895,-1.3681,-1.3327,-1.308,-1.2799,0.0,0.0,0.0,0.0,0.0,0.0,0.0,-1.0568,-1.0474,-1.0474,-1.0474,-1.0528,-1.0641,-1.115,-1.1809,-1.2638,-1.3658,-1.4562,-1.537,-1.6587,-1.729,-1.751,-1.7543,-1.761,-1.7581,-1.7526,-1.7453,-1.7439,-1.8197,-1.8776,-1.9316,-1.9705,-2.0033,-2.0253,0.0,0.0,0.0,0.0,0.0,0.0,0.0,0.0,0.0,0.0,0.0,0.0,0.0,0.0,0.0,0.0,0.0,0.0,0.0,0.0,-1.7599,-1.776,-1.7877,-1.7815,-1.7573,-1.788,-1.789,-1.7507,-1.7822,-1.8387,-1.9004,-1.9004,-1.9231,-1.9627,-1.9053,-1.8257,-1.7269,-1.6408,-1.5445,-1.441,-1.441,-1.4194,-1.3977,-1.4129,0.0,0.0,0.0,0.0,0.0,0.0,0.0,0.0,-1.5508,-1.5891,-1.6301,-1.6451,-1.6224,-1.6151,-1.7011,-1.7066,-1.7101,-1.807,-1.8733,0.0,-1.9596,-1.9822,-1.9733,-1.9099,0.0,-1.7317,-1.561,-1.4911,-1.4226,-1.3292,-1.3166,-1.3146,-1.3093,-1.2846,-1.2728,-1.2708,-1.2151,-1.1817,0.0,0.0,0.0,0.0,0.0,0.0,0.0,-0.9686,-0.9686,-0.9686,-0.9686,-0.9813,-1.0074,-1.0643,-1.1224,-1.1943,-1.3401,-1.4488,-1.5129,-1.6474,-1.7377,-1.7871,-1.749,-1.7295,-1.7292,-1.7312,-1.7441,-1.7728,-1.8348,-1.8984,-1.957,-1.992,-2.026,-2.0493,0.0,0.0,0.0,0.0,0.0,0.0,0.0,0.0,0.0,0.0,0.0,0.0,0.0,0.0,0.0,0.0,0.0,0.0,0.0,0.0,-1.8464,-1.8539,-1.8732,-1.8787,-1.8731,-1.869,-1.8566,-1.8465,-1.8162,-1.8447,-1.9214,-1.9214,-1.9531,-2.0167,-1.9659,-1.8797,-1.7719,-1.7005,-1.6114,-1.5213,-1.5062,-1.5125,-1.533,-1.4903,-1.484,0.0,0.0,0.0,0.0,0.0,0.0,0.0,-1.3718,-1.4123,-1.4594,-1.4644,-1.4798,-1.5203,-1.5999,-1.6225,0.0,-1.7807,-1.8572,-1.8945,-1.8722,-1.8769,-1.8749,-1.8719,-1.7937,-1.687,-1.5564,-1.4562,-1.3738,-1.297,-1.2923,-1.2685,-1.2225,-1.2098,-1.1971,-1.1737,-1.1597,0.0,0.0,0.0,0.0,0.0,0.0,0.0,-0.9693,-0.9686,-0.9686,-0.9686,-0.9686,-0.9713,-0.978,-1.0538,-1.1114,0.0,-1.2967,-1.4101,-1.4987,-1.6116,-1.6786,-1.7002,-1.6914,-1.6743,-1.6533,-1.6799,-1.7012,-1.7241,-1.8302,-1.8884,-1.9333,-2.0156,-2.0432,-2.0329,0.0,0.0,0.0,0.0,0.0,0.0,0.0,0.0,0.0,0.0,0.0,0.0,0.0,0.0,0.0,0.0,0.0,0.0,0.0,0.0,-1.9263,-1.9067,-1.9113,-1.923,-1.9341,-1.9208,-1.9142,-1.9054,-1.8674,-1.8864,-1.9442,-1.936,-1.9564,-2.0091,-1.9664,-1.8944,-1.8098,-1.7466,-1.6632,-1.5851,-1.5791,-1.5713,-1.5696,-1.5289,-1.511,-1.4903,-1.397,0.0,0.0,0.0,0.0,0.0,0.0,0.0,-1.2271,-1.2401,-1.2805,-1.3439,-1.4513,0.0,0.0,-1.7538,0.0,-1.7976,-1.8121,-1.7757,-1.7465,-1.7502,-1.7067,-1.6299,-1.4935,-1.4175,-1.3379,-1.2403,-1.2263,-1.2155,-1.1703,-1.1416,-1.1182,-1.1029,-1.0762,0.0,0.0,0.0,0.0,0.0,0.0,-0.9412,-0.9272,-0.9265,-0.9265,-0.9265,-0.9265,-0.9332,-0.9472,-0.9971,-1.0465,-1.1026,-1.2233,-1.3494,-1.4818,-1.6061,-1.6602,-1.6719,-1.6504,-1.6341,-1.6297,-1.6622,-1.6838,-1.72,-1.8237,-1.8946,-1.953,-2.012,-2.0358,-2.0356,0.0,0.0,0.0,0.0,0.0,0.0,0.0,0.0,0.0,0.0,0.0,0.0,0.0,0.0,0.0,0.0,0.0,0.0,0.0,0.0,0.0,-1.9599,-1.9531,-1.9577,-1.9673,-1.962,-1.9479,-1.9328,-1.9173,-1.926,-1.9523,-1.9364,-1.9438,-1.9752,-1.9399,-1.8947,-1.8385,-1.7672,-1.6945,-1.6294,-1.623,-1.606,-1.5717,-1.5528,-1.5187,-1.4743,-1.3723,-1.2879,-1.2051,-1.0383,0.0,0.0,0.0,0.0,-0.9819,-1.0197,-1.0788,-1.1641,-1.2956,-1.3958,-1.498,-1.6863,-1.7009,0.0,-1.7204,-1.671,-1.6086,-1.5888,-1.5904,-1.5608,-1.4302,-1.3685,-1.2984,-1.1853,-1.1689,-1.1587,-1.1283,-1.0788,-1.053,-1.0477,0.0,0.0,0.0,0.0,0.0,0.0,0.0,-0.9058,-0.8824,-0.8804,-0.8804,-0.8804,-0.8804,-0.8925,-0.911,-0.9384,-0.9806,-1.0507,-1.1576,-1.2939,-1.4461,-1.5645,-1.6305,-1.6484,-1.6096,-1.6029,-1.6237,-1.6441,-1.6837,-1.7346,-1.8309,-1.909,-1.977,-1.9976,-2.0237,-2.0397,0.0,0.0,0.0,0.0,0.0,0.0,0.0,0.0,0.0,0.0,0.0,0.0,0.0,0.0,0.0,0.0,0.0,0.0,-2.3216,0.0,0.0,-2.0557,-2.0334,-2.0217,-2.0123,-1.9707,-1.9418,-1.9309,-1.9184,-1.908,-1.909,-1.914,-1.928,-1.9383,-1.8955,-1.8737,-1.8604,-1.7404,-1.6826,-1.6675,-1.6179,-1.5974,-1.5956,-1.5574,-1.5104,-1.4466,-1.3194,-1.1977,-1.0701,-0.8669,-0.7601,0.0,0.0,0.0,-0.7916,-0.8575,-0.9806,-1.1101,-1.2042,0.0,-1.4824,0.0,-1.5799,-1.5843,0.0,0.0,-1.4817,0.0,-1.426,-1.4592,-1.4145,-1.3304,-1.2458,-1.1824,-1.1577,-1.1258,-1.0616,-1.035,-1.008,-0.9826,0.0,0.0,0.0,0.0,0.0,0.0,-0.9005,-0.8844,-0.8811,-0.8804,-0.8804,-0.8804,-0.8804,-0.8824,-0.8864,-0.9282,-0.9646,-1.0012,-1.1503,-1.2595,-1.3305,-1.394,-1.479,-1.5831,-1.5328,-1.5411,-1.5901,-1.6201,-1.6815,-1.7653,-1.8596,-1.9247,-1.9673,-2.0143,-2.0365,-2.0391,0.0,0.0,0.0,0.0,0.0,0.0,0.0,0.0,0.0,0.0,0.0,0.0,0.0,0.0,0.0,-2.5567,-2.5214,-2.4617,-2.3621,-2.2609,-2.1866,-2.1381,-2.0923,-2.0674,-2.0595,-2.032,-2.003,-1.9678,-1.9772,-1.9495,-1.8898,-1.9304,-1.9375,-1.9125,-1.8851,-1.8632,-1.8438,-1.7586,-1.6988,-1.6605,-1.6158,-1.5688,-1.5251,-1.4854,-1.4438,-1.3824,-1.2472,-1.1095,-0.9574,-0.7305,-0.6051,-0.5364,-0.4549,0.0,0.0,0.0,-0.9169,-1.0588,-1.1869,-1.3014,-1.3938,0.0,-1.4541,-1.4536,-1.4228,-1.3908,-1.3502,-1.2895,-1.29,-1.3006,-1.3082,-1.2714,-1.2152,-1.145,-1.1253,-1.0911,-1.023,-0.9791,-0.9579,-0.9452,0.0,0.0,0.0,0.0,0.0,0.0,-0.8878,-0.8804,-0.8804,-0.8804,-0.8804,-0.8804,-0.8804,-0.8804,-0.8804,-0.8985,-0.9451,-1.0057,-1.1067,-1.202,-1.2894,-1.3485,-1.4128,-1.4808,-1.473,-1.5019,-1.5532,-1.5942,-1.6501,-1.7272,-1.8274,-1.8851,-1.9219,-1.9818,-2.007,-2.0002,0.0,0.0,0.0,0.0,0.0,0.0,0.0,0.0,0.0,0.0,0.0,0.0,0.0,0.0,0.0,0.0,-2.5795,-2.5221,-2.4112,-2.3274,-2.2612,-2.215,-2.1517,-2.1054,-2.0894,-2.0699,-2.0365,-2.0017,-2.0147,-1.9863,-1.9076,-1.9594,-1.9555,-1.9121,-1.8718,-1.8464,-1.819,-1.7527,-1.6949,-1.6465,-1.598,-1.5304,-1.4568,-1.4113,-1.3648,-1.2952,-1.176,-1.0269,-0.8601,-0.6369,-0.5009,-0.4202,-0.3671,-0.4512,0.0,0.0,0.0,-1.0711,0.0,0.0,-1.3033,-1.3256,-1.3312,-1.3236,0.0,0.0,-1.245,0.0,-1.1815,-1.1754,-1.1998,-1.2176,-1.1989,-1.1346,-1.1077,-1.0702,-0.9957,-0.9491,-0.9157,-0.9084,0.0,0.0,0.0,0.0,0.0,0.0,-0.8804,-0.8804,-0.8804,-0.8804,-0.8804,-0.8804,-0.8804,-0.8804,-0.8857,-0.8956,-0.9383,-1.0102,-1.0676,-1.1461,-1.2448,-1.3072,-1.359,-1.3965,-1.4345,-1.4852,-1.5445,-1.5886,-1.648,-1.7123,-1.8069,-1.8585,-1.8832,-1.9296,-1.9447,-1.9346,0.0,0.0,0.0,0.0,0.0,0.0,0.0,0.0,0.0,0.0,0.0,0.0,-2.6572,-2.652,-2.6468,-2.6383,-2.626,-2.5848,-2.5091,-2.4405,-2.3636,-2.2785,-2.2091,0.0,-2.0838,-2.0398,-2.0156,-2.0028,-2.0052,-2.0013,-1.9866,-1.9987,-1.9916,-1.9551,-1.8585,-1.8109,-1.8029,-1.6992,-1.6534,-1.6437,-1.5536,-1.4698,-1.4012,-1.376,-1.2956,-1.1985,-1.1187,0.0,0.0,0.0,0.0,0.0,0.0,-0.5022,-0.6341,0.0,0.0,0.0,0.0,-1.2205,0.0,-1.2174,-1.221,-1.2237,0.0,0.0,-1.1642,-1.1142,-1.1127,-1.1228,-1.1318,-1.1769,-1.1966,-1.1615,-1.1316,-1.0799,-0.9841,-0.9411,-0.9084,-0.8864,0.0,0.0,0.0,0.0,0.0,0.0,-0.8804,-0.8804,-0.8804,-0.8804,-0.8804,-0.8804,-0.8804,-0.8857,-0.9008,-0.9361,-0.9629,-0.9821,-1.0443,-1.1006,-1.158,-1.2172,-1.2803,-1.3463,-1.4247,-1.5029,-1.5816,-1.635,-1.6941,-1.7561,-1.8236,-1.8593,-1.8686,-1.8537,-1.8456,-1.8374,0.0,0.0,0.0,0.0,0.0,0.0,0.0,0.0,0.0,0.0,0.0,0.0,0.0,-2.664,-2.6589,-2.6521,-2.6382,-2.6082,-2.5642,-2.5075,-2.4364,-2.3565,-2.277,-2.2095,-2.1458,-2.1068,-2.0723,-2.0497,-2.081,-2.0636,-2.0108,-2.0211,-1.982,-1.9009,-1.8755,-1.8566,-1.8383,-1.7539,-1.6836,-1.6246,-1.5478,-1.4586,-1.3649,-1.3112,-1.2355,0.0,0.0,0.0,0.0,0.0,0.0,0.0,0.0,0.0,0.0,0.0,0.0,0.0,0.0,0.0,0.0,-1.2171,-1.1992,-1.1682,-1.1409,-1.1276,-1.1128,-1.084,-1.0843,-1.0932,-1.0875,-1.1185,-1.1383,-1.1105,-1.0766,-1.0302,-0.9695,-0.9479,-0.933,-0.9323,0.0,0.0,0.0,0.0,0.0,0.0,0.0,-0.9113,-0.8956,-0.891,-0.891,-0.891,-0.891,-0.9061,-0.9361,-0.9614,-0.9873,-1.0198,-1.0718,-1.1259,-1.1832,-1.2579,-1.3314,-1.4025,-1.4877,-1.5429,-1.5715,-1.6288,-1.6829,-1.7381,-1.8052,-1.8362,-1.8401,-1.8597,-1.8601,-1.838,0.0,0.0,0.0,0.0,0.0,0.0,0.0,0.0,0.0,-2.6016,0.0,0.0,0.0,0.0,-2.7333,-2.7028,-2.6855,-2.6562,-2.6079,-2.5551,-2.4958,-2.4173,-2.3406,-2.2694,-2.2077,-2.165,-2.141,-2.1286,-2.1442,-2.1302,-2.0962,-2.0778,-2.0217,-1.9383,-1.9308,-1.889,-1.824,-1.7619,-1.6963,-1.6254,-1.5762,-1.4818,-1.37,-1.3227,0.0,0.0,0.0,0.0,0.0,0.0,0.0,0.0,0.0,0.0,0.0,0.0,0.0,0.0,-1.2814,0.0,0.0,0.0,0.0,-1.1424,-1.1166,0.0,-1.0795,-1.0665,-1.0681,-1.0718,-1.0532,-1.0685,-1.0741,-1.0703,-1.0471,-1.021,-0.9769,-0.9673,-0.9614,-0.9718,0.0,0.0,0.0,0.0,0.0,0.0,0.0,0.0,-0.9263,-0.9211,-0.9211,-0.9263,-0.9368,-0.9621,-1.0012,-1.0269,-1.0576,-1.0939,-1.1401,-1.1891,-1.2414,-1.315,-1.3873,-1.4628,-1.5499,-1.594,-1.6058,-1.6672,-1.7201,-1.7679,-1.8151,-1.8257,-1.8214,-1.8311,-1.8247,-1.799,0.0,0.0,0.0,0.0,0.0,0.0,0.0,0.0,-2.7588,-2.686,0.0,0.0,0.0,0.0,0.0,-2.7891,-2.7735,-2.731,-2.6397,-2.5974,-2.5384,-2.4664,-2.3964,-2.3275,-2.2558,-2.2203,-2.2091,-2.2231,-2.1949,-2.2049,-2.2378,-2.1678,-2.111,-2.0795,-2.0167,-1.9067,-1.7667,-1.7254,-1.6888,-1.6538,0.0,-1.5548,-1.4249,0.0,0.0,0.0,-1.149,-1.0458,0.0,-0.9093,0.0,0.0,0.0,0.0,0.0,0.0,0.0,0.0,0.0,0.0,0.0,0.0,0.0,0.0,-1.0926,0.0,-1.0561,-1.0561,-1.0555,-1.0517,-1.0404,-1.0214,-1.013,-1.0367,-1.0524,-1.0463,-1.0096,-1.0028,-1.0064,-1.0064,0.0,0.0,0.0,0.0,0.0,0.0,-0.9917,-0.9814,-0.9814,-0.9718,-0.9666,-0.9814,-1.0087,-1.0446,-1.0813,-1.1366,-1.1765,-1.2061,-1.2463,-1.2861,-1.3266,-1.3779,-1.4444,-1.5198,-1.6126,-1.6629,-1.6912,-1.753,-1.8068,-1.85,-1.85,-1.8422,-1.8266,-1.772,-1.7393,-1.7115,0.0,0.0,0.0,0.0,0.0,-2.8252,-2.8356,-2.8544,-2.8586,0.0,0.0,0.0,-2.8653,-2.8856,-2.889,-2.8687,-2.811,-2.7634,-2.7326,-2.6524,-2.5795,-2.5275,-2.4552,-2.3991,-2.3522,-2.3024,-2.2799,-2.2859,-2.2663,-2.2534,-2.239,-2.1883,-2.1362,-2.0798,-2.0225,-1.9629,-1.9014,-1.8278,0.0,-1.6966,-1.6598,-1.5939,0.0,0.0,0.0,0.0,0.0,-1.1826,-1.0878,0.0,-1.0968,-1.1221,0.0,0.0,0.0,0.0,0.0,0.0,-1.3969,0.0,0.0,0.0,0.0,0.0,0.0,0.0,-1.0371,-1.0174,-1.0019,-0.9916,-0.9682,-0.961,-0.9639,-0.9804,-1.0128,-1.041,-1.0624,-1.0812,-1.1006,-1.1209,0.0,0.0,0.0,0.0,0.0,0.0,-1.0905,-1.0702,-1.0241,-1.019,-1.019,-1.0241,-1.0804,-1.1259,-1.1543,-1.208,-1.2511,-1.2861,-1.3294,-1.3684,-1.4082,-1.4674,-1.5266,-1.5925,-1.6727,-1.7394,-1.7921,-1.8173,-1.8461,-1.8745,-1.886,-1.8822,-1.863,-1.8226,-1.7868,-1.7475,0.0,0.0,0.0,0.0,0.0,-2.9168,-2.9125,-2.9319,-2.9347,0.0,0.0,0.0,-2.9871,-2.9905,-2.977,-2.9482,-2.9042,-2.8465,-2.7734,-2.7067,-2.6396,-2.5701,-2.5059,-2.4542,-2.4214,-2.3709,-2.3421,-2.3392,-2.3216,-2.3038,-2.2783,-2.2342,-2.1874,-2.1348,-2.0795,0.0,-2.0067,0.0,0.0,0.0,-1.7651,0.0,0.0,-1.5908,-1.5145,0.0,0.0,0.0,-1.2821,-1.2995,-1.3356,0.0,0.0,0.0,0.0,0.0,0.0,0.0,0.0,0.0,0.0,0.0,0.0,0.0,-1.0829,-1.0436,-1.0155,0.0,-0.9631,-0.9498,-0.9266,-0.9296,-0.9405,-0.9561,-0.9984,-1.0454,-1.0972,-1.1326,-1.1628,-1.1828,0.0,0.0,0.0,-1.1877,-1.1778,-1.1628,-1.1578,-1.1368,-1.0964,-1.1015,-1.1065,-1.1116,-1.1701,-1.2197,-1.254,-1.3092,-1.3569,-1.4025,-1.434,-1.4674,-1.4994,-1.5457,-1.5988,-1.6552,-1.7201,-1.7854,-1.8461,-1.8707,-1.8936,-1.9139,-1.9265,-1.9176,-1.895,-1.8592,-1.8201,-1.7855,0.0,0.0,-2.9289,-2.9685,-3.0228,-3.0452,-3.0028,-3.0174,-3.0074,0.0,-2.9888,-3.0632,-3.136,-3.136,-3.1055,-3.0395,-3.0192,-2.9462,-2.7938,-2.7607,-2.7005,-2.5987,-2.5454,-2.5052,-2.4704,-2.4214,-2.3937,-2.3882,-2.3625,-2.3451,-2.3319,-2.2934,-2.2572,-2.2263,0.0,0.0,0.0,0.0,0.0,-1.9242,-1.9202,-1.8571,0.0,0.0,-1.6854,-1.5793,-1.5505,-1.5148,-1.4838,-1.509,-1.5756,0.0,0.0,0.0,0.0,0.0,-1.5966,0.0,0.0,0.0,0.0,0.0,0.0,0.0,-1.0667,-1.0309,-0.998,0.0,-0.924,-0.9144,-0.9013,-0.9046,-0.9262,-0.9561,-1.0035,-1.0608,-1.1276,-1.1669,-1.2026,-1.2175,0.0,0.0,-1.2175,-1.2175,-1.2175,-1.2175,-1.2067,-1.1968,-1.1868,-1.1968,-1.2067,-1.2215,-1.2677,-1.316,-1.3668,-1.4283,-1.4801,-1.5153,-1.5424,-1.568,-1.5832,-1.6132,-1.6552,-1.7076,-1.7666,-1.8187,-1.8707,-1.9139,-1.9465,-1.9611,-1.9611,-1.9501,-1.9302,-1.8822,-1.8489,-1.8189,0.0,-2.8974,-2.9691,-3.048,-3.0997,-3.1371,-3.1533,-3.1746,-3.1596,-3.0852,-3.1393,-3.2138,-3.2899,-3.2425,-3.2019,-3.1867,-3.0784,-2.9719,-2.8822,-2.8073,-2.7241,-2.6347,-2.5937,-2.5642,-2.54,-2.4775,-2.4369,-2.4219,-2.3882,-2.3668,-2.3466,-2.3275,-2.3038,-2.2754,-2.2526,0.0,0.0,0.0,0.0,-2.1534,-2.0322,0.0,-1.9049,-1.8827,-1.8213,-1.7368,-1.7158,-1.6778,-1.6373,-1.6768,-1.718,-1.76,0.0,0.0,0.0,-1.7469,0.0,0.0,0.0,0.0,0.0,0.0,0.0,0.0,-1.0667,-1.0181,-0.9739,0.0,-0.8628,-0.857,-0.88,-0.8767,-0.8904,-0.9517,-1.0035,-1.071,-1.1519,-1.1977,-1.2323,-1.2676,0.0,0.0,-1.2735,-1.2832,-1.2881,-1.2725,-1.2647,-1.2677,-1.2725,-1.2774,-1.2832,-1.2977,-1.3494,-1.3931,-1.4233,-1.4858,-1.522,-1.5424,-1.5736,-1.6001,-1.6144,-1.6625,-1.7047,-1.7421,-1.8147,-1.8669,-1.9026,-1.9376,-1.9574,-1.9611,-1.9669,-1.9632,-1.9501,-1.9139,-1.8874,-1.863,-2.9377,-2.9583,-3.0008,-3.0961,-3.1106,-3.129,-3.1926,-3.1864,-3.1613,-3.1241,-3.1833,-3.256,-3.3322,-3.3068,-3.2848,-3.2848,-3.1833,-3.0869,-3.0142,-2.8952,-2.7883,-2.7091,-2.6424,-2.599,-2.577,-2.5262,-2.4791,-2.44,-2.4094,-2.3824,-2.3538,-2.3451,-2.3319,-2.3172,-2.2979,-2.2844,0.0,0.0,-2.2649,-2.2512,-2.1417,0.0,-2.0395,-2.0004,-1.9478,-1.8943,-1.8596,-1.8232,-1.7863,-1.8135,-1.8363,0.0,-1.836,-1.8215,-1.795,0.0,-1.7224,-1.6793,0.0,0.0,0.0,-1.4172,0.0,0.0,0.0,-1.024,-0.965,-0.8839,-0.8508,-0.8415,-0.868,-0.8671,-0.883,-0.951,-0.9925,-1.0541,-1.1569,-1.2026,-1.2431,-1.2832,0.0,0.0,-1.2978,-1.3162,-1.3296,-1.3344,-1.3362,-1.3447,-1.3494,-1.3647,-1.3742,-1.38,-1.434,-1.4766,-1.4971,-1.5457,-1.5824,-1.5957,-1.6163,-1.6392,-1.662,-1.7018,-1.7462,-1.7908,-1.8461,-1.8898,-1.9265,-1.9501,-1.9611,-1.9669,-1.969,-1.9669,-1.9574,-1.9339,-1.9139,-1.9026,-3.0231,-3.0189,-3.0375,-3.1199,-3.1097,-3.1108,-3.1851,-3.1638,-3.1421,-3.1573,-3.2215,-3.2959,-3.3719,-3.3711,-3.3609,-3.3609,-3.2933,-3.2121,-3.1258,-2.9981,-2.8881,-2.7988,-2.7038,-2.6441,-2.6167,-2.5686,-2.5162,-2.4539,-2.4261,-2.3952,-2.3595,-2.3538,-2.3494,-2.3494,-2.3304,-2.3216,0.0,0.0,0.0,-2.2979,0.0,-2.2016,-2.1575,-2.114,-2.0746,-2.032,-1.966,-1.9275,-1.9092,-1.9092,-1.9184,-1.9214,-1.8795,-1.8621,0.0,0.0,0.0,0.0,0.0,0.0,0.0,0.0,0.0,-1.2828,0.0,0.0,0.0,-0.8844,-0.8527,0.0,0.0,0.0,0.0,0.0,0.0,0.0,0.0,-1.2026,0.0,-1.2832,0.0,0.0,-1.3123,-1.3382,-1.3705,-1.4046,-1.4129,-1.4212,-1.4305,-1.4501,-1.4651,-1.4686,-1.5175,-1.5534,-1.5691,-1.6144,-1.6405,-1.6522,-1.6607,-1.682,-1.7115,-1.7393,-1.7828,-1.8383,-1.8745,-1.9101,-1.9465,-1.9574,-1.9632,-1.969,-1.969,-1.9669,-1.9611,-1.9487,-1.9413,-1.9339,-3.0426,-3.0443,-3.0674,-3.1347,-3.1494,-3.1589,-3.1791,-3.1867,-3.2135,-3.2806,-3.358,-3.4408,-3.5155,-3.4749,-3.437,-3.437,-3.3694,-3.2679,-3.1275,-3.1038,-3.0311,-2.8907,-2.8005,-2.7423,-2.7147,-2.6118,-2.5262,-2.4589,-2.4245,-2.3952,-2.3595,-2.361,-2.361,-2.361,-2.3551,0.0,0.0,0.0,-2.3508,0.0,-2.3407,-2.2963,0.0,-2.2263,-2.1793,-2.1099,-1.9911,-1.9474,-1.9438,0.0,-1.9428,-1.9464,0.0,-1.9484,-1.9223,-1.8507,0.0,0.0,0.0,0.0,0.0,0.0,-1.3965,0.0,-1.156,0.0,-1.0009,-0.9116,0.0,0.0,0.0,0.0,0.0,0.0,0.0,0.0,-1.1519,-1.1927,-1.2323,-1.2832,-1.3027,0.0,0.0,-1.3742,-1.4362,-1.4926,-1.4971,-1.5096,-1.5322,-1.5379,-1.5457,-1.5656,-1.58,-1.6076,-1.638,-1.6663,-1.6863,-1.6909,-1.706,-1.724,-1.7434,-1.7787,-1.8147,-1.8592,-1.9064,-1.9376,-1.9574,-1.9669,-1.969,-1.969,-1.969,-1.969,-1.969,-1.9596,-1.9574,-1.9538,-3.0551,-3.0609,-3.08,-3.1461,-3.1298,-3.1249,-3.1741,-3.185,-3.2477,-3.4063,-3.4621,-3.535,-3.6636,-3.6578,-3.6468,-3.6468,0.0,-3.4235,0.0,0.0,-3.0717,-2.9685,-2.887,-2.8101,-2.7374,-2.6726,-2.5879,-2.4759,-2.441,-2.4036,-2.3696,-2.3653,-2.3595,-2.3595,-2.3595,0.0,-2.3595,0.0,-2.3595,0.0,0.0,0.0,0.0,-2.2814,-2.2356,-2.1758,-2.083,-2.0288,-2.004,0.0,-1.9403,0.0,0.0,0.0,0.0,-1.7961,0.0,0.0,0.0,0.0,0.0,0.0,0.0,0.0,-1.2696,0.0,-1.0597,0.0,0.0,0.0,0.0,0.0,0.0,0.0,-0.9814,0.0,0.0,0.0,-1.2274,0.0,0.0,0.0,0.0,0.0,0.0,0.0,-1.5468,-1.5558,-1.5659,-1.5736,-1.5856,-1.6044,-1.6293,-1.6539,-1.6795,-1.706,-1.7227,-1.7297,-1.7352,-1.7516,-1.7787,-1.8016,-1.8411,-1.8898,-1.9176,-1.945,-1.9669,-1.969,-1.969,-1.969,-1.969,-1.969,-1.969,-1.9654,-1.9632,-1.9574,-3.0568,-3.0692,-3.0899,-3.1281,-3.1,-3.09,-3.1563,-3.1967,-3.2817,-3.4667,-3.539,-3.6248,-3.7481,-3.7761,0.0,0.0,-3.6705,-3.5622,0.0,0.0,-3.1478,-3.0734,-2.9786,-2.8898,-2.801,-2.737,-2.6438,-2.5243,-2.4667,-2.4219,-2.3839,-2.3739,-2.3653,-2.3595,0.0,-2.3595,-2.3595,0.0,-2.3595,-2.3595,-2.3595,-2.3566,-2.3494,-2.3127,-2.2608,-2.2076,-2.1379,-2.0789,-2.024,-1.9729,-1.9462,0.0,-1.8816,0.0,-1.8559,0.0,0.0,0.0,-1.7833,0.0,0.0,0.0,0.0,0.0,0.0,0.0,0.0,0.0,0.0,0.0,0.0,0.0,0.0,0.0,0.0,-1.049,0.0,-1.1927,0.0,0.0,0.0,0.0,0.0,0.0,0.0,0.0,0.0,-1.5969,-1.6057,-1.6144,-1.6318,-1.6547,-1.6765,-1.7047,-1.7353,-1.7585,-1.776,-1.7868,-1.7868,-1.7988,-1.8266,-1.8372,-1.8736,-1.9176,-1.9339,-1.9508,-1.969,-1.969,-1.969,-1.969,-1.969,-1.969,-1.9654,-1.9654,-1.9632,-1.9538,-3.0359,-3.0733,-3.0952,-3.0766,-3.0708,-3.0817,-3.1155,-3.2327,-3.3453,-3.4202,-3.5843,0.0,0.0,0.0,0.0,0.0,0.0,-3.6417,-3.5639,0.0,-3.3,0.0,0.0,-2.9888,0.0,-2.7921,-2.6798,-2.6165,-2.512,-2.44,-2.3982,-2.3839,-2.3739,-2.3595,-2.3595,-2.3595,-2.3595,-2.3595,-2.3595,-2.3595,-2.3595,-2.3595,-2.3551,0.0,-2.2688,-2.1988,-2.1209,0.0,0.0,-1.9715,-1.9701,0.0,0.0,0.0,0.0,0.0,0.0,0.0,0.0,0.0,0.0,-1.7406,0.0,0.0,0.0,0.0,-1.2677,0.0,0.0,0.0,0.0,0.0,0.0,0.0,0.0,0.0,0.0,0.0,0.0,0.0,0.0,0.0,0.0,0.0,0.0,0.0,-1.6392,0.0,-1.6675,-1.6688,-1.6901,-1.7363,-1.7406,-1.772,-1.8266,-1.8383,-1.8553,-1.8745,-1.8745,-1.8784,-1.886,-1.9026,-1.9176,-1.9413,-1.9538,-1.9632,-1.969,-1.969,-1.969,-1.969,-1.969,-1.9669,-1.9611,-1.9611,-1.9538,-1.9391,-3.0274,-3.0568,-3.0733,-3.0609,0.0,-3.1148,-3.2449,-3.3403,-3.4723,0.0,-3.8022,0.0,0.0,-3.9884,-3.9884,0.0,0.0,-3.7719,-3.6468,-3.4962,0.0,0.0,0.0,-3.0504,0.0,0.0,-2.752,-2.6581,-2.5346,-2.4549,-2.4177,-2.3925,-2.3739,-2.3595,0.0,-2.3595,0.0,0.0,0.0,0.0,0.0,-2.3595,-2.3595,0.0,-2.2992,-2.2271,-2.1539,-2.0772,0.0,-1.9604,-1.9382,-1.9306,-1.9306,-1.9306,-1.9262,-1.9046,-1.8988,0.0,0.0,0.0,-1.8461,-1.8173,0.0,0.0,0.0,0.0,0.0,0.0,0.0,0.0,0.0,0.0,0.0,0.0,0.0,0.0,0.0,0.0,0.0,0.0,0.0,0.0,0.0,0.0,0.0,0.0,-1.6479,0.0,-1.6675,-1.6761,-1.7015,-1.7404,-1.757,-1.7908,-1.8422,-1.863,-1.8784,-1.8988,-1.8988,-1.9064,-1.9176,-1.9213,-1.9339,-1.9538,-1.9574,-1.9632,-1.969,-1.969,-1.969,-1.969,-1.969,-1.9669,-1.9574,-1.9501,-1.9317,-1.9055,-3.044,-3.0865,-3.1097,-3.0567,-3.0658,-3.1479,-3.3338,-3.4363,-3.5825,0.0,-3.9413,0.0,-4.0658,0.0,-4.0899,0.0,-3.9411,-3.8481,-3.7263,-3.5487,0.0,-3.273,-3.1715,0.0,0.0,0.0,0.0,0.0,0.0,-2.4815,-2.4467,-2.4094,-2.3824,-2.3653,0.0,-2.3595,-2.3595,-2.3595,-2.3595,0.0,0.0,-2.3475,0.0,0.0,-2.2835,-2.2152,0.0,-2.0709,-1.9958,-1.9583,-1.9398,-1.9325,-1.9325,-1.9325,-1.9325,-1.9325,-1.9325,-1.9325,-1.9325,-1.9213,0.0,-1.8808,-1.8355,0.0,-1.7136,0.0,0.0,0.0,0.0,0.0,0.0,0.0,0.0,0.0,0.0,0.0,0.0,-1.2529,0.0,0.0,0.0,0.0,0.0,0.0,0.0,-1.6479,-1.6522,-1.6565,0.0,0.0,-1.7212,-1.7679,-1.8002,-1.8383,-1.8846,-1.9049,-1.9236,-1.9362,-1.9362,-1.9398,-1.9435,-1.9435,-1.9523,-1.9647,-1.9647,-1.9669,-1.969,-1.969,-1.969,-1.969,-1.969,-1.9632,-1.9501,-1.9339,-1.9003,-1.8503,-3.0856,-3.1556,0.0,0.0,-3.0931,0.0,0.0,0.0,-3.669,0.0,-4.0099,-4.1104,-4.0679,-4.0975,-4.0899,-4.0138,-3.9411,-3.8684,-3.7956,-3.5757,0.0,0.0,-3.1985,-3.1151,-3.1015,0.0,0.0,0.0,0.0,0.0,-2.4815,-2.4328,-2.3994,-2.3797,-2.3653,0.0,-2.3595,-2.3595,-2.3595,-2.3595,-2.3565,-2.3206,-2.2709,-2.2649,-2.2188,-2.156,-2.0932,-2.0273,-1.969,-1.969,-1.969,-1.969,-1.969,-1.969,-1.969,-1.969,-1.969,-1.969,-1.969,-1.9632,-1.9538,-1.9295,0.0,0.0,0.0,0.0,-1.6998,0.0,0.0,0.0,0.0,0.0,0.0,0.0,0.0,0.0,0.0,0.0,0.0,0.0,0.0,0.0,0.0,-1.5591,-1.5969,-1.6436,-1.6479,-1.6607,0.0,0.0,-1.7488,-1.8163,-1.8606,-1.9049,-1.9493,-1.9726,-1.9797,-1.9797,-1.9797,-1.9762,-1.969,-1.969,-1.969,-1.969,-1.969,-1.969,-1.969,-1.969,-1.969,-1.969,-1.969,-1.9545,-1.9265,-1.9101,-1.85,-1.776,-3.056,-3.1389,-3.2331,0.0,-3.3096,-3.3746,0.0,0.0,0.0,0.0,-4.1137,-4.1544,-4.1598,-4.1331,-4.0899,-4.0138,-3.9411,0.0,0.0,0.0,0.0,-3.344,-3.1985,-3.119,-3.1151,-2.9585,-2.8661,-2.8439,0.0,0.0,-2.4879,-2.4451,0.0,0.0,0.0,0.0,-2.3595,-2.3595,-2.3595,-2.3565,-2.3101,-2.2858,-2.2604,0.0,-2.1111,-2.0946,-2.0782,-2.0273,-1.969,-1.969,-1.969,-1.969,-1.969,-1.969,-1.969,-1.969,-1.969,-1.969,-1.969,-1.9632,-1.9574,-1.9523,-1.9376,-1.9176,0.0,0.0,0.0,0.0,0.0,0.0,0.0,0.0,0.0,0.0,0.0,0.0,0.0,0.0,0.0,-1.3781,0.0,0.0,0.0,-1.5277,-1.5736,-1.6076,-1.6306,-1.6534,-1.6718,0.0,0.0,-1.8163,-1.8721,-1.9236,-1.9639,-1.9848,-1.9955,-1.9955,-1.9848,-1.9762,-1.969,-1.969,-1.969,-1.969,-1.969,-1.969,-1.969,-1.969,-1.969,-1.969,-1.969,-1.9384,-1.886,-1.8422,-1.7988,-1.7516,-3.1092,-3.2049,0.0,-3.4266,0.0,0.0,-3.6202,-3.7883,0.0,-4.0565,-4.1564,0.0,-4.1485,-4.13,-4.0764,-3.9698,-3.9225,0.0,-3.6992,0.0,0.0,-3.2966,-3.1799,-3.1055,-3.0734,-2.9529,0.0,-2.8159,0.0,0.0,-2.5192,0.0,0.0,0.0,0.0,-2.3653,-2.358,-2.331,-2.3026,-2.2742,-2.2383,-2.2084,0.0,-2.0991,-2.0528,-2.0258,-2.0258,-2.0019,-1.969,-1.969,-1.969,-1.969,-1.969,-1.969,-1.969,-1.969,-1.969,-1.969,-1.969,-1.9654,-1.9632,-1.9632,-1.9596,-1.9545,-1.9464,-1.9427,-1.9354,0.0,0.0,0.0,0.0,0.0,0.0,0.0,0.0,0.0,0.0,0.0,0.0,0.0,-1.4629,0.0,0.0,-1.528,-1.557,-1.5869,-1.6175,-1.6448,0.0,0.0,0.0,-1.845,-1.8974,-1.9493,-1.994,-2.0096,-2.0146,-2.0045,-1.9955,-1.9797,-1.969,-1.969,-1.969,-1.969,-1.969,-1.969,-1.969,-1.969,-1.969,-1.969,-1.9581,-1.925,-1.8784,-1.8226,-1.772,-1.7323,-3.232,-3.3232,0.0,0.0,0.0,0.0,0.0,-3.8811,0.0,-4.0183,0.0,-4.2078,-4.0933,-4.0879,-4.0392,-3.9106,0.0,-3.7719,-3.574,-3.4726,-3.3626,-3.2381,-3.1495,-3.0768,-3.0125,-2.9262,-2.8465,0.0,0.0,0.0,-2.5605,0.0,0.0,0.0,0.0,0.0,0.0,-2.2948,-2.2334,-2.168,-2.1605,-2.1231,-2.0707,-2.0617,-2.0213,-1.969,-1.969,-1.969,-1.969,-1.969,-1.969,-1.969,-1.969,-1.969,-1.969,-1.969,-1.969,-1.969,-1.969,-1.969,-1.969,-1.969,-1.9762,-1.9833,-1.9874,-1.9995,-2.0131,-2.0204,-2.0174,-2.0058,0.0,0.0,0.0,0.0,0.0,0.0,0.0,0.0,0.0,0.0,0.0,0.0,0.0,0.0,-1.5402,-1.5748,-1.6013,-1.6417,0.0,0.0,0.0,-1.8745,-1.9258,-1.9782,-2.027,0.0,-2.0304,-2.01,-2.0025,-1.9884,-1.969,-1.969,-1.969,-1.969,-1.969,-1.969,-1.969,-1.969,-1.969,-1.969,-1.9435,-1.9176,-1.886,-1.8305,-1.772,-1.724,-3.4172,0.0,0.0,0.0,0.0,-3.7726,-3.8443,-3.9385,-4.0205,-4.0621,-4.1017,-4.1191,-4.0992,-4.002,-3.9276,-3.9005,-3.728,0.0,0.0,0.0,0.0,-3.229,-3.1004,-3.0243,-3.0108,-2.8738,-2.7889,0.0,0.0,0.0,-2.5663,0.0,0.0,0.0,0.0,0.0,-2.2926,-2.2806,0.0,-2.165,-2.1111,-2.0812,-2.0662,-2.0094,-1.9794,-1.969,-1.969,-1.969,-1.969,-1.969,-1.969,-1.969,-1.969,-1.969,-1.969,-1.969,-1.969,-1.969,-1.969,-1.969,-1.969,-1.969,-1.9848,-1.999,-2.015,-2.0426,-2.0728,-2.0974,-2.1087,-2.1103,-2.1039,0.0,0.0,0.0,0.0,0.0,0.0,0.0,0.0,0.0,0.0,-1.6303,0.0,0.0,-1.5244,-1.5513,-1.5969,0.0,0.0,0.0,0.0,0.0,-1.9295,0.0,0.0,0.0,-2.0304,-2.01,-2.0025,-1.9884,-1.969,-1.969,-1.969,-1.969,-1.969,-1.969,-1.969,-1.969,-1.969,-1.969,-1.9611,-1.9339,-1.9026,-1.863,-1.8108,-1.7557,-3.5357,0.0,0.0,0.0,0.0,0.0,0.0,-3.9483,-3.9877,-4.0213,-4.0671,-4.0725,-3.9968,-3.9328,-3.8684,-3.7922,-3.6468,-3.5301,-3.4523,-3.3085,-3.1935,-3.119,-3.048,-2.9736,-2.8904,-2.8197,-2.7603,-2.7164,0.0,0.0,-2.5974,0.0,0.0,-2.4775,0.0,-2.3299,0.0,0.0,0.0,-2.0842,-2.0429,-2.0257,-2.03,-1.9897,-1.9797,-1.9848,-1.9762,-1.9762,-1.9762,-1.9726,-1.969,-1.969,-1.969,-1.969,-1.969,-1.969,-1.969,-1.969,-1.969,-1.969,-1.969,-1.969,-1.9848,-2.0041,-2.0235,-2.0561,-2.0893,-2.1183,-2.1402,-2.1509,-2.1417,-2.0878,0.0,0.0,0.0,0.0,0.0,0.0,0.0,0.0,0.0,0.0,0.0,0.0,0.0,0.0,0.0,0.0,0.0,0.0,0.0,0.0,0.0,0.0,0.0,0.0,0.0,-2.0061,-1.9955,-1.9848,-1.969,-1.969,-1.969,-1.969,-1.969,-1.969,-1.969,-1.969,-1.969,-1.969,-1.9647,-1.9465,-1.9228,-1.8927,-1.8528,-1.7988,0.0,-3.6553,0.0,0.0,-3.8017,0.0,-3.9115,-3.9362,-3.959,-3.9781,-4.0354,-4.0271,-3.8942,-3.8705,-3.8063,-3.6624,-3.5599,-3.4459,-3.3187,-3.2283,-3.1269,-3.0104,-2.9766,-2.9022,-2.7823,-2.7672,-2.7283,0.0,0.0,0.0,0.0,0.0,0.0,0.0,0.0,0.0,0.0,0.0,-2.0819,-2.0135,-1.9995,-1.9975,-2.0041,-1.9955,-1.9955,-2.0041,-1.994,-1.9904,-1.9904,-1.9833,-1.9762,-1.969,-1.969,-1.969,-1.969,-1.969,-1.969,-1.969,-1.969,-1.969,-1.969,-1.969,-1.9848,-2.0025,-2.0235,-2.0527,-2.0844,-2.1214,-2.1526,-2.1678,-2.1584,-2.1245,0.0,0.0,0.0,0.0,0.0,0.0,0.0,0.0,0.0,0.0,-1.8345,0.0,0.0,0.0,0.0,0.0,0.0,0.0,0.0,0.0,0.0,-2.007,-2.0259,0.0,-2.0198,-1.9955,-1.9848,-1.9762,-1.969,-1.969,-1.969,-1.969,-1.969,-1.969,-1.969,-1.969,-1.969,-1.969,-1.9632,-1.9538,-1.9413,-1.9168,-1.8851,-1.8461,0.0,0.0,0.0,0.0,0.0,0.0,-3.9218,-3.9379,-3.9642,-4.0037,-4.0054,-3.9699,-3.8874,-3.7986,-3.6885,-3.5572,-3.4013,-3.2861,-3.2186,-3.0811,-2.9995,-2.9905,-2.8662,-2.787,-2.7789,-2.7148,-2.6759,0.0,0.0,-2.6521,0.0,0.0,0.0,0.0,0.0,0.0,0.0,-2.2051,-2.1221,-2.0376,-2.0342,-2.0323,-2.027,-2.027,-2.027,-2.027,-2.027,-2.0235,-2.0235,-2.0235,-2.001,-1.969,-1.969,-1.969,-1.969,-1.969,-1.969,-1.969,-1.969,-1.969,-1.969,-1.969,-1.9762,-1.9904,-2.0235,-2.0494,-2.0763,-2.1214,-2.1556,-2.1797,-2.1751,-2.1479,-2.1103,0.0,0.0,0.0,0.0,0.0,-1.9272,-1.9785,0.0,0.0,0.0,-1.9555,0.0,0.0,-1.8227,0.0,0.0,0.0,0.0,-1.9997,0.0,-2.1255,-2.0737,-2.0864,-2.0561,-1.9797,-1.9797,-1.9762,-1.969,-1.969,-1.969,-1.969,-1.969,-1.969,-1.969,-1.969,-1.969,-1.969,-1.969,-1.9632,-1.9574,-1.9339,-1.9064,-1.8707,0.0,0.0,0.0,0.0,0.0,0.0,0.0,-3.9379,-3.9265,-3.9023,-3.8973,-3.8522,-3.7269,-3.6273,-3.5313,-3.4239,-3.285,-3.1812,-3.1158,-3.0199,-2.9365,-2.8609,-2.8003,-2.7516,-2.7165,-2.6843,-2.6471,0.0,0.0,0.0,0.0,0.0,0.0,0.0,0.0,-2.3791,-2.3296,-2.2018,-2.1278,-2.0909,-2.0712,-2.0679,-2.0697,-2.0628,-2.0646,-2.0697,-2.0628,-2.0595,-2.0595,-2.046,-2.0254,-2.0045,-2.0045,-2.001,-1.9925,-1.9925,-1.9854,-1.9762,-1.9762,-1.9726,-1.969,-1.969,-1.9762,-1.9848,-2.0061,-2.0323,-2.0579,-2.0925,-2.1386,-2.1768,-2.1899,-2.1721,-2.1433,0.0,0.0,0.0,0.0,0.0,0.0,-2.0119,0.0,-2.0146,0.0,-2.0192,-2.028,-2.0685,0.0,0.0,0.0,0.0,0.0,-2.0746,0.0,-2.1326,-2.0745,-2.0783,-2.0437,-1.9726,-1.9726,-1.9726,-1.969,-1.969,-1.969,-1.969,-1.969,-1.969,-1.969,-1.969,-1.969,-1.969,-1.969,-1.969,-1.9632,-1.9523,-1.9339,-1.9064,-3.8391,0.0,-3.8639,0.0,-3.886,-3.9011,-3.9043,-3.8957,-3.8487,-3.7494,-3.718,-3.6585,-3.5597,-3.4775,-3.3844,-3.2639,-3.1662,-3.0773,-3.0062,-2.9419,-2.8616,-2.7643,-2.7463,0.0,-2.6708,-2.6691,-2.6336,-2.5609,-2.5609,0.0,0.0,0.0,0.0,0.0,-2.4066,-2.3701,-2.3489,-2.2095,-2.1479,-2.1433,-2.1183,-2.1103,-2.1134,-2.1023,-2.1055,-2.1134,-2.1023,-2.1007,-2.0974,-2.0844,-2.0745,-2.0613,-2.0426,-2.0289,-2.0204,-2.0204,-2.008,-1.9975,-1.994,-1.9904,-1.9869,-1.9869,-1.9904,-1.999,-2.0111,-2.0289,-2.0512,-2.0893,-2.134,-2.1738,-2.194,-2.184,-2.1678,-2.154,0.0,0.0,0.0,-2.0649,0.0,0.0,-2.078,-2.0878,-2.0797,-2.0797,-2.1043,0.0,0.0,0.0,0.0,0.0,0.0,0.0,0.0,0.0,0.0,-2.1006,-2.0557,-1.969,-1.969,-1.969,-1.969,-1.969,-1.969,-1.969,-1.969,-1.969,-1.969,-1.969,-1.969,-1.969,-1.969,-1.969,-1.969,-1.9611,-1.9538,-1.9391,-3.8391,-3.852,-3.8616,-3.8616,-3.8821,-3.8793,-3.8117,-3.7916,-3.7232,-3.5638,-3.4417,-3.3813,-3.4184,-3.3729,-3.2628,-3.0686,-3.0354,-2.9812,-2.8887,-2.8192,-2.7699,0.0,0.0,-2.6572,-2.6691,-2.6691,-2.6336,-2.5609,0.0,0.0,-2.4492,0.0,-2.4492,-2.4486,-2.3714,-2.3376,-2.3262,-2.2358,-2.1928,-2.1797,-2.1708,-2.1601,-2.1477,-2.1477,-2.1477,-2.1477,-2.1477,-2.1477,-2.1477,-2.1493,-2.1493,-2.137,-2.0712,-2.0494,-2.0494,-2.041,-2.041,-2.0376,-2.0304,-2.0304,-2.0304,-2.0304,-2.0304,-2.0304,-2.0388,-2.0441,-2.0662,-2.1183,-2.145,-2.1664,-2.1869,-2.184,-2.1797,-2.1797,0.0,0.0,0.0,0.0,0.0,-2.1477,-2.1601,-2.1648,-2.1493,-2.1493,0.0,0.0,0.0,0.0,0.0,0.0,0.0,-2.2709,-2.3393,0.0,-2.1695,-2.168,-2.1006,-1.969,-1.969,-1.969,-1.969,-1.969,-1.969,-1.969,-1.969,-1.969,-1.969,-1.969,-1.969,-1.969,-1.969,-1.969,-1.969,-1.9611,-1.9611,-1.9538,-3.8391,-3.86,-3.8766,-3.8766,-3.8428,-3.8089,-3.7929,-3.7241,-3.636,-3.5158,-3.39,-3.2725,-3.173,-3.1146,-3.0514,0.0,-2.9373,-2.8715,0.0,-2.7586,-2.7234,-2.6495,-2.5893,-2.5715,-2.5898,-2.5407,-2.4831,-2.4103,0.0,0.0,0.0,-2.3629,-2.3938,-2.4019,-2.3824,-2.3732,-2.3635,-2.2788,-2.2315,-2.2192,-2.1986,-2.1882,-2.1853,-2.1794,-2.1794,-2.1836,-2.1794,-2.1764,-2.1764,-2.1721,-2.1691,-2.1661,-2.1432,-2.123,-2.1055,-2.1023,-2.0844,-2.0662,-2.0662,-2.0527,-2.0441,-2.0441,-2.0441,-2.0426,-2.046,-2.0628,-2.0893,-2.1339,-2.1556,-2.1754,-2.2065,-2.2003,-2.1957,-2.2065,-2.1961,0.0,0.0,0.0,-2.1764,-2.1764,-2.1853,-2.1882,-2.1853,-2.1836,0.0,0.0,0.0,0.0,0.0,0.0,0.0,0.0,-2.3691,0.0,-2.171,-2.1695,-2.1021,-1.969,-1.969,-1.969,-1.969,-1.969,-1.969,-1.969,-1.969,-1.969,-1.969,-1.969,-1.969,-1.969,-1.969,-1.969,-1.969,-1.9705,-1.9654,-1.9632,-3.7931,-3.8137,-3.8302,-3.8248,-3.7785,-3.7281,-3.6881,-3.6194,-3.5299,-3.4005,-3.2704,-3.1371,-3.0032,-2.9296,0.0,-2.8947,-2.8477,-2.7798,-2.6957,-2.6968,-2.6663,-2.5914,-2.544,-2.528,-2.5495,-2.4833,0.0,-2.3393,-2.3122,-2.2807,-2.2504,-2.3004,-2.3374,-2.3598,-2.3641,-2.3667,-2.3684,-2.3007,-2.2632,-2.2487,-2.226,-2.2147,-2.2118,-2.2061,-2.2089,-2.2118,-2.2061,-2.2061,-2.2089,-2.2032,-2.2032,-2.2061,-2.2032,-2.1857,-2.1664,-2.1495,-2.1309,-2.1151,-2.1071,-2.0958,-2.0877,-2.0877,-2.0877,-2.0877,-2.0877,-2.1023,-2.1293,-2.157,-2.1691,-2.1873,-2.214,-2.2135,-2.2163,-2.2254,-2.2192,-2.2147,-2.2147,0.0,0.0,0.0,0.0,0.0,0.0,-2.2118,-2.2392,0.0,0.0,0.0,0.0,0.0,0.0,-2.3909,-2.3882,0.0,-2.171,-2.1695,-2.1021,-1.969,-1.969,-1.969,-1.969,-1.969,-1.969,-1.969,-1.969,-1.969,-1.969,-1.969,-1.969,-1.969,-1.969,-1.969,-1.969,-1.969,-1.969,-1.969,-3.7077,-3.7297,-3.7405,0.0,-3.6926,0.0,-3.5283,-3.4828,-3.4037,-3.244,-3.099,-2.9831,-2.9082,-2.8299,-2.789,-2.8137,0.0,0.0,0.0,-2.6304,-2.5966,-2.5615,-2.5287,-2.5196,-2.5327,-2.4698,-2.4002,-2.3325,-2.2649,-2.2405,-2.2605,-2.2659,-2.2919,-2.3313,-2.3265,-2.3313,-2.3407,-2.3095,-2.2868,-2.2712,-2.2515,-2.2377,-2.2338,-2.2338,-2.2338,-2.231,-2.231,-2.2366,-2.2405,-2.2405,-2.246,-2.2515,-2.2432,-2.2394,-2.2237,-2.1873,-2.1724,-2.1708,-2.1584,-2.1538,-2.1554,-2.1538,-2.1554,-2.1538,-2.1538,-2.1631,-2.1768,-2.1827,-2.1899,-2.2003,-2.2197,-2.2282,-2.2366,-2.2422,-2.2487,-2.2515,-2.2515,0.0,0.0,0.0,0.0,0.0,0.0,-2.2395,-2.262,0.0,0.0,0.0,0.0,0.0,-2.4617,-2.412,-2.4009,-2.3262,-2.171,-2.1695,-2.1021,-1.969,-1.969,-1.969,-1.969,-1.969,-1.969,-1.969,-1.969,-1.969,-1.969,-1.969,-1.969,-1.969,-1.969,-1.969,-1.969,-1.969,-1.969,-1.969,0.0,0.0,-3.7044,-3.6836,-3.616,-3.5467,-3.475,-3.3562,-3.2458,-3.1694,-3.0247,-2.9143,-2.8904,-2.8299,-2.7955,-2.8054,-2.7527,-2.698,-2.6425,-2.6177,-2.56,-2.468,-2.4341,-2.4032,-2.3687,-2.3102,-2.275,-2.2564,-2.2395,-2.2405,-2.2605,-2.2712,-2.2995,-2.3383,-2.3476,-2.3549,-2.3611,-2.3435,-2.3223,-2.2995,-2.2842,-2.2712,-2.2623,-2.2623,-2.2579,-2.2542,-2.2542,-2.2542,-2.2552,-2.2552,-2.2596,-2.2659,-2.2632,-2.2605,-2.2569,-2.2237,-2.2032,-2.194,-2.2039,-2.1953,-2.1895,-2.1953,-2.1924,-2.1866,-2.1866,-2.1982,-2.2141,-2.2287,-2.2388,-2.2453,-2.2552,-2.2579,-2.2649,-2.2685,-2.2712,-2.2738,-2.2738,-2.2659,0.0,0.0,-2.3295,-2.3226,-2.3226,-2.3168,-2.297,0.0,0.0,0.0,0.0,-2.3738,-2.4163,-2.4245,-2.4009,-2.3179,-2.171,-2.1695,-2.1021,-1.969,-1.969,-1.969,-1.969,-1.969,-1.969,-1.969,-1.969,-1.969,-1.969,-1.969,-1.969,-1.969,-1.969,-1.969,-1.969,-1.969,-1.969,-1.969,-3.6405,-3.6489,-3.6489,-3.6202,-3.5511,-3.4655,-3.365,-3.2656,-3.1602,-3.0551,-2.952,-2.8752,-2.8363,-2.8067,-2.7784,-2.7482,-2.7069,-2.6704,-2.6409,-2.5837,-2.5187,-2.4386,-2.4045,-2.3668,-2.3214,-2.2625,-2.231,-2.231,-2.231,-2.2405,-2.2605,-2.2738,-2.3028,-2.3453,-2.3544,-2.3638,-2.3747,-2.3594,-2.3412,-2.3193,-2.3045,-2.2919,-2.279,-2.279,-2.2764,-2.2738,-2.2738,-2.2764,-2.279,-2.2816,-2.285,-2.2902,-2.2876,-2.2876,-2.285,-2.2712,-2.2535,-2.2364,-2.2446,-2.2446,-2.2409,-2.2364,-2.2326,-2.2271,-2.2271,-2.2337,-2.2463,-2.2605,-2.2685,-2.2764,-2.279,-2.2842,-2.2876,-2.2944,-2.2995,-2.3045,-2.3045,-2.2927,0.0,-2.3794,-2.377,-2.3676,-2.3653,-2.3596,-2.3232,-2.2417,-2.2794,0.0,-2.2653,-2.3119,-2.3544,-2.3825,-2.3512,-2.2821,-2.171,-2.1081,-2.0445,-1.9762,-1.9762,-1.9797,-1.9889,-1.9833,-1.9833,-1.9869,-1.9797,-1.9762,-1.9726,-1.9726,-1.969,-1.969,-1.969,-1.969,-1.969,-1.969,-1.969,-1.9735,-3.5858,-3.5971,-3.5939,-3.5564,-3.4857,-3.386,-3.2501,-3.184,-3.0949,-2.9332,-2.8849,-2.8408,-2.7851,-2.77,-2.7414,-2.6856,-2.6443,-2.6211,-2.63,-2.5472,-2.4741,-2.4245,-2.403,-2.365,-2.3139,-2.2574,-2.231,-2.231,-2.231,-2.2405,-2.2605,-2.2738,-2.3028,-2.3481,-2.3544,-2.366,-2.3774,-2.3664,-2.3526,-2.3342,-2.3247,-2.3126,-2.3028,-2.3028,-2.3003,-2.2977,-2.2977,-2.3003,-2.307,-2.3126,-2.3199,-2.3247,-2.3199,-2.3175,-2.3175,-2.3175,-2.306,-2.2927,-2.2902,-2.2927,-2.2944,-2.279,-2.2712,-2.2659,-2.2659,-2.2738,-2.2816,-2.2876,-2.2952,-2.3028,-2.3028,-2.3102,-2.3175,-2.3199,-2.3295,-2.3365,-2.3365,0.0,-2.359,-2.4295,-2.4225,-2.4108,-2.405,-2.3919,-2.3429,-2.2511,-2.2752,-2.2848,-2.26,-2.2643,-2.2797,-2.3095,-2.2808,-2.231,-2.156,-2.0303,-1.9726,-1.9797,-1.9797,-1.994,-2.015,-2.0096,-2.0096,-2.0135,-1.9975,-1.9869,-1.9833,-1.9797,-1.9762,-1.9726,-1.9726,-1.9726,-1.969,-1.9794,-1.9839,-1.9944,-3.5655,-3.5638,-3.5564,-3.5255,-3.4277,-3.3258,-3.2371,-3.0822,-2.9561,-2.8955,-2.8222,-2.7745,-2.764,-2.7244,-2.6916,-2.6811,-2.5803,-2.5284,-2.5372,-2.5025,-2.4365,-2.3339,-2.37,-2.337,-2.2228,-2.2259,-2.231,-2.231,-2.231,-2.2405,-2.2605,-2.2685,-2.2944,-2.3336,-2.3458,-2.3598,-2.3714,-2.3753,-2.371,-2.3646,-2.3624,-2.3562,-2.3477,-2.3477,-2.3468,-2.3412,-2.3412,-2.3365,-2.3336,-2.3412,-2.3481,-2.3549,-2.3535,-2.3518,-2.3518,-2.3518,-2.354,-2.3558,-2.3417,-2.3342,-2.3265,-2.302,-2.2995,-2.302,-2.2944,-2.3119,-2.3313,-2.3389,-2.3445,-2.3477,-2.3477,-2.3518,-2.354,-2.3584,-2.3606,-2.3646,-2.3646,0.0,-2.4712,-2.544,-2.5315,-2.5154,-2.5137,-2.4371,-2.3532,-2.2728,-2.24,-2.2195,-2.2036,-2.2086,-2.2096,-2.2047,-2.198,-2.1579,-2.0872,-2.0079,-1.9726,-1.9797,-1.9919,-2.0061,-2.027,-2.0323,-2.0342,-2.0342,-2.0308,-2.0204,-2.003,-2.003,-1.994,-1.9762,-1.9762,-1.9762,-1.975,-2.0348,-2.0557,-2.0647,-3.5537,-3.5622,-3.5369,-3.4664,-3.3958,-3.2963,-3.1437,-3.0364,-2.9456,-2.8706,-2.8171,-2.7925,-2.7925,-2.73,-2.6756,-2.6393,-2.5546,-2.492,-2.467,-2.4337,-2.3847,-2.3183,-2.3159,-2.278,-2.1957,-2.2135,-2.2242,-2.2242,-2.2282,-2.2366,-2.2487,-2.2569,-2.2764,-2.3095,-2.3223,-2.3412,-2.3616,-2.3685,-2.3747,-2.375,-2.3753,-2.3753,-2.3714,-2.3714,-2.3689,-2.3664,-2.3664,-2.3642,-2.362,-2.3685,-2.3728,-2.375,-2.3753,-2.3774,-2.3774,-2.3774,-2.3735,-2.3692,-2.3667,-2.3616,-2.3522,-2.3365,-2.3295,-2.3265,-2.3217,-2.3383,-2.3544,-2.3594,-2.3685,-2.3774,-2.3774,-2.3819,-2.4046,-2.4525,-2.4618,0.0,0.0,-2.5499,-2.5891,-2.6634,-2.615,-2.5732,-2.563,-2.4742,-2.3781,-2.2868,-2.2508,-2.2243,-2.2027,-2.1835,-2.1682,-2.1535,-2.145,-2.1016,-2.033,-1.9927,-1.9869,-2.01,-2.022,-2.0441,-2.0777,-2.073,-2.0985,-2.1434,-2.0886,-2.0764,-2.0922,-2.0408,-2.0294,-2.0449,-2.0376,-2.0527,-2.0797,-2.1126,-2.1246,-2.1335,-3.525,-3.5351,-3.5026,-3.3991,-3.3437,-3.2561,-3.0794,-3.0164,-2.9516,-2.8683,-2.8414,-2.8255,-2.8054,-2.7345,-2.6626,-2.5925,-2.5253,-2.464,-2.4107,-2.3639,-2.3284,-2.3096,-2.2521,-2.2113,-2.1857,-2.202,-2.214,-2.2152,-2.2254,-2.231,-2.2405,-2.246,-2.2605,-2.2842,-2.297,-2.3168,-2.3407,-2.3589,-2.37,-2.3786,-2.3834,-2.3876,-2.3876,-2.3896,-2.3896,-2.3876,-2.3876,-2.3876,-2.3876,-2.3917,-2.3955,-2.3937,-2.3958,-2.3976,-2.3976,-2.3976,-2.3896,-2.3816,-2.3837,-2.381,-2.3765,-2.366,-2.3571,-2.3481,-2.3481,-2.3594,-2.3703,-2.3786,-2.3894,-2.3978,-2.3998,-2.4262,-2.4689,-2.5392,0.0,0.0,0.0,-2.6767,-2.6915,-2.7283,-2.6636,-2.602,-2.5637,-2.4759,-2.3866,-2.303,-2.2712,-2.2453,-2.2169,-2.1807,-2.1524,-2.1325,-2.0992,-2.0579,-2.0041,-1.9919,-2.0045,-2.041,-2.0527,-2.0794,-2.123,-2.1166,-2.1633,-2.2443,-2.1617,-2.1579,-2.1995,-2.1283,-2.1111,-2.1294,-2.1167,-2.1347,-2.1724,-2.1874,-2.1919,-2.2024,-3.4556,-3.4573,-3.4293,-3.3422,-3.2417,-3.1632,-3.1286,-3.0164,-2.9261,-2.909,-2.8842,-2.8358,-2.7643,-2.6916,-2.6236,-2.5497,-2.4905,-2.4281,-2.3686,-2.3039,-2.267,-2.275,-2.1871,-2.1499,-2.1724,-2.1797,-2.1899,-2.2027,-2.2152,-2.2282,-2.2405,-2.2422,-2.2487,-2.2632,-2.2764,-2.2944,-2.3144,-2.3412,-2.3598,-2.3714,-2.3917,-2.4016,-2.4094,-2.4151,-2.4113,-2.4074,-2.4074,-2.4054,-2.3996,-2.4074,-2.4094,-2.4094,-2.417,-2.417,-2.417,-2.417,-2.417,-2.4151,-2.4016,-2.3976,-2.3955,-2.3834,-2.3774,-2.3774,-2.3774,-2.3876,-2.3996,-2.4054,-2.4134,-2.4192,-2.4266,-2.4986,-2.5633,-2.5743,0.0,0.0,-2.6972,-2.749,-2.7613,-2.6843,-2.6527,-2.6027,-2.5131,-2.4199,-2.3529,-2.3193,-2.2944,-2.2659,-2.2405,-2.2101,-2.1764,-2.1309,-2.0726,-2.032,-2.01,-2.0065,-2.0204,-2.041,-2.0662,-2.0958,-2.1294,-2.1481,-2.1997,-2.2764,-2.2683,-2.2867,-2.3162,-2.3026,-2.2702,-2.2171,-2.2041,-2.1894,-2.1769,-2.2383,-2.2649,-2.2697,-3.3728,-3.3829,-3.3533,-3.2648,-3.2144,-3.1598,-3.0922,-3.0293,-2.9897,-2.9766,-2.9528,-2.9106,-2.8315,-2.7517,-2.6751,-2.5999,-2.5345,-2.465,-2.3901,-2.3185,-2.2357,-2.1389,-2.1112,-2.1055,-2.1198,-2.1448,-2.1631,-2.1811,-2.2003,-2.2135,-2.2282,-2.231,-2.2394,-2.2487,-2.2579,-2.2738,-2.2944,-2.3151,-2.3371,-2.3598,-2.3753,-2.3896,-2.4054,-2.4113,-2.4151,-2.417,-2.417,-2.4151,-2.4132,-2.4151,-2.417,-2.417,-2.419,-2.419,-2.419,-2.419,-2.419,-2.419,-2.4151,-2.4094,-2.4054,-2.3996,-2.3937,-2.3917,-2.3917,-2.3996,-2.4074,-2.4094,-2.4228,-2.4487,-2.506,-2.5607,-2.6301,-2.7363,0.0,-2.8242,-2.8664,-2.8858,-2.8776,-2.8359,-2.773,-2.7112,-2.6604,-2.5244,-2.4277,-2.3964,-2.3231,-2.2712,-2.2487,-2.2158,-2.1853,-2.1556,-2.1198,-2.0844,-2.0475,-2.0392,-2.0512,-2.0827,-2.1071,-2.1355,-2.1691,-2.1781,-2.2565,-2.3744,-2.3183,-2.3472,-2.429,-2.3541,-2.3231,-2.3118,-2.2847,-2.2844,-2.3032,-2.3203,-2.3251,-2.3281,-3.2949,-3.3051,-3.2773,-3.1972,-3.1732,-3.1457,-3.0758,-3.0551,-3.041,-3.0359,-3.0172,-2.9668,-2.8665,-2.7996,-2.7252,-2.6276,-2.5728,-2.5115,-2.4296,-2.3235,-2.1976,-2.0574,-2.0628,-2.0761,-2.086,-2.1103,-2.1355,-2.1617,-2.184,-2.2032,-2.2214,-2.2254,-2.2338,-2.2366,-2.2432,-2.2569,-2.2712,-2.2919,-2.3151,-2.3389,-2.3576,-2.3732,-2.3917,-2.3996,-2.4074,-2.4133,-2.4113,-2.4094,-2.4094,-2.4074,-2.4074,-2.4074,-2.4074,-2.4094,-2.4113,-2.4151,-2.417,-2.417,-2.419,-2.417,-2.4113,-2.4113,-2.4094,-2.4074,-2.4074,-2.4094,-2.4133,-2.4133,-2.4487,-2.4985,-2.565,-2.6376,-2.7267,-2.8464,-2.8928,-2.9308,-2.9794,-2.9699,-2.9419,-2.9001,-2.8334,-2.7717,-2.7219,-2.6018,-2.5153,-2.481,-2.406,-2.3396,-2.2873,-2.2367,-2.1986,-2.1797,-2.1631,-2.1469,-2.1358,-2.0938,-2.086,-2.1135,-2.1371,-2.1631,-2.1882,-2.2015,-2.2807,-2.4062,-2.3636,-2.4096,-2.5026,-2.4403,-2.4136,-2.4053,-2.3674,-2.364,-2.3782,-2.3653,-2.3595,-2.3595,-3.2273,-3.2273,-3.2036,-3.1326,-3.1112,-3.1015,-3.1015,-3.0814,-3.0692,-3.0692,-3.0551,-2.9906,-2.8372,-2.8207,-2.7613,-2.6142,-2.601,-2.5661,-2.487,-2.3036,-2.1539,-2.0559,-2.0494,-2.0561,-2.0693,-2.0811,-2.1055,-2.1386,-2.1661,-2.1932,-2.2214,-2.2254,-2.231,-2.231,-2.2366,-2.2432,-2.2515,-2.2712,-2.2902,-2.3102,-2.3389,-2.3576,-2.3714,-2.3855,-2.3937,-2.3996,-2.3917,-2.3896,-2.3896,-2.3816,-2.3795,-2.3795,-2.3795,-2.3837,-2.3917,-2.4074,-2.4094,-2.4113,-2.417,-2.419,-2.419,-2.419,-2.419,-2.419,-2.419,-2.419,-2.4209,-2.4192,-2.4949,-2.5652,-2.5864,-2.7396,-2.8654,-2.8793,-2.9527,-3.0079,-3.0003,-2.9822,-2.9325,-2.8334,-2.8101,-2.7601,-2.6538,-2.6291,-2.6039,-2.5648,-2.5482,-2.4878,-2.3688,-2.2716,-2.2168,-2.1998,-2.1886,-2.2145,-2.2811,-2.1745,-2.1231,-2.1231,-2.1542,-2.1768,-2.1899,-2.2094,-2.263,-2.3427,-2.4171,-2.4757,-2.5246,-2.5785,-2.5589,-2.4863,-2.4605,-2.4234,-2.3797,-2.3653,-2.3595,-2.3595,-3.1512,-3.1512,-3.1444,-3.1241,-3.1151,-3.1151,-3.1151,-3.1112,-3.1072,-3.1072,-3.0482,-2.9716,-2.8724,-2.8065,-2.7344,-2.6412,-2.6329,-2.5977,-2.5076,-2.3473,-2.2346,-2.1841,-2.098,-2.0527,-2.0561,-2.0728,-2.0958,-2.1183,-2.1511,-2.1784,-2.2003,-2.2152,-2.2254,-2.231,-2.231,-2.2366,-2.2432,-2.2525,-2.2712,-2.2919,-2.3126,-2.3365,-2.3576,-2.3703,-2.3771,-2.3795,-2.3774,-2.3714,-2.3692,-2.3671,-2.3671,-2.3671,-2.3671,-2.3714,-2.3774,-2.3858,-2.3955,-2.4036,-2.4113,-2.417,-2.419,-2.419,-2.419,-2.419,-2.419,-2.419,-2.4209,-2.4192,-2.5023,-2.5965,-2.6681,-2.7903,-2.9013,-2.9674,-3.0041,-3.0213,-3.0142,-2.9924,-2.9606,-2.9175,-2.8957,-2.8629,-2.8075,-2.7387,-2.6806,-2.6464,-2.5617,-2.4964,-2.4597,-2.4235,-2.3969,-2.3829,-2.3739,-2.3751,-2.3844,-2.283,-2.2588,-2.3144,-2.2886,-2.2805,-2.2862,-2.2461,-2.2688,-2.3427,-2.4171,-2.4852,-2.5447,-2.5942,-2.5864,-2.5362,-2.4895,-2.441,-2.3994,-2.3824,-2.3696,-2.3595,-3.119,-3.119,-3.119,-3.119,-3.119,-3.119,-3.119,-3.119,-3.1089,-3.0801,-3.0323,-2.9555,-2.8511,-2.7916,-2.7345,-2.6622,-2.6537,-2.615,-2.5313,-2.4298,-2.3571,-2.3129,-2.2295,-2.1482,-2.0644,-2.0745,-2.0909,-2.1023,-2.134,-2.1648,-2.1869,-2.2094,-2.2242,-2.231,-2.231,-2.2338,-2.2349,-2.2432,-2.2542,-2.2712,-2.2893,-2.3102,-2.3319,-2.3435,-2.3526,-2.3535,-2.3491,-2.3445,-2.3382,-2.3335,-2.3335,-2.3359,-2.3382,-2.3491,-2.3598,-2.3707,-2.3813,-2.3955,-2.3996,-2.4094,-2.417,-2.417,-2.417,-2.419,-2.419,-2.419,-2.4301,-2.4634,-2.5523,-2.6542,-2.7575,-2.8616,-2.9518,-3.0144,-3.0247,-3.0253,-3.0218,-2.9975,-2.9737,-2.9512,-2.931,-2.9089,-2.8791,-2.8215,-2.7702,-2.7352,-2.6269,-2.5605,-2.5577,-2.5172,-2.4883,-2.4807,-2.4718,-2.4751,-2.4949,-2.4288,-2.4011,-2.4065,-2.3806,-2.353,-2.3274,-2.2924,-2.2987,-2.3427,-2.4171,-2.4884,-2.5546,-2.6047,-2.601,-2.5589,-2.5036,-2.4558,-2.4162,-2.3867,-2.3739,-2.3595,-3.119,-3.119,-3.119,-3.119,-3.119,-3.119,-3.119,-3.114,-3.0852,-3.0192,-2.9989,-2.9381,-2.7977,-2.7757,-2.7452,-2.6792,-2.6657,-2.632,-2.5663,-2.5363,-2.4963,-2.4328,-2.4082,-2.3047,-2.1099,-2.1069,-2.099,-2.0942,-2.1245,-2.154,-2.1827,-2.2065,-2.2225,-2.231,-2.231,-2.231,-2.231,-2.2366,-2.2432,-2.2515,-2.2685,-2.285,-2.2995,-2.3119,-2.3193,-2.3241,-2.3119,-2.307,-2.3045,-2.2944,-2.2944,-2.3003,-2.307,-2.3241,-2.3407,-2.3526,-2.3703,-2.3816,-2.3876,-2.3996,-2.4094,-2.4094,-2.4151,-2.419,-2.419,-2.4263,-2.454,-2.5355,-2.6302,-2.7345,-2.838,-2.9358,-3.0049,-3.024,-3.0221,-3.0194,-3.0171,-2.9975,-2.9718,-2.9512,-2.9328,-2.9112,-2.8929,-2.8767,-2.8543,-2.8164,-2.7285,-2.6739,-2.6654,-2.583,-2.5362,-2.5333,-2.519,-2.5416,-2.5997,-2.587,-2.534,-2.4427,-2.4471,-2.4163,-2.3523,-2.3498,-2.3494,-2.3528,-2.4272,-2.4934,-2.5546,-2.6099,-2.6101,-2.5701,-2.5176,-2.4679,-2.4261,-2.3967,-2.3739,-2.361,-3.119,-3.119,-3.119,-3.119,-3.119,-3.119,-3.119,-3.0717,-3.0294,-3.0125,-2.9149,-2.8319,-2.798,-2.7504,-2.7079,-2.6893,-2.6759,-2.6607,-2.6438,-2.5848,-2.5427,-2.5227,-2.4624,-2.3947,-2.3244,-2.2476,-2.1762,-2.1135,-2.1293,-2.154,-2.1781,-2.1957,-2.2135,-2.231,-2.231,-2.231,-2.231,-2.231,-2.2366,-2.2432,-2.2542,-2.2632,-2.2764,-2.2868,-2.2893,-2.2902,-2.2893,-2.2842,-2.279,-2.2816,-2.2868,-2.2927,-2.2995,-2.3168,-2.3336,-2.343,-2.3611,-2.3789,-2.3834,-2.3976,-2.4094,-2.4094,-2.4151,-2.419,-2.419,-2.4685,-2.5202,-2.5447,-2.6765,-2.7959,-2.8368,-2.9238,-2.9972,-3.0132,-3.0142,-3.0109,-3.0053,-2.9874,-2.9645,-2.9453,-2.9307,-2.9112,-2.8929,-2.8737,-2.8562,-2.8414,-2.8085,-2.7842,-2.7842,-2.748,-2.7261,-2.7238,-2.7033,-2.6909,-2.6908,-2.6719,-2.647,-2.6151,-2.561,-2.5255,-2.5086,-2.4509,-2.4269,-2.4289,-2.5033,-2.5456,-2.5644,-2.6253,-2.6312,-2.5901,-2.5605,-2.5029,-2.44,-2.4135,-2.3852,-2.3684,-3.119,-3.119,-3.119,-3.119,-3.119,-3.119,-3.119,-3.0869,-3.0378,-2.9668,-2.8946,-2.8287,-2.7606,-2.7229,-2.7023,-2.699,-2.6859,-2.6792,-2.6792,-2.6386,-2.61,-2.6067,-2.5696,-2.526,-2.4679,-2.4116,-2.3145,-2.1779,-2.1581,-2.1587,-2.1797,-2.1882,-2.2061,-2.2254,-2.2209,-2.2209,-2.2254,-2.2254,-2.2282,-2.2366,-2.2432,-2.2487,-2.2552,-2.2632,-2.2659,-2.2659,-2.2605,-2.2596,-2.2569,-2.2632,-2.2738,-2.2868,-2.297,-2.3168,-2.336,-2.3448,-2.3611,-2.3804,-2.3789,-2.3915,-2.4036,-2.4036,-2.4406,-2.4759,-2.4759,-2.5109,-2.5643,-2.6477,-2.7409,-2.8234,-2.8821,-2.9381,-2.9806,-2.9991,-2.9988,-2.9972,-2.9921,-2.9751,-2.957,-2.9373,-2.9267,-2.9112,-2.8929,-2.8791,-2.8694,-2.8594,-2.8492,-2.8414,-2.8388,-2.8264,-2.8156,-2.8091,-2.7893,-2.7677,-2.7386,-2.7215,-2.7023,-2.6792,-2.6352,-2.5947,-2.5592,-2.5203,-2.5017,-2.505,-2.5439,-2.5812,-2.6167,-2.6472,-2.6417,-2.6118,-2.5754,-2.5224,-2.4614,-2.4245,-2.4064,-2.4148,-3.119,-3.119,-3.119,-3.119,-3.119,-3.119,-3.119,-3.1111,-3.0552,-2.9197,-2.9,-2.8493,-2.7226,-2.7152,-2.7198,-2.7198,-2.7055,-2.6942,-2.6926,-2.6792,-2.6742,-2.6691,-2.6691,-2.6387,-2.5697,-2.5497,-2.4464,-2.2492,-2.2064,-2.184,-2.184,-2.1899,-2.2003,-2.2197,-2.2044,-2.2044,-2.2168,-2.2168,-2.2225,-2.2282,-2.2338,-2.2377,-2.2377,-2.2432,-2.246,-2.246,-2.2405,-2.2377,-2.2405,-2.2515,-2.2659,-2.2868,-2.302,-2.3223,-2.3453,-2.3522,-2.3678,-2.3807,-2.3807,-2.3894,-2.4016,-2.4016,-2.4717,-2.5439,-2.5586,-2.5715,-2.6211,-2.7595,-2.8157,-2.8651,-2.9506,-2.9828,-2.9964,-3.0014,-3.0127,-3.0166,-2.9978,-2.9945,-2.9886,-2.972,-2.961,-2.9517,-2.9355,-2.9331,-2.9284,-2.9186,-2.9162,-2.9057,-2.888,-2.8786,-2.8662,-2.845,-2.8246,-2.7996,-2.7659,-2.7526,-2.7279,-2.6942,-2.6825,-2.642,-2.5795,-2.5795,-2.5795,-2.5795,-2.5795,-2.6133,-2.6691,-2.6623,-2.6486,-2.626,-2.5828,-2.5346,-2.4839,-2.4368,-2.4472,-2.4761,-3.119,-3.119,-3.119,-3.119,-3.119,-3.119,-3.119,-3.0709,-3.0017,-2.9185,-2.8802,-2.8261,-2.7445,-2.7465,-2.7509,-2.7509,-2.7293,-2.7103,-2.6975,-2.6926,-2.6825,-2.6691,-2.6691,-2.6624,-2.6455,-2.5832,-2.4627,-2.2922,-2.2853,-2.2515,-2.1969,-2.1969,-2.2061,-2.2197,-2.2044,-2.2027,-2.2044,-2.2044,-2.2089,-2.2197,-2.2225,-2.2254,-2.231,-2.2338,-2.2338,-2.2338,-2.231,-2.2366,-2.2432,-2.2605,-2.2816,-2.302,-2.3265,-2.3499,-2.3678,-2.3667,-2.3774,-2.3876,-2.3876,-2.3976,-2.4094,-2.4094,-2.4737,-2.5586,-2.6282,-2.6979,-2.7552,-2.7834,-2.8997,-3.0079,-3.0324,-3.0943,-3.1232,-3.059,-3.1136,-3.136,-3.0611,-3.103,-3.1388,-3.1288,-3.117,-3.1097,-3.1054,-3.1072,-3.1029,-3.1047,-3.0972,-3.0636,-2.9923,-2.9831,-2.9421,-2.8605,-2.844,-2.821,-2.7869,-2.7689,-2.7417,-2.7166,-2.7023,-2.6808,-2.6539,-2.6539,-2.6539,-2.6539,-2.6539,-2.6607,-2.6691,-2.6691,-2.6521,-2.6295,-2.6046,-2.5497,-2.4902,-2.475,-2.5017,-2.5555,-3.119,-3.119,-3.119,-3.119,-3.119,-3.119,-3.119,-3.0963,-3.0602,-2.9907,-2.9438,-2.8925,-2.832,-2.8029,-2.7864,-2.7818,-2.7582,-2.7373,-2.7215,-2.704,-2.6909,-2.6825,-2.6742,-2.6708,-2.6657,-2.632,-2.5409,-2.3832,-2.3338,-2.2986,-2.2694,-2.2199,-2.1986,-2.2061,-2.1899,-2.184,-2.1899,-2.184,-2.1915,-2.2049,-2.2061,-2.2152,-2.2254,-2.2282,-2.231,-2.231,-2.231,-2.2366,-2.2487,-2.2685,-2.2902,-2.3168,-2.3476,-2.366,-2.3771,-2.3855,-2.3917,-2.3955,-2.3955,-2.4016,-2.4203,-2.4663,-2.5415,-2.6282,-2.709,-2.7897,-2.8484,-2.8507,-2.9448,-3.0262,-3.0374,-3.1043,-3.1515,-3.1255,-3.1537,-3.1648,-3.1277,-3.1492,-3.1668,-3.1568,-3.1452,-3.1384,-3.1384,-3.1384,-3.1384,-3.1384,-3.1359,-3.1212,-3.0846,-3.0821,-3.0362,-2.946,-2.9323,-2.8925,-2.821,-2.8035,-2.7748,-2.7355,-2.7198,-2.7023,-2.6792,-2.6742,-2.6691,-2.6691,-2.6691,-2.6691,-2.6691,-2.6691,-2.6607,-2.6452,-2.6118,-2.5476,-2.4708,-2.4884,-2.5259,-2.5704]},{"header":{"parameterUnit":"m.s-1","parameterCategory":1,"la1":30.6,"la2":28.766,"lo1":-90.7593,"lo2":-88.6598,"dy":0.0162,"dx":0.0183,"nx":116,"ny":114,"refTime":"2023-09-02T00:00:00:Z","depth":0,"parameterNumber":3,"parameterNumberName":"V-component_of_WINDS"},"data":[0.0,0.0,0.0,0.0,0.0,0.0,0.0,0.0,0.0,0.0,0.0,0.0,0.0,0.0,0.0,0.0,0.0,0.0,0.0,0.0,0.0,0.0,0.0,0.0,0.0,0.0,0.0,0.0,0.0,0.0,0.0,0.0,0.0,0.0,0.0,0.0,0.0,0.0,0.0,0.0,0.0,0.0,0.0,0.0,0.0,0.0,0.0,0.0,0.0,0.0,0.0,0.0,0.0,0.0,0.0,0.0,0.0,0.0,0.0,0.0,0.0,0.0,0.0,0.0,0.0,0.0,0.0,0.0,0.0,0.0,0.0,0.0,0.0,0.0,0.0,0.0,0.0,0.0,0.0,0.0,0.0,0.0,0.0,0.0,0.0,0.0,0.0,0.0,0.0,0.0,0.0,0.0,0.0,0.0,0.0,0.0,0.0,0.0,0.0,0.0,0.0,0.0,0.0,0.0,0.0,0.0,0.0,0.0,0.0,0.0,0.0,0.0,0.0,0.0,0.0,0.0,0.0,0.0,0.0,0.0,0.0,0.0,0.0,0.0,0.0,0.0,0.0,0.0,0.0,0.0,0.0,0.0,0.0,0.0,0.0,0.0,0.0,0.0,0.0,0.0,0.0,0.0,0.0,0.0,0.0,0.0,0.0,0.0,0.0,0.0,0.0,0.0,0.0,0.0,0.0,0.0,0.0,0.0,0.0,0.0,0.0,0.0,0.0,0.0,0.0,0.0,0.0,0.0,0.0,0.0,0.0,0.0,0.0,0.0,0.0,0.0,0.0,0.0,0.0,0.0,0.0,0.0,0.0,0.0,0.0,0.0,0.0,0.0,0.0,0.0,0.0,0.0,0.0,0.0,0.0,0.0,0.0,0.0,0.0,0.0,0.0,0.0,0.0,0.0,0.0,0.0,0.0,0.0,0.0,0.0,0.0,0.0,0.0,0.0,0.0,0.0,0.0,0.0,0.0,0.0,0.0,0.0,0.0,0.0,0.0,0.0,0.0,0.0,0.0,0.0,0.0,0.0,0.0,0.0,0.0,0.0,0.0,0.0,0.0,0.0,0.0,0.0,0.0,0.0,0.0,0.0,0.0,0.0,0.0,0.0,0.0,0.0,0.0,0.0,0.0,0.0,0.0,0.0,0.0,0.0,0.0,0.0,0.0,0.0,0.0,0.0,0.0,0.0,0.0,0.0,0.0,0.0,0.0,0.0,0.0,0.0,0.0,0.0,0.0,0.0,0.0,0.0,0.0,0.0,0.0,0.0,0.0,0.0,0.0,0.0,0.0,0.0,0.0,0.0,0.0,0.0,0.0,0.0,0.0,0.0,0.0,0.0,0.0,0.0,0.0,0.0,0.0,0.0,0.0,0.0,0.0,0.0,0.0,0.0,0.0,0.0,0.0,0.0,0.0,0.0,0.0,0.0,0.0,0.0,0.0,0.0,0.0,0.0,0.0,0.0,0.0,0.0,0.0,0.0,0.0,0.0,0.0,0.0,0.0,0.0,0.0,0.0,0.0,0.0,0.0,0.0,0.0,0.0,0.0,0.0,0.0,0.0,0.0,0.0,0.0,0.0,0.0,0.0,0.0,0.0,0.0,0.0,0.0,0.0,0.0,0.0,0.0,0.0,0.0,0.0,0.0,0.0,0.0,0.0,0.0,0.0,0.0,0.0,0.0,0.0,0.0,0.0,0.0,0.0,0.0,0.0,0.0,0.0,0.0,0.0,0.0,0.0,0.0,0.0,0.0,0.0,0.0,0.0,0.0,0.0,0.0,0.0,0.0,0.0,0.0,0.0,0.0,0.0,0.0,0.0,0.0,0.0,0.0,0.0,0.0,0.0,0.0,0.0,0.0,0.0,0.0,0.0,0.0,0.0,0.0,0.0,0.0,0.0,0.0,0.0,0.0,0.0,0.0,0.0,0.0,0.0,0.0,0.0,0.0,0.0,0.0,0.0,0.0,0.0,0.0,0.0,0.0,0.0,0.0,0.0,0.0,0.0,0.0,0.0,0.0,0.0,0.0,0.0,0.0,0.0,0.0,0.0,0.0,0.0,0.0,0.0,0.0,0.0,0.0,0.0,0.0,0.0,0.0,0.0,0.0,0.0,0.0,0.0,0.0,0.0,0.0,0.0,0.0,0.0,0.0,0.0,0.0,0.0,0.0,0.0,0.0,0.0,0.0,0.0,0.0,0.0,0.0,0.0,0.0,0.0,0.0,0.0,0.0,0.0,0.0,0.0,0.0,0.0,0.0,0.0,0.0,0.0,0.0,0.0,0.0,0.0,0.0,0.0,0.0,0.0,0.0,0.0,0.0,0.0,0.0,0.0,0.0,0.0,0.0,0.0,0.0,0.0,0.0,0.0,0.0,0.0,0.0,0.0,0.0,0.0,0.0,0.0,0.0,0.0,0.0,0.0,0.0,0.0,0.0,0.0,0.0,0.0,0.0,0.0,0.0,0.0,0.0,0.0,0.0,0.0,0.0,0.0,0.0,0.0,0.0,0.0,0.0,0.0,0.0,0.0,0.0,0.0,0.0,0.0,0.0,0.0,0.0,0.0,0.0,0.0,0.0,0.0,0.0,0.0,0.0,0.0,0.0,0.0,0.0,0.0,0.0,0.0,0.0,0.0,0.0,0.0,0.0,0.0,0.0,0.0,0.0,0.0,0.0,0.0,0.0,0.0,0.0,0.0,0.0,0.0,0.0,0.0,0.0,0.0,0.0,0.0,0.0,0.0,0.0,0.0,0.0,0.0,0.0,0.0,0.0,0.0,0.0,0.0,0.0,0.0,0.0,0.0,0.0,0.0,0.0,0.0,0.0,0.0,0.0,0.0,0.0,0.0,0.0,0.0,0.0,0.0,0.0,0.0,0.0,0.0,0.0,0.0,0.0,0.0,0.0,0.0,0.0,0.0,0.0,0.0,0.0,0.0,0.0,0.0,0.0,0.0,0.0,0.0,0.0,0.0,0.0,0.0,0.0,0.0,0.0,0.0,0.0,0.0,0.0,0.0,0.0,0.0,0.0,0.0,0.0,0.0,0.0,0.0,0.0,0.0,0.0,0.0,0.0,0.0,0.0,0.0,0.0,0.0,0.0,0.0,0.0,0.0,0.0,0.0,0.0,0.0,0.0,0.0,0.0,0.0,0.0,0.0,0.0,0.0,0.0,0.0,0.0,0.0,0.0,0.0,0.0,0.0,0.0,0.0,0.0,0.0,0.0,0.0,0.0,0.0,0.0,0.0,0.0,0.0,0.0,0.0,0.0,0.0,0.0,0.0,0.0,0.0,0.0,0.0,0.0,0.0,0.0,0.0,0.0,0.0,0.0,0.0,0.0,0.0,0.0,0.0,0.0,0.0,0.0,0.0,0.0,0.0,0.0,0.0,0.0,0.0,0.0,0.0,0.0,0.0,0.0,0.0,0.0,0.0,0.0,0.0,0.0,0.0,0.0,0.0,0.0,0.0,0.0,0.0,0.0,0.0,0.0,0.0,0.0,0.0,0.0,0.0,0.0,0.0,0.0,0.0,0.0,0.0,0.0,0.0,0.0,0.0,0.0,0.0,0.0,0.0,0.0,0.0,0.0,0.0,0.0,0.0,0.0,0.0,0.0,0.0,0.0,0.0,0.0,0.0,0.0,0.0,0.0,0.0,0.0,0.0,0.0,0.0,0.0,0.0,0.0,0.0,0.0,0.0,0.0,0.0,0.0,0.0,0.0,0.0,0.0,0.0,0.0,0.0,0.0,0.0,0.0,0.0,0.0,0.0,0.0,0.0,0.0,0.0,0.0,0.0,0.0,0.0,0.0,0.0,0.0,0.0,0.0,0.0,0.0,0.0,0.0,0.0,0.0,0.0,0.0,0.0,0.0,0.0,0.0,0.0,0.0,0.0,0.0,0.0,0.0,0.0,0.0,0.0,0.0,0.0,0.0,0.0,0.0,0.0,0.0,0.0,0.0,0.0,0.0,0.0,0.0,0.0,0.0,0.0,0.0,0.0,0.0,0.0,0.0,0.0,0.0,0.0,0.0,0.0,0.0,0.0,0.0,0.0,0.0,0.0,0.0,0.0,0.0,0.0,0.0,0.0,0.0,0.0,0.0,0.0,0.0,0.0,0.0,0.0,0.0,0.0,0.0,0.0,0.0,0.0,0.0,0.0,0.0,0.0,0.0,0.0,0.0,0.0,0.0,0.0,0.0,0.0,0.0,0.0,0.0,0.0,0.0,0.0,0.0,0.0,0.0,0.0,0.0,0.0,0.0,0.0,0.0,0.0,0.0,0.0,0.0,0.0,0.0,0.0,0.0,0.0,0.0,0.0,0.0,0.0,0.0,0.0,0.0,0.0,0.0,0.0,0.0,0.0,0.0,0.0,0.0,0.0,0.0,0.0,0.0,0.0,0.0,0.0,0.0,0.0,0.0,0.0,0.0,0.0,0.0,0.0,0.0,0.0,0.0,0.0,0.0,0.0,0.0,0.0,0.0,0.0,0.0,0.0,0.0,0.0,0.0,0.0,0.0,0.0,0.0,0.0,0.0,0.0,0.0,0.0,0.0,0.0,0.0,0.0,0.0,0.0,0.0,0.0,0.0,0.0,0.0,0.0,0.0,0.0,0.0,0.0,0.0,0.0,0.0,0.0,0.0,0.0,0.0,0.0,0.0,0.0,0.0,0.0,0.0,0.0,0.0,0.0,0.0,0.0,0.0,0.0,0.0,0.0,0.0,0.0,0.0,0.0,0.0,0.0,0.0,0.0,0.0,0.0,0.0,0.0,0.0,0.0,0.0,0.0,0.0,0.0,0.0,0.0,0.0,0.0,0.0,0.0,0.0,0.0,0.0,0.0,0.0,0.0,0.0,0.0,0.0,0.0,0.0,0.0,0.0,0.0,0.0,0.0,0.0,0.0,0.0,0.0,0.0,0.0,0.0,0.0,0.0,0.0,0.0,0.0,0.0,0.0,0.0,0.0,0.0,0.0,0.0,0.0,0.0,0.0,0.0,0.0,0.0,0.0,0.0,0.0,0.0,0.0,0.0,0.0,0.0,0.0,0.0,0.0,0.0,0.0,0.0,0.0,0.0,0.0,0.0,0.0,0.0,0.0,0.0,0.0,0.0,0.0,0.0,0.0,0.0,0.0,0.0,0.0,0.0,0.0,0.0,0.0,0.0,0.0,0.0,0.0,0.0,0.0,0.0,0.0,0.0,0.0,0.0,0.0,0.0,0.0,0.0,0.0,0.0,0.0,0.0,0.0,0.0,0.0,0.0,0.0,0.0,0.0,0.0,0.0,0.0,0.0,0.0,0.0,0.0,0.0,0.0,0.0,0.0,0.0,0.0,0.0,0.0,0.0,0.0,0.0,0.0,0.0,0.0,0.0,0.0,0.0,0.0,0.0,0.0,0.0,0.0,0.0,0.0,0.0,0.0,0.0,0.0,0.0,0.0,0.0,0.0,0.0,0.0,0.0,0.0,0.0,0.0,0.0,0.0,0.0,0.0,0.0,0.0,0.0,0.0,0.0,0.0,0.0,0.0,0.0,0.0,0.0,0.0,0.0,0.0,0.0,0.0,0.0,0.0,0.0,0.0,0.0,0.0,0.0,0.0,0.0,0.0,0.0,0.0,0.0,0.0,0.0,0.0,0.0,0.0,0.0,0.0,0.0,0.0,0.0,0.0,0.0,0.0,0.0,0.0,0.0,0.0,0.0,0.0,0.0,0.0,0.0,0.0,0.0,0.0,0.0,0.0,0.0,0.0,0.0,0.0,0.0,0.0,0.0,0.0,0.0,0.0,0.0,0.0,0.0,0.0,0.0,0.0,0.0,0.0,0.0,0.0,0.0,0.0,0.0,0.0,0.0,0.0,0.0,0.0,0.0,0.0,0.0,0.0,0.0,0.0,0.0,0.0,0.0,0.0,0.0,0.0,0.0,0.0,0.0,0.0,0.0,0.0,0.0,0.0,0.0,0.0,0.0,0.0,0.0,0.0,0.0,0.0,0.0,0.0,0.0,0.0,0.0,0.0,0.0,0.0,0.0,0.0,0.0,0.0,0.0,0.0,0.0,0.0,0.0,0.0,0.0,0.0,0.0,0.0,0.0,0.0,0.0,0.0,0.0,0.0,0.0,3.6604,0.0,0.0,0.0,0.0,0.0,0.0,0.0,0.0,0.0,0.0,0.0,0.0,0.0,0.0,0.0,0.0,0.0,0.0,0.0,0.0,0.0,0.0,0.0,0.0,0.0,0.0,0.0,0.0,0.0,0.0,0.0,0.0,0.0,0.0,0.0,0.0,0.0,0.0,0.0,3.6272,3.7034,3.7542,3.7102,3.6599,3.5962,0.0,0.0,0.0,0.0,0.0,0.0,0.0,0.0,0.0,0.0,0.0,0.0,0.0,0.0,0.0,0.0,0.0,0.0,0.0,0.0,0.0,0.0,0.0,0.0,0.0,0.0,0.0,0.0,0.0,0.0,0.0,0.0,0.0,0.0,0.0,0.0,0.0,0.0,0.0,0.0,0.0,0.0,0.0,0.0,0.0,0.0,0.0,0.0,0.0,0.0,0.0,0.0,0.0,0.0,0.0,0.0,0.0,0.0,0.0,0.0,0.0,0.0,0.0,0.0,0.0,0.0,0.0,0.0,0.0,0.0,0.0,3.8526,0.0,0.0,0.0,0.0,0.0,0.0,0.0,0.0,0.0,0.0,0.0,0.0,0.0,0.0,0.0,0.0,0.0,0.0,0.0,0.0,0.0,0.0,0.0,0.0,3.7953,3.8732,3.9774,4.0426,0.0,0.0,0.0,0.0,0.0,0.0,0.0,0.0,0.0,3.712,3.8108,3.8948,3.9607,3.9164,3.8715,3.8232,3.7239,0.0,0.0,0.0,0.0,0.0,0.0,0.0,0.0,0.0,0.0,0.0,0.0,0.0,0.0,0.0,0.0,0.0,0.0,0.0,0.0,0.0,0.0,0.0,0.0,0.0,0.0,0.0,0.0,0.0,0.0,0.0,0.0,0.0,0.0,0.0,0.0,0.0,0.0,0.0,0.0,0.0,0.0,0.0,0.0,0.0,0.0,0.0,0.0,0.0,0.0,0.0,0.0,0.0,0.0,0.0,0.0,0.0,0.0,0.0,0.0,0.0,0.0,0.0,4.6327,4.6499,4.6743,4.6743,4.7146,4.766,4.474,4.2667,4.1234,4.0274,0.0,0.0,0.0,0.0,0.0,0.0,0.0,0.0,0.0,0.0,0.0,0.0,0.0,0.0,0.0,0.0,0.0,0.0,0.0,0.0,0.0,3.7285,3.8813,4.027,4.1831,4.2723,0.0,0.0,0.0,0.0,0.0,0.0,0.0,3.9337,3.9226,3.9186,3.9643,4.038,4.1379,4.1485,4.1882,4.2461,3.9724,3.8519,3.8533,0.0,0.0,0.0,0.0,0.0,0.0,0.0,0.0,0.0,0.0,0.0,0.0,0.0,0.0,0.0,0.0,0.0,0.0,0.0,0.0,0.0,0.0,0.0,0.0,0.0,0.0,0.0,0.0,0.0,0.0,0.0,0.0,0.0,0.0,0.0,0.0,0.0,0.0,0.0,0.0,0.0,3.8299,3.9669,0.0,0.0,0.0,0.0,0.0,0.0,0.0,0.0,0.0,0.0,0.0,0.0,0.0,4.6543,4.691,4.8472,4.9737,5.0689,5.086,5.131,5.1987,5.2108,5.2223,5.2302,5.1124,0.0,4.4892,4.3342,0.0,0.0,0.0,0.0,0.0,0.0,0.0,0.0,0.0,0.0,0.0,0.0,0.0,0.0,0.0,0.0,0.0,0.0,0.0,0.0,0.0,3.7702,3.9528,4.1649,4.3019,4.392,4.4364,4.3171,0.0,0.0,0.0,0.0,4.0847,4.0396,4.0416,4.0885,4.1504,4.2304,4.3324,4.3889,4.4382,4.4765,4.3456,4.2221,4.0996,4.0402,0.0,0.0,0.0,0.0,0.0,0.0,0.0,0.0,0.0,0.0,0.0,0.0,0.0,0.0,0.0,0.0,0.0,0.0,0.0,0.0,0.0,0.0,0.0,0.0,0.0,0.0,0.0,0.0,0.0,0.0,0.0,0.0,0.0,0.0,0.0,0.0,0.0,0.0,0.0,3.8609,4.0118,4.1702,4.0944,4.0176,0.0,0.0,0.0,0.0,0.0,0.0,0.0,0.0,0.0,4.6277,4.9023,5.0762,5.1304,5.2558,5.3368,5.3822,5.3909,5.4136,5.4484,5.4546,5.4546,5.4491,5.3702,5.2045,4.9673,4.6652,4.4657,4.3397,0.0,0.0,0.0,0.0,4.0727,4.0907,0.0,0.0,0.0,0.0,0.0,0.0,0.0,0.0,0.0,0.0,0.0,0.0,3.671,3.8637,4.0747,4.3072,4.4365,4.5209,4.5556,4.4111,0.0,0.0,0.0,4.1442,4.1778,4.1451,4.1596,4.2285,4.2887,4.367,4.4638,4.5443,4.5957,4.6214,4.6562,4.5561,4.3564,4.2808,4.1511,3.9866,0.0,0.0,0.0,0.0,0.0,0.0,0.0,0.0,0.0,0.0,0.0,0.0,0.0,0.0,0.0,0.0,0.0,0.0,0.0,0.0,0.0,0.0,0.0,0.0,0.0,0.0,0.0,0.0,0.0,0.0,0.0,0.0,0.0,0.0,0.0,0.0,0.0,4.0429,4.2081,4.4121,4.3629,4.3002,0.0,0.0,0.0,0.0,0.0,0.0,4.5235,4.7947,4.9883,5.0751,5.3105,5.472,5.5459,5.6063,5.642,5.651,5.6308,5.6198,5.6198,5.6198,5.6198,5.6143,5.5152,5.4363,5.3518,4.9646,4.7552,4.6615,4.5095,4.4455,4.4399,4.4342,4.4214,4.4108,0.0,0.0,0.0,0.0,0.0,0.0,0.0,0.0,0.0,0.0,0.0,3.594,3.7829,4.0378,4.2718,4.4605,4.6347,4.6954,4.6127,4.5096,4.4026,4.2899,4.2525,4.2231,4.2079,4.274,4.3159,4.3321,4.3376,4.3832,4.4691,4.5535,4.6305,4.7095,4.7997,4.7554,4.6027,4.4594,4.3096,4.1465,3.9044,0.0,0.0,0.0,0.0,0.0,0.0,0.0,0.0,0.0,0.0,0.0,0.0,0.0,0.0,0.0,0.0,0.0,0.0,0.0,0.0,0.0,0.0,0.0,0.0,0.0,0.0,0.0,0.0,0.0,0.0,0.0,0.0,0.0,0.0,0.0,0.0,0.0,0.0,4.6932,4.7249,0.0,0.0,0.0,0.0,4.7539,4.7819,4.8919,5.1242,5.3066,5.4454,5.5262,5.7602,5.8886,5.8922,5.8977,5.9024,5.9024,5.8235,5.7868,5.7868,5.7868,5.7868,5.7776,5.6216,5.55,5.5225,5.1958,5.0141,4.9315,4.8318,4.7949,4.7949,4.7889,4.7378,4.6779,0.0,0.0,0.0,0.0,0.0,0.0,0.0,0.0,3.4328,3.4959,3.5795,3.725,3.9693,4.1903,4.4151,4.6542,4.6876,4.6759,4.637,4.4402,4.2969,4.2385,4.2087,4.2334,4.3192,4.3385,4.3479,4.3532,4.3995,4.4398,4.4727,4.5516,4.6049,4.6361,4.7224,4.7335,4.6908,4.6539,4.5151,4.3044,4.1082,3.925,0.0,0.0,0.0,0.0,0.0,0.0,0.0,0.0,0.0,0.0,0.0,0.0,0.0,0.0,0.0,0.0,0.0,0.0,0.0,0.0,0.0,0.0,0.0,0.0,0.0,0.0,0.0,0.0,0.0,0.0,0.0,0.0,0.0,0.0,0.0,0.0,0.0,4.9362,5.0116,0.0,5.0967,5.0765,5.1018,5.2077,5.3121,5.4118,5.4979,5.6575,5.7629,5.7923,5.9758,6.0511,5.9997,5.9979,5.9722,5.9208,5.8382,5.7997,5.7997,5.7997,5.7997,5.7941,5.684,5.6363,5.6198,5.4014,5.2344,5.1059,5.0211,4.9881,4.9881,4.986,4.9328,4.8671,0.0,0.0,0.0,0.0,0.0,0.0,0.0,0.0,3.4657,3.5544,3.6667,3.8446,4.1211,4.3422,4.5576,4.7695,4.766,4.7122,4.6179,4.4122,4.2705,4.2172,4.2118,4.263,4.38,4.3701,4.3634,4.3582,4.4064,4.4305,4.4305,4.5131,4.5498,4.5535,4.6636,4.7169,4.7261,4.7664,4.6493,4.4207,4.252,4.0799,3.9073,0.0,0.0,0.0,0.0,0.0,0.0,0.0,0.0,0.0,0.0,0.0,0.0,0.0,0.0,0.0,0.0,0.0,0.0,0.0,0.0,0.0,0.0,0.0,0.0,0.0,0.0,0.0,0.0,0.0,0.0,0.0,0.0,0.0,0.0,4.6229,4.9118,5.2114,5.3157,5.394,5.4748,5.4821,5.5152,5.5959,5.7024,5.774,5.8015,5.9281,6.0015,6.0015,6.1318,6.1759,6.1227,6.0676,6.0144,5.9612,5.851,5.7997,5.7997,5.7997,5.7997,5.796,5.7152,5.6657,5.629,5.495,5.361,5.2344,5.183,5.161,5.161,5.161,5.093,4.9903,0.0,0.0,0.0,0.0,0.0,0.0,0.0,3.4653,3.4867,3.5694,3.7341,3.9498,4.2243,4.4925,4.6944,4.801,4.8759,4.8105,4.5534,4.4319,4.3266,4.2221,4.2632,4.323,4.3897,4.3818,4.3753,4.3615,4.3513,4.3497,4.3516,4.4305,4.4672,4.4745,4.6342,4.702,4.7131,4.7921,4.704,4.493,4.3254,4.1617,3.9952,0.0,0.0,0.0,0.0,0.0,0.0,0.0,0.0,0.0,0.0,0.0,0.0,0.0,0.0,0.0,0.0,0.0,0.0,0.0,0.0,0.0,0.0,0.0,0.0,0.0,0.0,0.0,0.0,0.0,0.0,0.0,0.0,0.0,4.5881,4.8179,5.1187,5.5188,5.6381,5.7207,5.8033,5.8107,5.8455,5.9263,5.9318,5.9667,6.0438,6.1208,6.163,6.163,6.2401,6.2805,6.2805,6.1208,6.0401,6.0382,5.8767,5.7997,5.7997,5.7997,5.7997,5.796,5.7189,5.6381,5.5574,5.4766,5.3959,5.3243,5.3225,5.3206,5.3206,5.3188,5.2142,5.0527,0.0,0.0,0.0,0.0,0.0,0.0,0.0,3.36,3.4472,3.5888,3.8169,4.0629,4.3307,4.5455,4.7088,4.801,4.7183,4.6012,4.4614,4.2986,4.2069,4.2134,4.2752,4.3455,4.4177,4.3979,4.3818,4.3771,4.3566,4.3497,4.3497,4.3718,4.3828,4.3864,4.4911,4.57,4.6287,4.7095,4.7058,4.6434,4.5386,4.4007,4.243,0.0,0.0,0.0,0.0,0.0,0.0,0.0,0.0,0.0,0.0,0.0,0.0,0.0,0.0,0.0,0.0,0.0,0.0,0.0,0.0,0.0,0.0,0.0,0.0,0.0,0.0,0.0,0.0,0.0,0.0,0.0,4.5148,4.7352,4.8454,5.0674,5.3482,5.6932,5.8052,5.9098,6.0474,6.0603,6.0933,6.1759,6.1832,6.1924,6.2144,6.2365,6.2475,6.2475,6.2695,6.2805,6.2805,6.1208,6.0401,6.0382,5.8767,5.7997,5.7997,5.7997,5.7997,5.7997,5.7776,5.7207,5.6418,5.5592,5.4803,5.4014,5.3445,5.3206,5.3133,5.2546,5.1298,4.9756,0.0,0.0,0.0,0.0,0.0,0.0,0.0,3.3296,3.4444,3.6102,3.8575,4.1189,4.379,4.5707,4.6877,4.7048,4.6163,4.4897,4.3234,4.2315,4.1971,4.2208,4.325,4.4008,4.4373,4.4085,4.3915,4.3804,4.36,4.3497,4.3497,4.3497,4.3497,4.3534,4.4342,4.5149,4.5957,4.6764,4.7315,4.7628,4.7206,4.6047,4.4504,4.3778,4.2908,4.1986,4.1354,4.0535,3.963,3.8966,0.0,0.0,0.0,0.0,0.0,0.0,0.0,0.0,0.0,0.0,0.0,0.0,0.0,0.0,0.0,0.0,0.0,0.0,0.0,0.0,0.0,0.0,0.0,0.0,4.8163,5.0441,5.1967,5.3359,5.528,5.8162,5.9226,6.0199,6.1465,6.1906,6.231,6.2768,6.2805,6.2805,6.2805,6.2805,6.2805,6.2805,6.2805,6.2658,6.231,6.1043,6.0236,5.9887,5.8602,5.7997,5.7997,5.7997,5.7997,5.7978,5.7648,5.7042,5.6235,5.5427,5.462,0.0,0.0,0.0,0.0,0.0,5.038,4.9426,0.0,0.0,0.0,0.0,0.0,0.0,0.0,3.3216,3.4339,3.6009,3.8452,4.0994,4.3501,4.5342,4.6089,4.5374,4.522,4.4149,4.176,4.2177,4.2522,4.2568,4.3964,4.4659,4.4542,4.4188,4.3942,4.3804,4.36,4.3532,4.3497,4.3497,4.3497,4.3516,4.425,4.5021,4.5828,4.6636,4.7499,4.8365,4.8569,4.7701,4.6209,4.5638,4.5352,4.5106,4.372,4.3076,4.2662,4.1186,0.0,0.0,0.0,0.0,0.0,0.0,0.0,0.0,0.0,0.0,0.0,0.0,0.0,0.0,0.0,0.0,0.0,0.0,0.0,0.0,0.0,0.0,0.0,0.0,5.0897,5.3506,5.5859,5.6084,5.6804,5.8969,5.9924,6.0731,6.152,6.2328,6.2805,6.2805,6.2805,6.2805,6.2805,0.0,0.0,0.0,0.0,6.2328,6.1594,6.0713,5.9924,5.9208,5.8382,5.7997,5.7997,5.7997,5.7941,5.7813,5.7116,5.629,5.5434,5.4736,5.3965,5.323,5.3115,5.2564,5.1665,5.0141,4.9517,4.9224,0.0,0.0,0.0,0.0,0.0,0.0,0.0,3.1507,3.2664,3.4342,3.6788,3.9084,4.1003,4.2783,4.3742,4.3605,4.2951,4.2266,4.1642,4.2317,4.3003,4.3586,4.4482,4.4846,4.4659,4.4327,4.4079,4.3883,4.3701,4.3548,4.3497,4.3497,4.3497,4.3497,4.3644,4.4176,4.4984,4.5792,4.6691,4.761,4.849,4.8245,4.7389,4.7303,4.6917,4.6346,4.6059,4.5065,4.3837,4.3423,4.176,3.9797,3.9501,3.8354,0.0,0.0,0.0,0.0,0.0,0.0,0.0,0.0,0.0,0.0,0.0,0.0,0.0,0.0,0.0,0.0,0.0,0.0,0.0,5.4185,5.5535,5.6744,5.8481,5.8603,5.8694,5.9153,5.9924,6.0731,6.152,6.2328,6.2805,6.2805,6.2805,6.2805,6.2805,6.2805,6.2805,6.2805,6.2181,6.1759,6.1594,6.0162,5.9373,5.9208,0.0,0.0,5.7997,5.7997,5.7648,5.7024,5.6877,5.6004,5.4693,5.4528,5.4096,5.3363,5.2555,5.1738,5.0912,4.9939,4.915,4.8416,0.0,0.0,0.0,0.0,0.0,0.0,0.0,3.1097,3.2238,3.3915,3.5984,3.7959,3.9707,4.103,4.1643,4.1219,4.0781,4.0844,4.1601,4.2409,4.3216,4.4019,4.4734,4.5014,4.4846,4.4513,4.4229,4.4005,4.38,4.3634,4.3548,4.3532,4.3497,4.3497,4.3497,4.3956,4.4745,4.5131,4.5845,4.6816,4.7432,4.756,4.7454,4.8377,4.8536,4.8135,4.7372,4.6506,4.5585,4.4626,4.3069,4.1564,4.1505,4.037,3.8942,0.0,0.0,0.0,0.0,0.0,0.0,0.0,0.0,0.0,0.0,0.0,0.0,0.0,0.0,4.6877,4.9042,0.0,5.4258,5.6941,5.8125,5.9027,6.0045,5.9697,5.9108,5.8657,5.9318,6.0126,6.0915,6.1722,6.2383,6.2787,6.2805,6.2805,6.2805,6.2805,6.2622,6.2218,6.1814,6.1208,6.0419,5.9612,5.9006,5.8602,5.8198,5.7997,5.7997,5.7997,5.7556,5.6785,5.6363,5.557,5.4478,5.4179,5.3853,5.3413,5.2172,5.1335,5.0698,4.9485,4.8473,4.759,0.0,0.0,0.0,0.0,0.0,0.0,0.0,3.1006,3.1987,3.3526,3.5026,3.6565,3.8142,3.9027,3.9335,3.8834,3.89,3.9749,4.1594,4.2482,4.3404,4.4422,4.4956,4.5192,4.5038,4.4745,4.4449,4.417,4.3961,4.3767,4.3667,4.3548,4.3513,4.3513,4.3532,4.3864,4.4488,4.4635,4.5201,4.6018,4.6335,4.6669,4.7154,4.8664,4.9294,4.9159,4.7947,4.7283,4.683,4.5337,4.4158,4.3268,4.321,4.2023,4.0533,3.9816,3.8348,0.0,0.0,0.0,0.0,0.0,0.0,0.0,0.0,4.2067,4.3927,4.5611,4.8098,5.0484,5.2212,5.4985,5.7449,5.8883,6.0003,6.077,6.0988,6.0221,5.9219,5.8107,5.8712,5.9465,6.0107,6.0896,6.163,6.2291,6.2346,6.2346,6.2346,6.2346,6.2053,6.1392,6.1208,6.0511,5.9226,5.9061,5.8657,5.7997,5.7997,5.7997,5.7997,5.7831,5.7336,5.6528,5.5581,5.4859,5.4262,5.3862,5.3719,5.3552,5.2046,5.1305,5.086,4.9177,4.7979,4.7059,0.0,0.0,0.0,0.0,0.0,0.0,0.0,0.0,3.0891,3.1852,3.2776,3.368,3.4661,3.5545,3.6315,3.6949,3.77,3.9165,4.1627,4.2588,4.3763,4.5283,4.5381,4.5301,4.517,4.4967,4.4719,4.4449,4.4199,4.4005,4.3865,4.3701,4.3582,4.3582,4.3532,4.3534,4.3681,4.4397,4.4869,4.5223,4.6057,4.6607,4.6947,4.7408,4.761,4.7643,4.7479,4.6897,4.6195,4.587,4.5132,4.429,4.4177,4.2987,4.1624,4.1474,3.9677,3.7718,3.7507,3.7866,3.8346,3.8655,4.0643,4.2682,0.0,4.527,4.7411,4.8522,5.1379,5.4239,5.5973,5.8207,6.0224,6.1709,6.224,6.2182,6.1212,6.0728,5.9826,5.818,5.8712,5.9263,5.9336,6.007,6.0566,6.0658,6.0676,6.0676,6.0676,6.0676,6.0639,6.0548,5.985,5.9391,5.9208,5.8492,5.8088,5.7997,5.7997,5.7997,5.7978,5.7262,5.651,5.5629,5.4317,5.368,5.365,5.4,5.4108,5.3923,5.2526,5.1837,5.1364,4.9468,4.8214,4.7328,0.0,0.0,0.0,0.0,0.0,0.0,0.0,0.0,0.0,0.0,3.1987,3.2526,3.3353,3.3776,3.4526,3.5892,3.6757,3.8546,4.1604,4.2624,4.3855,4.5491,4.5495,4.54,4.532,4.5151,4.4967,4.4796,4.4513,4.4317,4.4121,4.3923,4.3814,4.3767,4.3615,4.3548,4.3584,4.3899,4.4062,4.4236,4.4702,4.5008,4.5182,4.4861,4.4787,4.4944,4.5679,4.5407,0.0,4.3919,4.3446,4.3137,4.3039,4.225,4.1304,4.1199,3.9698,3.8026,3.7776,3.8604,3.9704,4.0372,4.2259,4.4382,4.6138,4.7859,4.9605,5.1629,5.3972,5.6045,5.7369,5.9484,6.1353,6.2268,6.2801,6.2818,6.1961,6.1207,6.0213,5.8841,5.8584,5.8694,5.9171,5.952,5.9905,6.0364,6.0401,6.0401,6.0401,6.0401,6.0228,5.9816,5.9467,5.9127,5.8712,5.8317,5.8106,5.8106,5.8042,5.7997,5.796,5.7171,5.6106,5.4821,5.3834,5.34,5.344,5.3833,5.3737,5.3267,5.2467,5.1835,5.1179,4.9701,4.824,4.6903,0.0,0.0,0.0,0.0,0.0,0.0,0.0,0.0,0.0,0.0,3.1352,3.1564,3.216,3.2218,3.291,3.4641,3.5545,3.7469,4.0893,4.2124,4.3489,4.5163,4.5416,4.5495,4.5419,4.532,4.5194,4.5061,4.4821,4.4621,4.4476,4.424,4.4079,4.4005,4.3814,4.3682,4.3652,4.3787,4.375,4.3634,4.3959,4.4036,4.3881,4.3125,4.275,4.2716,4.346,4.334,4.2753,4.1977,4.177,4.1876,4.2052,4.1437,4.0688,4.0816,3.9714,3.845,3.8442,3.9616,4.1051,4.2047,4.3932,4.6121,4.8399,4.9822,5.133,5.3544,5.537,5.6778,5.7513,5.9622,6.1363,6.1647,6.2346,6.2615,6.1794,6.1011,5.9983,5.8676,5.8217,5.8143,5.851,5.8749,5.9116,5.9703,5.974,5.974,5.974,5.974,5.9512,5.9081,5.9062,5.8831,5.8393,5.8242,5.8197,5.8197,5.7822,5.7666,5.7629,5.662,5.539,5.4032,5.3534,5.3171,5.3009,5.3423,5.316,5.2461,5.2039,5.1613,5.1025,4.9769,4.8235,4.6725,0.0,0.0,0.0,0.0,0.0,0.0,0.0,0.0,0.0,0.0,0.0,0.0,0.0,3.0475,3.116,3.2833,3.3776,3.5718,3.9142,4.0912,4.2585,4.4259,4.5143,4.5568,4.5495,4.5419,4.5322,4.5201,4.5065,4.4943,4.487,4.4557,4.4346,4.426,4.4079,4.3929,4.3826,4.4497,4.4334,4.3655,4.4462,4.4417,4.3823,4.3021,4.2254,4.1545,4.0942,4.075,4.0783,4.0746,4.0823,4.1073,4.1845,4.1041,3.9976,4.0678,4.0083,3.9332,4.0114,4.1438,4.2848,4.38,4.6064,4.8348,4.9429,5.1092,5.2691,5.362,5.5244,5.6499,5.6518,5.8501,6.0087,5.9899,6.0995,6.1426,6.0157,5.9789,5.895,5.706,5.7538,5.7703,0.0,5.7574,5.8052,5.807,5.807,5.807,5.807,5.807,5.8116,5.8234,5.8234,5.8279,5.8393,5.8242,5.8197,5.8197,5.7271,5.684,5.6785,5.5207,5.4032,5.3243,5.3295,5.2858,5.2161,5.2587,5.2337,5.1682,5.129,5.1231,5.1211,4.9605,4.8232,4.7137,0.0,0.0,0.0,0.0,0.0,0.0,0.0,0.0,0.0,0.0,0.0,0.0,0.0,0.0,0.0,0.0,3.33,3.5114,3.742,3.97,4.145,4.2585,4.347,4.3932,4.3915,4.3843,4.3807,4.3751,4.419,4.4374,4.4309,4.4635,4.4707,4.4541,4.4269,4.4017,4.3869,4.3944,4.3839,4.3495,4.3238,4.3015,4.2695,4.1364,4.0683,4.0234,0.0,3.821,3.8753,3.8159,3.8406,3.902,3.9301,3.942,3.9527,3.9783,3.996,4.0235,4.0987,4.231,4.3836,4.5217,4.6708,4.8268,4.9763,5.0603,5.1369,5.2333,5.3452,5.4288,5.4398,5.5583,5.6797,5.7608,5.8502,5.902,5.8924,5.9224,5.8989,5.7721,5.7831,0.0,0.0,0.0,0.0,5.7997,5.7997,5.7997,5.7997,5.7997,5.8088,5.8349,5.7795,5.7605,5.7793,5.7069,5.6645,5.6645,5.6213,5.5721,5.5188,5.4656,5.3959,5.3188,5.2661,5.2257,5.2004,5.1786,5.1321,5.0673,5.0304,4.9936,4.9486,4.8457,4.7365,4.6377,0.0,0.0,0.0,0.0,0.0,0.0,0.0,0.0,0.0,0.0,0.0,0.0,0.0,0.0,0.0,0.0,0.0,3.3873,3.5628,3.7882,3.9512,4.0377,4.1546,4.2181,4.2184,4.2132,4.2232,4.2504,4.2948,4.3291,4.3536,4.3919,4.4004,4.3832,4.353,4.3461,4.3484,4.3258,4.3125,4.2986,4.2404,4.202,4.1617,4.0248,3.9804,0.0,3.7448,3.7135,3.7609,3.6472,3.6727,3.7556,3.7835,3.854,3.9272,3.9298,4.0074,4.1204,4.2255,4.367,4.5134,4.645,4.7448,4.8447,4.9873,5.0238,5.0471,5.1147,5.1738,5.2067,5.1882,5.2798,5.3935,5.5042,5.6051,5.6973,5.7784,5.826,5.8299,5.7629,5.7813,5.7886,0.0,0.0,0.0,5.7997,5.7997,5.7997,5.7997,5.7997,5.7959,5.795,5.7457,5.7159,5.7104,5.6385,5.5794,5.5391,5.5239,5.4748,5.3977,5.3977,5.3537,5.2747,5.2215,5.1665,5.1136,5.0802,5.0138,4.9272,4.9133,4.8711,4.8112,4.7302,4.6563,4.5961,0.0,0.0,0.0,0.0,0.0,0.0,0.0,0.0,0.0,0.0,0.0,0.0,0.0,0.0,0.0,0.0,0.0,0.0,3.3757,3.5556,3.6891,3.7679,3.9304,4.0242,4.0233,4.0255,4.0624,4.1321,4.1342,4.1762,4.2484,4.2417,4.2322,4.2224,4.2001,4.223,4.2693,4.2387,4.2191,4.204,4.1757,4.1212,4.0516,3.9667,3.948,3.9447,3.7857,3.7369,3.7268,3.5745,3.59,3.6859,3.7711,3.8572,3.9341,3.9458,4.0643,4.2287,4.3938,4.5438,4.6721,4.7488,4.8194,4.8916,4.9694,4.9878,4.9893,4.9912,4.9998,4.9787,4.9001,5.0086,5.1411,5.2215,5.3662,5.5207,5.6632,5.6963,5.6974,5.6859,5.7538,5.7703,0.0,0.0,0.0,5.7997,0.0,5.7997,5.7997,5.7997,5.7702,5.7137,5.7167,5.6926,5.6347,5.6156,5.5529,5.4441,5.4393,5.394,5.3206,5.317,5.2729,5.1995,5.1903,5.1004,4.9612,4.9579,4.8809,4.7683,4.7751,4.7519,4.7084,4.6153,4.5825,4.5779,0.0,0.0,0.0,0.0,0.0,0.0,0.0,0.0,0.0,0.0,0.0,0.0,0.0,0.0,0.0,0.0,0.0,0.0,3.1873,3.3608,3.4722,3.4983,3.5994,3.6549,3.6553,3.7132,3.7538,3.7731,3.8918,3.9585,3.9795,4.0321,4.0779,4.1178,4.0926,4.108,4.148,4.0643,4.0169,3.9855,3.8679,3.7995,3.7727,3.7528,3.7573,3.7685,3.7343,3.7259,3.7204,3.6321,3.6985,3.8412,3.9829,4.0505,4.0903,4.1623,4.2672,4.3935,4.5562,4.6605,4.7435,4.816,4.7942,4.7592,4.7795,4.739,4.6818,4.6354,4.626,4.6036,4.5286,4.5971,4.7067,4.8421,5.0506,5.2677,5.4755,5.6095,5.7069,5.7629,5.7886,5.7923,5.7703,5.7886,0.0,0.0,5.7997,5.7997,5.7997,5.7997,5.7702,5.7137,5.6631,5.6132,5.5585,5.4839,5.4238,5.3754,5.3631,5.3456,5.3188,5.2582,5.2179,5.1922,5.071,4.9958,4.952,4.8365,4.7757,4.7381,4.6308,4.5867,4.5709,4.4886,4.4528,4.4468,0.0,0.0,0.0,0.0,0.0,0.0,0.0,0.0,0.0,0.0,0.0,0.0,0.0,0.0,0.0,0.0,0.0,0.0,0.0,3.1887,3.2746,3.2781,3.3595,3.4031,3.398,3.4404,3.4961,3.5609,3.65,3.7293,3.7969,3.8354,3.8691,3.8945,3.8691,3.8844,3.9278,3.8198,3.7853,0.0,0.0,3.5933,3.5967,3.5915,3.6285,3.6844,3.6975,3.764,3.8455,3.8805,3.9294,3.9974,4.124,4.1944,4.2498,4.343,4.4374,4.5379,4.6661,4.7488,4.8069,4.8458,4.7831,4.7021,4.6654,4.5957,4.5057,4.3989,4.375,4.3526,4.2765,4.3557,4.4865,4.6433,4.8731,5.1287,5.4014,5.5482,5.6693,5.785,5.7997,5.7997,5.7997,5.7997,5.7997,0.0,5.7997,5.7997,5.7997,5.7666,5.7187,5.6602,5.5932,5.5395,5.489,5.4332,5.3963,5.3756,5.3542,5.3237,5.2843,5.2302,5.1654,5.0956,0.0,4.9169,4.8434,4.7592,4.6856,4.6188,4.5334,4.4893,4.4618,4.4141,4.3942,4.391,0.0,0.0,0.0,0.0,0.0,0.0,0.0,0.0,0.0,0.0,0.0,0.0,0.0,0.0,0.0,0.0,0.0,0.0,0.0,0.0,0.0,3.097,3.1756,3.2134,3.201,3.2123,3.2808,3.4076,3.4189,3.4911,3.6222,3.6242,3.6247,3.6202,3.6039,3.6273,3.6753,3.5634,3.5504,3.5936,3.4799,3.4427,3.4588,0.0,0.0,0.0,3.6654,3.8041,3.9977,4.1544,4.1776,4.1589,4.2488,4.3327,4.4113,4.5044,4.5833,4.6604,4.7437,4.8106,4.855,4.8403,4.7555,4.6581,4.5755,4.4892,4.3809,4.2286,4.1974,4.1735,4.0946,4.2103,4.3663,4.5186,4.759,5.0343,5.3482,5.4803,5.6033,5.7648,5.7923,5.7997,5.7997,5.7997,5.7997,5.7997,5.7997,5.7997,5.7997,5.7244,5.6515,5.5789,5.5183,5.4727,5.4424,5.4318,5.4214,5.4163,5.3721,5.3142,5.2417,5.2022,5.1038,4.9691,4.943,0.0,4.7095,4.6893,4.5993,4.4777,4.4667,4.4309,4.3832,4.3786,4.3786,4.3832,0.0,0.0,0.0,0.0,0.0,0.0,0.0,0.0,0.0,0.0,3.0545,3.0352,0.0,0.0,0.0,0.0,0.0,0.0,0.0,0.0,0.0,0.0,2.9945,3.002,3.0001,3.0599,3.1044,0.0,0.0,3.2411,3.2687,3.3234,3.3744,3.422,3.4575,3.4979,3.5295,3.427,3.3776,3.3628,3.2751,3.2383,3.2433,0.0,0.0,0.0,3.6072,3.7889,3.9545,4.0507,4.1827,4.3332,4.48,4.5459,4.5825,4.6671,4.7056,4.7385,4.8198,4.8477,4.8366,4.7666,4.6305,4.4911,4.4085,4.2782,4.1479,4.0506,4.0322,4.0065,3.9258,4.0432,4.1846,4.2763,4.5535,4.8453,5.1059,5.3261,5.5207,5.6822,5.7593,5.7997,5.7997,5.7997,0.0,0.0,5.7997,5.7997,5.7997,5.7244,5.6282,5.5183,5.4634,5.4415,5.4565,5.4597,5.4565,5.442,5.359,5.3005,5.2623,5.1101,5.0195,4.9713,4.8329,0.0,4.7021,4.5681,4.4966,4.4635,4.3991,4.3642,4.3566,4.3566,4.3566,4.3548,0.0,0.0,0.0,0.0,0.0,0.0,0.0,3.0899,3.138,3.1322,3.1966,3.2158,3.1463,3.1343,3.111,0.0,0.0,0.0,0.0,0.0,0.0,0.0,0.0,0.0,0.0,0.0,0.0,0.0,0.0,0.0,0.0,0.0,0.0,0.0,0.0,0.0,0.0,3.2039,3.1861,0.0,0.0,0.0,0.0,0.0,0.0,0.0,0.0,3.7344,3.86,3.9914,4.127,4.285,4.5021,4.6396,4.7278,4.7664,4.7831,4.796,4.8347,4.842,4.8217,4.7408,4.5938,4.4397,4.3149,4.1625,4.0249,3.9441,3.9276,3.9166,3.8781,3.968,4.0873,4.2103,4.4654,4.7498,5.0398,5.2527,5.4546,5.6565,5.6767,5.6914,5.7336,5.6987,5.6914,5.7336,5.7373,5.7556,5.7978,5.6912,5.571,5.4444,5.435,5.4279,5.4099,5.4181,5.4002,5.3575,5.2961,5.2391,5.178,5.0729,4.991,4.9268,4.7905,0.0,4.6397,4.5204,4.4452,4.403,4.3644,4.3497,4.3497,4.3497,4.3497,4.3497,0.0,0.0,0.0,0.0,0.0,0.0,0.0,3.1274,3.1949,3.1893,3.3384,3.4063,3.3037,3.26,3.1973,0.0,0.0,0.0,0.0,0.0,0.0,0.0,0.0,0.0,0.0,0.0,0.0,0.0,0.0,0.0,0.0,0.0,0.0,0.0,0.0,0.0,0.0,0.0,0.0,0.0,0.0,0.0,0.0,0.0,0.0,0.0,0.0,3.6166,3.7146,3.8704,3.9799,4.0989,4.3415,4.5649,4.7396,4.7782,4.7952,4.8047,4.8231,4.8267,4.8086,4.7095,4.5645,4.403,4.2415,4.0799,3.946,3.8836,3.8707,3.8707,3.8707,3.935,4.0304,4.157,4.3809,4.6397,4.9334,5.1444,5.3537,5.5776,5.5776,0.0,5.6492,5.5959,0.0,5.651,5.6547,5.6822,5.7446,5.6282,5.4985,5.359,5.3952,5.3924,5.3366,5.3517,5.3282,5.2749,5.2338,5.1745,5.1008,5.0479,4.9664,4.8627,4.7533,0.0,0.0,4.4782,4.4066,4.3497,4.3497,4.3497,4.3463,4.3463,4.3463,4.3393,0.0,0.0,0.0,0.0,0.0,0.0,0.0,3.2077,3.3131,3.3137,3.4607,3.5546,3.5298,3.4246,3.3125,0.0,0.0,0.0,0.0,0.0,0.0,0.0,0.0,0.0,0.0,0.0,0.0,0.0,0.0,0.0,0.0,0.0,0.0,0.0,0.0,0.0,0.0,0.0,0.0,0.0,0.0,0.0,0.0,0.0,0.0,0.0,0.0,3.3938,3.4836,3.5714,3.6658,3.7786,3.9428,4.2074,4.4885,4.6379,4.6973,4.7293,4.8025,4.8247,4.7939,4.6397,4.48,4.3185,4.1589,3.9974,3.8799,3.8726,3.8707,3.8707,3.8707,3.935,3.9937,4.0084,4.2139,4.4323,4.6104,4.9058,5.1665,5.3335,0.0,0.0,5.5684,5.5629,5.5611,5.5684,5.5702,5.5739,5.5812,5.5061,5.4016,5.2642,5.3022,5.3025,5.2598,5.2793,5.2881,5.2877,5.205,5.149,5.1155,5.0213,4.9081,4.7853,4.6817,0.0,0.0,4.3938,4.3552,4.3497,4.3497,4.3463,4.3429,4.3429,4.3269,4.3141,0.0,0.0,0.0,0.0,0.0,0.0,3.0691,3.1769,3.2586,3.2589,3.3626,3.4319,3.4237,3.3616,3.2962,3.2352,0.0,0.0,0.0,0.0,0.0,0.0,0.0,0.0,0.0,0.0,0.0,2.9661,0.0,0.0,0.0,0.0,0.0,0.0,0.0,0.0,0.0,0.0,0.0,0.0,0.0,0.0,0.0,0.0,0.0,0.0,0.0,0.0,3.3619,3.4926,3.5318,3.5471,3.6631,3.7937,3.9843,4.3768,4.5095,4.551,4.6389,4.6724,4.6525,4.5425,4.3975,4.2488,4.1368,3.9863,3.8707,3.8707,3.8707,3.8707,3.8707,3.8964,3.9331,3.9808,4.1111,4.28,4.4892,4.715,4.937,5.1499,5.2747,5.361,0.0,0.0,5.4363,5.484,5.4436,5.4161,5.4161,5.3999,5.3484,5.2605,5.2525,5.2262,5.1787,5.2021,5.1954,5.1561,5.1133,5.0539,4.9858,4.9208,4.8265,4.7079,4.6001,0.0,0.0,4.3828,4.3497,4.3497,4.3497,4.3463,4.3394,4.3305,4.3142,4.2956,0.0,0.0,0.0,0.0,0.0,3.0309,3.0312,3.1311,3.207,3.2065,3.2814,3.3327,3.3257,3.2832,3.2429,3.2156,3.1354,0.0,0.0,0.0,0.0,0.0,0.0,0.0,0.0,0.0,2.7913,3.0063,3.0155,0.0,0.0,0.0,0.0,0.0,0.0,0.0,0.0,0.0,0.0,0.0,0.0,0.0,0.0,0.0,0.0,0.0,0.0,0.0,0.0,0.0,0.0,3.3412,3.4249,3.4631,0.0,4.0935,4.2717,4.3317,4.474,4.5257,4.5224,4.4491,4.3279,4.2029,4.0983,3.968,3.8707,3.8707,3.8707,3.8707,3.8707,3.8707,3.8891,3.9441,4.023,4.1515,4.3681,4.5388,4.7315,4.9774,0.0,5.161,5.2417,5.2491,5.2821,5.3628,5.2949,5.2491,5.2491,5.2195,5.195,5.1881,5.1509,5.1063,5.0558,5.0578,5.037,4.9933,4.9854,4.9384,4.8617,4.8257,4.7466,4.629,4.5393,0.0,0.0,4.3718,4.3497,4.3497,4.3463,4.3411,4.3287,4.3105,4.2844,4.2555,0.0,0.0,0.0,0.0,0.0,0.0,2.9399,3.0886,3.1995,3.2006,3.2703,3.3187,3.3106,3.2271,3.165,3.1511,3.1208,0.0,0.0,0.0,0.0,0.0,0.0,0.0,0.0,0.0,2.8456,3.0006,3.0595,3.1235,3.1864,3.0856,0.0,0.0,0.0,0.0,0.0,0.0,0.0,0.0,0.0,0.0,0.0,0.0,0.0,0.0,0.0,0.0,0.0,0.0,0.0,0.0,0.0,0.0,0.0,0.0,3.9875,4.0813,4.3325,4.4211,4.4254,4.3595,4.2842,4.1882,4.0267,3.9276,3.8707,3.8707,3.8707,3.8707,3.8707,3.8707,3.8707,3.8707,3.9386,4.0469,4.2103,4.3718,4.5626,0.0,4.9077,4.9921,5.0747,5.082,5.1151,5.1958,5.1279,0.0,5.082,4.9375,4.9049,5.0098,4.9674,4.9229,4.8827,4.8239,4.7988,4.8125,4.8126,4.7987,4.7709,4.7498,4.6675,4.5407,0.0,0.0,0.0,4.3497,4.3497,4.3497,4.3411,4.3287,4.3067,4.2727,4.2292,4.1881,0.0,0.0,0.0,0.0,0.0,0.0,0.0,2.9671,3.0222,3.077,3.1067,3.1197,3.1124,3.0852,3.0637,3.0548,3.0402,0.0,0.0,0.0,0.0,0.0,0.0,0.0,0.0,0.0,2.9204,3.0747,3.1222,3.1803,3.2509,3.1906,3.1524,3.1255,0.0,0.0,0.0,0.0,0.0,0.0,0.0,0.0,0.0,0.0,0.0,0.0,0.0,0.0,0.0,0.0,0.0,0.0,0.0,0.0,0.0,3.3823,3.6018,3.8139,3.9786,4.0845,4.1487,4.1541,4.099,4.013,3.9182,3.8742,3.8444,3.7973,3.8322,3.8707,3.8707,3.8707,3.8707,3.8707,3.8909,3.9643,4.1258,0.0,0.0,4.6379,4.8398,4.9903,0.0,0.0,5.0912,5.1151,4.9884,4.9095,4.9095,4.7591,4.75,4.9174,4.8221,4.773,4.7853,4.7869,4.7968,4.8087,4.8009,4.7559,4.6793,4.641,4.5622,0.0,0.0,0.0,0.0,4.3497,4.3463,4.3411,4.3305,4.3087,4.2768,4.2436,4.2068,4.1675,0.0,0.0,0.0,0.0,0.0,0.0,0.0,2.8168,2.8656,2.9486,2.9608,2.9743,3.0041,3.0395,3.0562,3.0506,3.0731,0.0,0.0,0.0,0.0,0.0,0.0,0.0,0.0,2.8585,2.9922,3.1437,3.19,3.2357,3.2773,3.2489,3.2174,3.1895,3.1561,0.0,0.0,0.0,0.0,0.0,0.0,0.0,3.1411,0.0,0.0,0.0,0.0,0.0,0.0,0.0,0.0,0.0,0.0,0.0,0.0,0.0,3.2858,3.5039,3.6768,3.7884,3.8632,3.9012,3.879,3.8328,3.764,3.7502,3.7436,3.7051,3.7393,3.7881,3.8193,3.8248,3.834,3.8652,3.8946,3.9606,4.0928,0.0,0.0,4.6067,0.0,0.0,0.0,5.005,4.9866,4.9866,4.8618,4.7719,4.7407,4.6159,4.6028,4.7239,4.6637,4.6487,4.6904,4.6908,4.695,4.7089,4.6989,4.6557,4.5826,4.541,4.4784,0.0,0.0,0.0,0.0,4.3358,4.334,4.3287,4.3068,4.2788,4.2458,4.2032,4.1622,4.1255,0.0,0.0,0.0,0.0,0.0,0.0,0.0,2.6533,2.7346,2.8173,2.8391,2.878,2.9664,3.0587,3.1153,3.1156,0.0,0.0,0.0,0.0,0.0,0.0,0.0,0.0,2.8839,2.9569,3.0613,3.2,3.2523,3.2808,3.2862,3.2674,3.274,3.2952,3.224,3.1912,3.1882,3.1702,3.1886,3.2283,3.2038,3.1821,0.0,0.0,0.0,0.0,0.0,0.0,0.0,0.0,0.0,0.0,0.0,0.0,0.0,0.0,0.0,0.0,0.0,3.53,3.5915,3.6203,3.6516,3.6555,3.5842,3.5836,0.0,3.5992,3.6153,3.6523,3.7276,3.7441,3.7734,3.8487,3.9331,4.0175,4.1001,4.258,0.0,0.0,4.7792,0.0,4.9426,4.8728,4.8214,4.8214,4.7425,4.6617,4.5847,4.5057,4.4652,4.472,4.5036,4.545,4.5963,4.5441,4.5237,4.5381,4.536,4.5192,4.487,4.453,4.4192,0.0,0.0,0.0,0.0,4.3087,4.2976,4.2939,4.267,4.2374,4.2074,4.1552,4.1146,4.0724,0.0,0.0,0.0,0.0,0.0,0.0,0.0,0.0,0.0,0.0,2.7563,2.8087,2.835,2.9791,3.0748,0.0,0.0,0.0,0.0,0.0,0.0,0.0,0.0,0.0,2.8601,3.0431,3.1541,3.1768,3.2364,3.2973,3.3641,3.2922,3.3105,3.4011,3.3232,3.2871,3.2871,3.2786,3.2656,3.2539,3.2422,3.2161,0.0,0.0,0.0,0.0,3.123,3.119,0.0,0.0,0.0,0.0,0.0,0.0,0.0,0.0,2.9672,3.0089,3.0746,0.0,3.4271,3.4809,3.5119,3.5154,0.0,3.5169,3.5579,3.5192,3.5645,3.6245,3.6541,3.7074,3.7551,3.7734,3.8964,4.0175,4.1001,4.3552,0.0,4.6104,4.7443,4.8379,4.86,4.7865,4.7388,4.7388,4.6085,4.5222,4.5072,4.4318,4.3944,4.411,4.422,4.4431,4.473,4.4896,4.5038,4.5173,4.5125,4.4991,4.4796,4.4383,4.403,0.0,0.0,0.0,4.2087,4.1976,4.1807,4.1611,4.2037,4.1959,4.1552,4.1209,4.0884,4.048,0.0,0.0,0.0,0.0,0.0,0.0,0.0,0.0,0.0,0.0,0.0,2.7118,2.7614,2.9586,0.0,0.0,0.0,0.0,0.0,0.0,0.0,0.0,0.0,3.0188,2.9914,3.0962,3.187,3.255,3.2841,3.3475,3.4426,3.4066,3.4103,3.4503,3.376,3.3426,3.3426,3.3327,3.3147,3.2848,3.2755,0.0,0.0,0.0,0.0,0.0,3.1213,3.119,0.0,3.1112,3.1032,3.0895,0.0,0.0,0.0,0.0,2.9106,2.9307,2.9747,3.1303,3.2954,3.3416,3.3778,3.4022,3.3879,3.4095,3.4299,3.4111,3.4543,3.5096,3.5567,3.6376,3.7055,3.7452,3.9148,4.1001,0.0,0.0,4.5498,4.5865,4.6673,4.7205,0.0,4.6801,4.6416,4.6049,4.5222,4.4595,4.4278,4.3907,4.3568,4.3278,4.3323,4.349,4.3746,4.4063,4.4051,4.3763,4.3763,4.3642,4.3412,4.3013,4.273,0.0,0.0,0.0,4.096,4.0751,4.0499,4.0311,4.0898,4.0893,4.0631,4.0698,4.0408,3.9825,0.0,0.0,0.0,0.0,0.0,0.0,0.0,0.0,0.0,0.0,0.0,0.0,0.0,0.0,0.0,0.0,0.0,0.0,0.0,0.0,0.0,0.0,0.0,3.1041,3.1479,3.1331,3.1969,3.3476,3.3404,3.4004,3.5226,3.5309,3.5141,3.4702,3.4008,3.3698,3.3698,3.3577,3.3415,3.322,3.3024,0.0,0.0,0.0,0.0,0.0,0.0,0.0,0.0,3.1032,3.0895,3.0733,3.0274,0.0,0.0,0.0,0.0,0.0,2.9722,3.0953,3.2051,3.2401,3.2882,3.3286,3.335,0.0,0.0,0.0,0.0,0.0,0.0,3.564,0.0,0.0,0.0,0.0,4.4213,4.4635,4.4947,4.5645,4.5828,0.0,4.5902,4.5792,4.5424,4.4764,4.4651,4.4334,4.3671,4.3642,4.3319,4.258,4.2469,4.2507,4.266,4.2964,4.2787,4.2115,4.2189,4.2039,4.1754,4.1486,4.123,4.0909,0.0,0.0,3.9795,3.9403,3.9118,3.9063,3.9485,3.9571,3.952,3.9953,3.9654,3.8982,0.0,0.0,0.0,0.0,0.0,0.0,0.0,0.0,0.0,0.0,0.0,0.0,0.0,0.0,0.0,0.0,0.0,0.0,0.0,0.0,0.0,3.2051,3.1517,3.117,3.1077,3.1533,3.2191,3.3017,3.3167,3.4086,3.5789,3.5403,3.5058,3.4761,3.4092,3.3753,3.3698,3.3671,3.3605,3.3433,3.3178,0.0,0.0,0.0,0.0,0.0,0.0,0.0,0.0,3.0952,3.0675,3.0309,2.9968,0.0,0.0,0.0,0.0,0.0,2.8717,3.0601,3.2425,3.282,3.3287,3.3522,3.3156,3.3192,0.0,0.0,0.0,0.0,0.0,3.5535,3.6637,0.0,0.0,4.2488,0.0,0.0,4.4764,4.4874,0.0,4.5902,4.5902,4.5278,4.4837,4.4727,4.4136,4.3796,4.3771,4.3204,4.2823,4.2767,4.2057,4.1322,4.064,4.1473,4.1838,4.1791,4.1791,4.1754,4.1611,4.1354,4.1038,4.0684,0.0,3.8841,3.8413,3.8146,3.787,3.7698,3.835,3.8523,3.8342,3.8414,3.8303,3.799,0.0,0.0,0.0,0.0,0.0,0.0,0.0,0.0,0.0,0.0,0.0,0.0,0.0,0.0,0.0,0.0,0.0,0.0,0.0,0.0,3.2947,3.3162,3.2414,3.1771,3.132,3.1502,3.1939,3.2767,3.2904,3.3932,3.5814,3.5971,3.5836,3.5429,3.4723,3.4174,3.3753,3.3753,3.3698,3.3605,0.0,0.0,0.0,0.0,0.0,0.0,0.0,0.0,0.0,0.0,2.993,2.9475,2.863,0.0,0.0,0.0,0.0,0.0,2.8514,3.0555,3.257,3.3267,3.3826,3.4167,3.4014,3.3878,0.0,0.0,0.0,0.0,0.0,0.0,3.7479,3.963,0.0,4.258,4.3387,4.3809,4.4048,0.0,0.0,4.4599,4.4599,4.3883,4.3406,4.3406,4.2769,4.2387,4.2456,4.223,4.1883,4.1419,4.0552,3.9679,3.8818,3.8762,3.9209,4.0177,4.0234,4.0177,4.0078,3.9816,3.9509,3.9188,0.0,3.768,3.726,3.6945,3.6706,3.6573,3.7234,3.7495,3.739,3.739,3.7343,3.7178,0.0,0.0,0.0,0.0,0.0,0.0,0.0,0.0,0.0,0.0,0.0,0.0,0.0,0.0,0.0,0.0,0.0,0.0,0.0,0.0,3.3076,3.3373,3.2872,3.2354,3.1833,3.1436,3.1686,3.2531,3.2672,3.3757,3.5696,3.6416,3.6443,3.5884,3.5232,3.4495,3.3807,3.3807,3.378,3.3698,0.0,0.0,0.0,0.0,0.0,0.0,0.0,0.0,0.0,0.0,0.0,0.0,0.0,0.0,0.0,2.6016,2.6504,2.7286,2.8279,3.0186,3.2126,3.3048,0.0,3.489,3.4772,3.4723,0.0,0.0,0.0,0.0,0.0,3.7252,0.0,4.0767,4.1937,4.28,4.3406,4.3497,4.3497,4.3497,4.3497,4.3424,4.3222,4.2653,4.2213,4.2029,4.1553,0.0,4.1003,4.0989,4.0537,3.9645,3.8762,3.7985,3.7319,3.6607,3.6919,3.8232,3.829,3.8261,3.8113,3.7849,3.7682,3.7557,3.6998,3.6659,3.6468,3.6105,3.5844,3.5779,3.6327,3.6502,3.6502,3.6502,3.6502,3.6417,0.0,0.0,0.0,0.0,0.0,0.0,0.0,0.0,0.0,0.0,0.0,0.0,0.0,0.0,0.0,0.0,0.0,0.0,0.0,0.0,3.2363,3.1521,3.2128,3.2468,3.2417,3.1642,3.1585,3.2313,3.2451,3.3618,3.5696,3.6257,3.6227,3.5693,3.5155,3.4495,3.3807,3.3807,3.3807,3.378,3.3577,0.0,0.0,0.0,0.0,0.0,0.0,0.0,0.0,0.0,0.0,0.0,0.0,0.0,2.5358,2.5682,2.5665,2.579,2.7375,2.9034,3.057,3.151,3.3678,3.5413,3.4839,3.5361,0.0,3.4557,0.0,0.0,0.0,3.897,4.0877,4.1075,4.2396,4.3424,4.3479,0.0,4.3497,4.3497,4.3497,4.3204,4.2451,4.2323,4.1992,4.1258,0.0,0.0,4.013,3.9453,3.8718,3.7904,3.7026,3.6546,3.649,3.6237,3.6197,3.6307,3.6307,3.6248,3.6084,3.591,3.5978,3.6328,3.5884,3.5891,3.6208,3.5949,3.5728,3.5622,3.569,3.5707,3.5707,3.5707,3.5707,3.569,0.0,0.0,0.0,0.0,0.0,0.0,0.0,0.0,0.0,0.0,0.0,0.0,0.0,0.0,0.0,0.0,0.0,0.0,0.0,3.147,3.2026,3.2568,3.2473,3.2388,3.2388,3.1619,3.1326,3.1613,3.2253,3.3304,3.477,3.5661,3.6132,3.6191,3.61,3.5769,3.519,3.4696,3.4504,3.4477,3.3872,3.3502,0.0,0.0,0.0,0.0,0.0,0.0,0.0,0.0,2.8007,2.6752,2.5784,2.5029,2.4521,2.446,2.4846,2.5558,2.6798,2.8661,3.052,3.1924,3.3583,0.0,0.0,3.5674,3.6697,3.6498,3.7062,0.0,0.0,0.0,4.0524,4.1038,4.2029,4.2928,4.3424,4.3497,4.3296,4.28,4.2745,4.2433,4.1644,4.0653,3.9937,0.0,0.0,0.0,3.7779,3.7072,3.6509,3.6141,3.5339,3.4862,3.4798,3.4174,3.4063,3.4429,3.5448,3.5859,3.5747,3.5439,3.5364,3.5403,3.4903,3.4685,3.4758,3.4423,3.4295,3.4235,3.4235,3.4523,3.4912,3.4912,3.5216,3.5622,0.0,0.0,0.0,0.0,0.0,0.0,0.0,0.0,0.0,0.0,0.0,0.0,0.0,0.0,0.0,0.0,0.0,0.0,3.0036,3.0801,3.1546,3.2324,3.2307,3.2171,3.1935,3.1224,3.097,3.119,3.2117,3.3088,3.4142,3.5217,3.5909,3.6345,3.659,3.628,3.5556,3.5057,3.4749,3.4541,3.3936,3.3577,0.0,0.0,0.0,0.0,0.0,0.0,0.0,0.0,2.7585,2.6128,2.5037,2.4451,2.412,2.3824,2.4356,2.5335,2.6569,2.8174,3.0046,3.2004,0.0,0.0,3.4916,3.6297,3.7545,3.7663,3.8151,3.8504,3.8383,0.0,0.0,0.0,4.1405,4.2121,4.2653,4.2745,4.2543,4.1992,4.1699,4.124,4.0432,3.9129,0.0,0.0,0.0,0.0,0.0,3.4731,3.4308,3.4023,3.3464,3.3125,3.3036,3.2381,3.2238,3.2622,3.3808,3.4469,3.4688,3.4319,3.4253,3.432,3.3813,3.3694,3.3778,3.3532,3.3381,3.3381,3.3322,3.3625,3.4098,3.4378,3.48,3.5273,0.0,0.0,0.0,0.0,0.0,0.0,0.0,0.0,0.0,0.0,0.0,0.0,0.0,0.0,0.0,0.0,0.0,0.0,2.77,2.9884,3.0835,3.0142,3.1495,3.1935,3.1207,3.048,3.0463,3.119,3.2055,3.2986,3.3905,3.4983,3.5682,3.6021,3.6363,3.5777,3.4521,3.4649,3.4324,3.3716,3.3633,3.3605,3.3577,0.0,0.0,0.0,0.0,0.0,0.0,0.0,2.7404,2.561,2.5059,2.4639,2.4276,2.4067,2.4302,2.4967,2.6641,2.7632,2.8814,0.0,0.0,0.0,3.5797,3.7278,3.8151,3.7619,3.8267,3.8798,3.8386,3.9112,0.0,3.99,4.0579,4.1111,4.1111,4.1111,4.1093,4.1075,4.0359,3.9551,3.8744,3.7936,0.0,0.0,0.0,0.0,0.0,3.2596,3.221,3.1403,3.1384,3.1384,3.1384,3.1206,3.1021,3.091,3.116,3.1681,3.2489,3.2283,3.2456,3.2904,3.2672,3.2957,3.3573,3.3431,3.3305,3.3237,3.3117,3.3074,3.3175,3.4061,3.4408,3.4509,0.0,0.0,0.0,0.0,0.0,0.0,0.0,0.0,0.0,0.0,0.0,0.0,0.0,0.0,0.0,0.0,0.0,0.0,2.7378,2.8085,2.8971,2.9909,3.0364,3.0791,3.119,3.0987,3.0734,3.0429,3.1196,3.2292,3.3714,3.4099,3.5077,3.6427,3.6622,3.6397,3.587,3.5411,3.4883,3.436,3.3824,3.3549,3.3452,0.0,0.0,0.0,0.0,0.0,0.0,0.0,0.0,0.0,2.5329,2.4879,2.463,2.44,2.4589,2.5178,2.685,2.7834,0.0,3.2043,0.0,0.0,0.0,3.7755,0.0,0.0,3.942,3.9481,3.8495,3.862,0.0,3.979,4.0102,4.0267,4.0267,4.0267,3.9845,3.8689,3.8358,3.7643,3.6248,0.0,0.0,0.0,0.0,0.0,0.0,3.1219,3.0797,3.0558,3.0558,3.0558,3.0558,3.0367,3.0432,3.0736,2.9946,3.0211,3.1461,3.1688,3.1849,3.1981,3.1752,3.181,3.1941,3.1219,3.0594,3.0074,3.0359,3.0833,3.1441,3.2157,3.28,3.3433,0.0,0.0,0.0,0.0,0.0,0.0,0.0,0.0,0.0,0.0,0.0,0.0,0.0,0.0,0.0,0.0,0.0,0.0,0.0,2.6953,2.7852,2.9226,2.9676,3.0123,3.0751,3.1055,3.0835,3.0108,3.0835,3.2032,3.359,3.369,3.4682,3.6426,3.6238,3.598,3.5652,3.4975,3.4422,3.3997,3.3538,3.3327,3.3316,0.0,0.0,0.0,0.0,0.0,0.0,0.0,0.0,0.0,2.597,2.5481,2.523,2.5075,2.5214,2.5772,2.7404,2.8467,0.0,3.2713,3.4523,3.6042,3.7603,0.0,0.0,0.0,3.9217,3.9118,3.7941,3.7831,0.0,3.8401,3.8469,3.8469,3.8469,3.8175,3.7588,3.6615,3.5936,3.5165,0.0,0.0,0.0,0.0,0.0,0.0,0.0,2.9035,2.8778,2.8778,2.8778,2.8925,2.9237,2.9047,2.9228,2.9773,2.9124,2.9208,3.0003,3.0709,3.1192,3.1428,3.1006,3.0811,3.076,2.9753,2.9047,2.8598,2.8702,2.919,2.9887,3.0635,3.1446,3.2255,0.0,0.0,0.0,0.0,0.0,0.0,0.0,0.0,0.0,0.0,0.0,0.0,0.0,0.0,0.0,0.0,0.0,0.0,0.0,0.0,2.723,2.8285,2.9315,2.9945,3.0133,3.0813,3.083,3.0171,3.0869,3.2009,3.359,3.359,3.4516,3.6148,3.5459,3.4886,3.4449,3.3828,3.3312,3.2943,3.2943,3.3037,3.3129,3.3086,0.0,0.0,0.0,0.0,0.0,0.0,0.0,0.0,2.686,2.6317,2.6087,2.5947,2.609,2.6616,2.8172,2.9411,3.0851,3.3282,3.5232,0.0,3.8459,3.8695,3.8521,3.8098,0.0,3.7998,3.6998,3.6906,3.682,3.6274,3.6174,3.6119,3.5973,3.5293,3.4734,3.4679,3.3385,3.2467,0.0,0.0,0.0,0.0,0.0,0.0,0.0,2.6612,2.6612,2.6612,2.6612,2.6961,2.7677,2.7547,2.7779,2.8306,2.8576,2.8589,2.8454,2.9568,3.0404,3.0954,3.0294,2.9956,2.98,2.8812,2.8322,2.8097,2.772,2.7881,2.8474,2.9394,3.0178,3.0961,0.0,0.0,0.0,0.0,0.0,0.0,0.0,0.0,0.0,0.0,0.0,0.0,0.0,0.0,0.0,0.0,0.0,0.0,0.0,0.0,2.5767,2.7616,2.9403,3.036,3.0418,3.0649,3.0747,3.058,3.0988,3.1952,3.3448,3.3448,3.4347,3.5827,3.5104,3.4621,3.422,3.3554,3.3038,3.2623,3.2672,3.2621,3.2504,3.2702,3.2752,0.0,0.0,0.0,0.0,0.0,0.0,0.0,2.7665,2.713,2.6879,2.683,2.6835,2.7146,2.8715,2.9883,0.0,3.349,3.5867,3.7585,3.7347,3.7236,3.74,3.7959,3.7817,3.745,3.689,3.6499,3.6024,3.5394,3.5265,3.4853,3.3587,3.3238,3.2889,3.2247,3.1861,0.0,0.0,0.0,0.0,0.0,0.0,0.0,2.6631,2.6612,2.6612,2.6612,2.6612,2.6686,2.6869,2.7273,2.7508,0.0,2.7809,2.8128,2.8485,2.9074,2.9369,2.9448,2.9296,2.8854,2.8207,2.7821,2.7094,2.6297,2.6383,2.6475,2.6609,2.787,2.8513,2.8898,0.0,0.0,0.0,0.0,0.0,0.0,0.0,0.0,0.0,0.0,0.0,0.0,0.0,0.0,0.0,0.0,0.0,0.0,0.0,0.0,2.4879,2.723,2.8876,2.9896,3.0359,3.0443,3.0485,3.0493,3.0773,3.1707,3.3339,3.3364,3.4058,3.5152,3.4406,3.3826,3.3333,3.2676,3.2121,3.162,3.1672,3.1689,3.1654,3.1874,3.2219,3.2702,3.3111,0.0,0.0,0.0,0.0,0.0,0.0,0.0,2.7888,2.7852,2.7776,2.8018,2.9429,0.0,0.0,3.4795,0.0,3.7062,3.6948,3.6408,3.6007,3.6488,3.6392,3.5972,3.5184,3.4865,3.4404,3.3396,3.324,3.2947,3.2155,3.1366,3.0723,3.0301,2.9567,0.0,0.0,0.0,0.0,0.0,0.0,2.586,2.5474,2.5456,2.5456,2.5456,2.5456,2.564,2.6025,2.6319,2.6568,2.6784,2.7157,2.7514,2.7868,2.868,2.9047,2.8958,2.8586,2.8161,2.7666,2.6992,2.6303,2.5621,2.5449,2.5487,2.5683,2.6339,2.6894,2.7384,0.0,0.0,0.0,0.0,0.0,0.0,0.0,0.0,0.0,0.0,0.0,0.0,0.0,0.0,0.0,0.0,0.0,0.0,0.0,0.0,0.0,2.6608,2.7764,2.8753,2.9583,2.9642,2.9711,2.9763,3.0095,3.1124,3.2815,3.3204,3.3838,3.4558,3.377,3.3151,3.2661,3.1718,3.1048,3.0644,3.0524,3.0525,3.0681,3.0974,3.1663,3.2538,3.313,3.355,3.3566,3.2195,0.0,0.0,0.0,0.0,2.8926,2.8795,2.8662,2.8811,2.9976,3.0986,3.2494,3.5754,3.6268,0.0,3.6478,3.5632,3.4694,3.4463,3.4499,3.4248,3.3288,3.3039,3.2545,3.1287,3.1057,3.0991,3.0791,2.9641,2.8737,2.859,0.0,0.0,0.0,0.0,0.0,0.0,0.0,2.4887,2.4245,2.419,2.419,2.419,2.419,2.452,2.5201,2.5267,2.5546,2.6005,2.6466,2.6676,2.6774,2.7794,2.8384,2.8552,2.7739,2.7348,2.7157,2.6184,2.5558,2.5239,2.4744,2.4766,2.5078,2.5114,2.5555,2.6224,0.0,0.0,0.0,0.0,0.0,0.0,0.0,0.0,0.0,0.0,0.0,0.0,0.0,0.0,0.0,0.0,0.0,0.0,2.0181,0.0,0.0,2.4717,2.6026,2.6829,2.7071,2.7375,2.7604,2.7705,2.8712,2.9807,3.1,3.2656,3.3905,3.4789,3.4021,3.3629,3.339,3.1397,3.0512,3.0394,2.9797,2.9575,2.9696,3.0732,3.1313,3.1742,3.3071,3.3821,3.3939,3.2638,3.2281,0.0,0.0,0.0,2.9544,2.942,2.9095,2.8919,2.9618,0.0,3.2909,0.0,3.4869,3.517,0.0,0.0,3.3874,0.0,3.2796,3.3162,3.3122,3.2119,3.103,3.021,3.0159,2.9716,2.8393,2.8054,2.7695,2.6998,0.0,0.0,0.0,0.0,0.0,0.0,2.474,2.43,2.4208,2.419,2.419,2.419,2.419,2.4245,2.4355,2.4992,2.5293,2.5256,2.5536,2.554,2.5288,2.5278,2.5876,2.6875,2.6152,2.5648,2.5324,2.4947,2.4466,2.3966,2.4234,2.4197,2.4079,2.4653,2.4926,2.5181,0.0,0.0,0.0,0.0,0.0,0.0,0.0,0.0,0.0,0.0,0.0,0.0,0.0,0.0,0.0,1.7245,1.7655,1.8382,1.9645,2.1175,2.2544,2.3746,2.4716,2.553,2.6243,2.6481,2.6701,2.6961,2.7976,2.8903,2.9807,3.2127,3.3558,3.415,3.3833,3.3441,3.2923,3.1564,3.0489,2.9651,2.9452,2.9197,2.8987,2.963,3.0614,3.1793,3.2703,3.3647,3.4233,3.295,3.2647,3.249,3.0897,0.0,0.0,0.0,2.9302,2.909,2.9562,3.1034,3.2637,0.0,3.3844,3.4038,3.3723,3.337,3.2798,3.1717,3.1335,3.1207,3.1196,3.0694,2.989,2.8699,2.8567,2.8239,2.7181,2.672,2.6319,2.597,0.0,0.0,0.0,0.0,0.0,0.0,2.4392,2.419,2.419,2.419,2.419,2.419,2.419,2.419,2.419,2.4519,2.4782,2.5049,2.5004,2.5059,2.5171,2.4837,2.4972,2.5392,2.5007,2.4629,2.4263,2.3972,2.3567,2.313,2.3496,2.3488,2.3314,2.3934,2.4131,2.4264,0.0,0.0,0.0,0.0,0.0,0.0,0.0,0.0,0.0,0.0,0.0,0.0,0.0,0.0,0.0,0.0,1.6832,1.7578,1.9008,1.9965,2.1086,2.254,2.3277,2.4114,2.5122,2.5334,2.5603,2.5852,2.6858,2.7719,2.8549,3.1054,3.2545,3.3119,3.3594,3.3311,3.248,3.1619,3.0421,2.9102,2.9127,2.8782,2.8285,2.8776,2.9947,3.1462,3.2093,3.3071,3.3866,3.2766,3.2546,3.2463,3.1014,3.0192,0.0,0.0,0.0,2.8649,0.0,0.0,3.166,3.2202,3.2538,3.2759,0.0,0.0,3.181,0.0,3.0381,2.9839,2.951,2.9394,2.8943,2.7561,2.7417,2.7167,2.6282,2.5727,2.5329,2.5127,0.0,0.0,0.0,0.0,0.0,0.0,2.419,2.419,2.419,2.419,2.419,2.419,2.419,2.419,2.417,2.4113,2.4285,2.4693,2.4408,2.4438,2.4696,2.4328,2.402,2.3826,2.3873,2.3653,2.3224,2.29,2.2476,2.2115,2.2513,2.2546,2.2443,2.2894,2.3074,2.3158,0.0,0.0,0.0,0.0,0.0,0.0,0.0,0.0,0.0,0.0,0.0,0.0,1.573,1.5856,1.5904,1.5931,1.6171,1.6786,1.7897,1.8727,1.9658,2.0696,2.152,0.0,2.2841,2.326,2.3496,2.3554,2.4652,2.5731,2.6848,2.8946,3.0522,3.1748,3.3356,3.3527,3.2525,3.1133,2.9982,2.9051,2.8613,2.8085,2.7648,2.8687,2.9444,3.0041,3.1158,0.0,0.0,0.0,0.0,0.0,0.0,2.9616,2.8602,0.0,0.0,0.0,0.0,2.8407,0.0,2.9944,3.0603,3.1265,0.0,0.0,3.1137,3.0406,3.0161,2.9832,2.8919,2.859,2.819,2.7363,2.7319,2.6897,2.547,2.534,2.5127,2.4355,0.0,0.0,0.0,0.0,0.0,0.0,2.419,2.419,2.419,2.419,2.419,2.419,2.419,2.417,2.4094,2.3917,2.3831,2.3858,2.3593,2.3336,2.31,2.2771,2.24,2.2078,2.258,2.2492,2.197,2.1501,2.1014,2.0652,2.1258,2.1388,2.1307,2.1514,2.1609,2.1704,0.0,0.0,0.0,0.0,0.0,0.0,0.0,0.0,0.0,0.0,0.0,0.0,0.0,1.5536,1.5662,1.5778,1.6009,1.6457,1.7134,1.7886,1.878,1.9773,2.0683,2.1431,2.2123,2.2495,2.2814,2.2965,2.3834,2.4702,2.5507,2.7564,2.8705,2.9132,3.1681,3.2649,3.2326,3.1479,3.0372,2.9158,2.9264,2.8627,2.7677,2.828,2.9107,0.0,0.0,0.0,0.0,0.0,0.0,0.0,0.0,0.0,0.0,0.0,0.0,0.0,0.0,0.0,0.0,2.9565,3.0059,3.0432,3.0515,3.0564,3.0369,2.958,2.9392,2.9046,2.8148,2.7858,2.7482,2.6646,2.6152,2.5497,2.4457,2.4374,2.4306,2.3974,0.0,0.0,0.0,0.0,0.0,0.0,0.0,2.4054,2.4113,2.4151,2.4151,2.4151,2.4151,2.4074,2.3917,2.3795,2.3689,2.3594,2.3383,2.3084,2.273,2.2347,2.194,2.1493,2.1247,2.1043,2.0855,2.0386,1.9967,1.9645,2.0225,2.0393,2.0436,2.102,2.1304,2.152,0.0,0.0,0.0,0.0,0.0,0.0,0.0,0.0,0.0,1.5172,0.0,0.0,0.0,0.0,1.586,1.5841,1.6056,1.6277,1.6534,1.7234,1.805,1.9056,1.9991,2.0795,2.1506,2.1935,2.217,2.2235,2.2894,2.3554,2.422,2.5773,2.6707,2.7174,2.931,3.0526,3.0965,3.0671,2.983,2.8728,2.9334,2.8771,2.763,2.8205,0.0,0.0,0.0,0.0,0.0,0.0,0.0,0.0,0.0,0.0,0.0,0.0,0.0,0.0,2.6128,0.0,0.0,0.0,0.0,2.9569,2.9667,0.0,2.9659,2.9104,2.8952,2.8667,2.7798,2.73,2.6752,2.584,2.528,2.4649,2.388,2.3792,2.3795,2.3753,0.0,0.0,0.0,0.0,0.0,0.0,0.0,0.0,2.3976,2.3996,2.3996,2.3976,2.3935,2.3813,2.3588,2.3477,2.3341,2.3194,2.2993,2.2721,2.2395,2.1994,2.1568,2.1087,2.0382,2.0039,1.9919,1.9434,1.902,1.8711,1.9044,1.9239,1.9362,2.007,2.0444,2.0696,0.0,0.0,0.0,0.0,0.0,0.0,0.0,0.0,1.5928,1.5508,0.0,0.0,0.0,0.0,0.0,1.6184,1.6256,1.6247,1.6097,1.6627,1.7446,1.8417,1.9319,2.0144,2.0944,2.1348,2.152,2.1375,2.1664,2.2145,2.2972,2.3554,2.4608,2.591,2.6401,2.723,2.8274,2.8574,2.8246,2.766,0.0,2.8339,2.7373,0.0,0.0,0.0,2.8619,2.8929,0.0,2.9285,0.0,0.0,0.0,0.0,0.0,0.0,0.0,0.0,0.0,0.0,0.0,0.0,0.0,0.0,2.8839,0.0,2.9017,2.9017,2.8998,2.87,2.7826,2.6958,2.6049,2.5028,2.4792,2.45,2.3786,2.3624,2.3566,2.3566,0.0,0.0,0.0,0.0,0.0,0.0,2.3649,2.3692,2.3692,2.3753,2.3774,2.3692,2.362,2.3463,2.3189,2.2923,2.2721,2.2565,2.2368,2.2164,2.1969,2.1628,2.1214,2.0728,1.9914,1.9471,1.92,1.8717,1.8226,1.7787,1.7787,1.7868,1.8028,1.8592,1.8898,1.9176,0.0,0.0,0.0,0.0,0.0,1.7739,1.7123,1.673,1.6504,0.0,0.0,0.0,1.6543,1.666,1.668,1.6562,1.6311,1.6197,1.6257,1.6413,1.6832,1.7534,1.8501,1.9254,1.9825,2.0459,2.0709,2.0673,2.0858,2.1198,2.1716,2.2172,2.2808,2.3611,2.4103,2.4567,2.5119,2.7226,0.0,2.7284,2.776,2.7468,0.0,0.0,0.0,0.0,0.0,2.8376,2.8712,0.0,2.8573,2.8306,0.0,0.0,0.0,0.0,0.0,0.0,2.5463,0.0,0.0,0.0,0.0,0.0,0.0,0.0,2.9085,2.9134,2.8691,2.8003,2.7153,2.6224,2.5275,2.4266,2.4006,2.3799,2.3448,2.3319,2.3206,2.3109,0.0,0.0,0.0,0.0,0.0,0.0,2.3253,2.3348,2.3553,2.3576,2.3576,2.3553,2.3301,2.3084,2.29,2.2599,2.2341,2.2164,2.1907,2.1688,2.1479,2.1055,2.063,2.02,1.9413,1.8817,1.8316,1.8094,1.7828,1.7557,1.7434,1.7475,1.7679,1.8068,1.8422,1.8822,0.0,0.0,0.0,0.0,0.0,1.8226,1.7587,1.7184,1.6943,0.0,0.0,0.0,1.7246,1.7266,1.7187,1.7021,1.6768,1.6517,1.6336,1.6424,1.6655,1.7011,1.7875,1.8578,1.9004,1.9631,2.0003,2.0067,2.0271,2.0472,2.0785,2.1202,2.1684,2.2203,2.2694,0.0,2.3392,0.0,0.0,0.0,2.6542,0.0,0.0,2.6739,2.7044,0.0,0.0,0.0,2.7812,2.771,2.7537,0.0,0.0,0.0,0.0,0.0,0.0,0.0,0.0,0.0,0.0,0.0,0.0,0.0,2.8396,2.848,2.8478,0.0,2.7772,2.7198,2.6348,2.5715,2.4988,2.3964,2.3664,2.3481,2.3265,2.3095,2.2944,2.2842,0.0,0.0,0.0,2.2816,2.2868,2.2944,2.297,2.3052,2.3247,2.3223,2.3199,2.3175,2.2841,2.2581,2.2392,2.2005,2.1715,2.1493,2.126,2.1055,2.0828,2.0512,2.01,1.9639,1.902,1.8408,1.7828,1.7598,1.7352,1.7157,1.7044,1.7115,1.7365,1.772,1.8121,1.8489,0.0,0.0,2.0892,2.0497,1.9724,1.8936,1.8132,1.7774,1.7363,0.0,1.7256,1.7686,1.8105,1.8105,1.793,1.7549,1.7432,1.7096,1.6375,1.6588,1.6711,1.6715,1.7412,1.7952,1.8363,1.9004,1.9384,1.9512,1.9823,2.0029,2.0182,2.056,2.0957,2.1313,0.0,0.0,0.0,0.0,0.0,2.3975,2.5025,2.5327,0.0,0.0,2.6455,2.6284,2.6455,2.6639,2.6768,2.6672,2.6352,0.0,0.0,0.0,0.0,0.0,2.4237,0.0,0.0,0.0,0.0,0.0,0.0,0.0,2.7789,2.7757,2.7607,0.0,2.6646,2.637,2.5629,2.5369,2.4937,2.3964,2.3642,2.3412,2.3119,2.2902,2.2738,2.2659,0.0,0.0,2.2659,2.2659,2.2659,2.2659,2.2694,2.2747,2.2799,2.2747,2.2694,2.2615,2.2292,2.201,2.1768,2.1275,2.0942,2.0761,2.0561,2.0342,2.0174,2.001,1.9639,1.9132,1.8616,1.8108,1.7598,1.7157,1.6846,1.6675,1.6675,1.6803,1.7002,1.7475,1.7855,1.8189,0.0,2.0288,2.0694,2.0753,2.0226,1.9603,1.9041,1.8607,1.8242,1.7812,1.8125,1.8555,1.8994,1.8721,1.8486,1.8398,1.7773,1.7158,1.6641,1.6454,1.6287,1.6066,1.6684,1.7134,1.7457,1.8333,1.8869,1.9093,1.9512,1.9772,2.0042,2.0233,2.0472,2.0759,2.1006,0.0,0.0,0.0,0.0,2.1913,2.3275,0.0,2.4055,2.4426,2.4839,2.5271,2.5438,2.5713,2.595,2.5697,2.547,2.5253,0.0,0.0,0.0,2.4605,0.0,0.0,0.0,0.0,0.0,0.0,0.0,0.0,2.7789,2.7783,2.7693,0.0,2.6358,2.5801,2.5558,2.4929,2.4299,2.3855,2.3642,2.3365,2.2977,2.2764,2.2579,2.2405,0.0,0.0,2.2394,2.2338,2.231,2.2377,2.2354,2.2292,2.2265,2.2237,2.2226,2.2141,2.1807,2.1554,2.1402,2.0926,2.0663,2.0561,2.0323,2.0115,2.0025,1.9551,1.9184,1.8846,1.8147,1.7639,1.7282,1.6918,1.6718,1.6675,1.6577,1.662,1.6803,1.7157,1.7447,1.7679,1.9629,1.9954,2.0336,2.0493,1.9912,1.9363,1.9183,1.8676,1.8252,1.8037,1.8379,1.8799,1.9238,1.9092,1.8965,1.8965,1.8379,1.7822,1.7402,1.6884,1.6506,1.6118,1.6352,1.6637,1.6976,1.7689,1.8344,1.8893,1.9251,1.9552,1.9926,2.0029,2.0182,2.0321,2.051,2.066,0.0,0.0,2.0845,2.0993,2.2081,0.0,2.2951,2.3318,2.3734,2.4138,2.4455,2.4752,2.5044,2.4847,2.4704,0.0,2.4144,2.3739,2.3499,0.0,2.4036,2.4434,0.0,0.0,0.0,2.7369,0.0,0.0,0.0,2.6676,2.6334,2.5669,2.5245,2.4968,2.4856,2.4487,2.4097,2.3837,2.3667,2.3399,2.2952,2.2738,2.2542,2.2338,0.0,0.0,2.2254,2.2123,2.202,2.1991,2.1911,2.1836,2.1807,2.1735,2.1675,2.1661,2.126,2.0991,2.0893,2.0512,2.0254,2.015,1.996,1.9797,1.9632,1.9236,1.8808,1.8383,1.7828,1.7393,1.7044,1.6803,1.6675,1.6577,1.6522,1.6577,1.6718,1.696,1.7157,1.7282,1.9539,1.9605,1.982,2.0164,1.9526,1.9063,1.9233,1.8636,1.8233,1.8321,1.8693,1.9125,1.9566,1.9463,1.9404,1.9404,1.9014,1.8545,1.8047,1.7484,1.6928,1.6404,1.6246,1.6362,1.6831,1.7244,1.7865,1.8744,1.904,1.9396,1.9798,1.9926,1.9978,1.9978,2.0169,2.0271,0.0,0.0,0.0,2.051,0.0,2.1541,2.1955,2.2374,2.274,2.3069,2.343,2.3697,2.3895,2.3895,2.3796,2.3622,2.3106,2.2996,0.0,0.0,0.0,0.0,0.0,0.0,0.0,0.0,0.0,2.6013,0.0,0.0,0.0,2.43,2.4247,0.0,0.0,0.0,0.0,0.0,0.0,0.0,0.0,2.2738,0.0,2.2338,0.0,0.0,2.2168,2.1945,2.1721,2.1526,2.1448,2.137,2.1308,2.1198,2.1119,2.1071,2.0697,2.0429,2.0357,2.0025,1.9812,1.969,1.9617,1.9435,1.9176,1.8898,1.8461,1.7908,1.7557,1.7199,1.6846,1.6718,1.662,1.6522,1.6522,1.6577,1.6675,1.6791,1.6876,1.696,1.9198,1.9208,1.9354,1.997,1.9775,1.9548,1.9481,1.9243,1.9214,1.9615,1.9879,2.0167,2.0708,2.0164,1.9844,1.9844,1.9453,1.8867,1.8057,1.792,1.75,1.6689,1.6414,1.6477,1.6964,1.7123,1.7689,1.8614,1.9028,1.9396,1.9798,1.9811,1.9811,1.9811,1.985,0.0,0.0,0.0,1.9901,0.0,2.008,2.0586,0.0,2.1313,2.1793,2.2331,2.2309,2.2304,2.2361,0.0,2.2448,2.2391,0.0,2.2217,2.2212,2.1669,0.0,0.0,0.0,0.0,0.0,0.0,2.4683,0.0,2.465,0.0,2.4773,2.422,0.0,0.0,0.0,0.0,0.0,0.0,0.0,0.0,2.2977,2.279,2.2579,2.2338,2.2225,0.0,0.0,2.1675,2.1293,2.0925,2.0893,2.0778,2.0613,2.0595,2.0512,2.0311,2.0224,2.003,1.9782,1.9596,1.9398,1.9281,1.9199,1.9064,1.886,1.85,1.8147,1.772,1.724,1.6918,1.6718,1.6577,1.6522,1.6522,1.6522,1.6522,1.6522,1.6663,1.6718,1.6761,1.8998,1.8942,1.9153,1.9754,1.9462,1.9243,1.9451,1.9422,1.9707,2.067,2.0803,2.1031,2.158,2.1332,2.1055,2.1055,0.0,1.9766,0.0,0.0,1.7734,1.7139,1.6752,1.6636,1.6857,1.7191,1.7621,1.8321,1.8815,1.9291,1.9708,1.9759,1.9798,1.9798,1.9798,0.0,1.9798,0.0,1.9798,0.0,0.0,0.0,0.0,2.0723,2.1215,2.1663,2.129,2.1379,2.1584,0.0,2.1268,0.0,0.0,0.0,0.0,2.0123,0.0,0.0,0.0,0.0,0.0,0.0,0.0,0.0,2.3753,0.0,2.3802,0.0,0.0,0.0,0.0,0.0,0.0,0.0,2.3692,0.0,0.0,0.0,2.2605,0.0,0.0,0.0,0.0,0.0,0.0,0.0,2.0527,2.046,2.0407,2.0323,2.0204,2.008,1.9854,1.9624,1.9406,1.9199,1.9049,1.8959,1.8936,1.8784,1.85,1.8333,1.7935,1.7393,1.7115,1.6833,1.6577,1.6522,1.6522,1.6522,1.6522,1.6522,1.6522,1.6565,1.662,1.6718,1.9008,1.8808,1.8843,1.9452,1.909,1.9028,1.9627,1.9975,2.0606,2.1662,2.1794,2.1888,2.2299,2.2132,0.0,0.0,2.1191,2.0566,0.0,0.0,1.8174,1.7744,1.7197,1.6938,1.7165,1.7269,1.7665,1.8256,1.8672,1.9093,1.9565,1.9656,1.9759,1.9798,0.0,1.9798,1.9798,0.0,1.9798,1.9798,1.9798,1.9862,1.9978,2.0372,2.0716,2.0858,2.0288,2.0252,2.0418,1.9989,1.9978,0.0,1.957,0.0,1.9302,0.0,0.0,0.0,1.9633,0.0,0.0,0.0,0.0,0.0,0.0,0.0,0.0,0.0,0.0,0.0,0.0,0.0,0.0,0.0,0.0,2.3422,0.0,2.279,0.0,0.0,0.0,0.0,0.0,0.0,0.0,0.0,0.0,2.0166,2.0096,2.0025,1.9884,1.972,1.9457,1.9184,1.8855,1.8693,1.8553,1.8422,1.8422,1.8305,1.8028,1.7975,1.7625,1.7115,1.696,1.6735,1.6522,1.6522,1.6522,1.6522,1.6522,1.6522,1.6565,1.6565,1.662,1.6761,1.9341,1.8741,1.8414,1.8761,1.8818,1.9163,2.0232,2.1295,2.2142,2.2638,2.2945,0.0,0.0,0.0,0.0,0.0,0.0,2.1025,2.0576,0.0,1.9053,0.0,0.0,1.7605,0.0,1.7532,1.7653,1.8578,1.8588,1.8893,1.942,1.9565,1.9656,1.9798,1.9798,1.9798,1.9798,1.9798,1.9798,1.9798,1.9798,1.9798,1.985,0.0,2.0073,1.9625,1.9265,0.0,0.0,1.8465,1.8452,0.0,0.0,0.0,0.0,0.0,0.0,0.0,0.0,0.0,0.0,1.8912,0.0,0.0,0.0,0.0,2.218,0.0,0.0,0.0,0.0,0.0,0.0,0.0,0.0,0.0,0.0,0.0,0.0,0.0,0.0,0.0,0.0,0.0,0.0,0.0,1.9797,0.0,1.9611,1.9626,1.9443,1.9031,1.8912,1.8592,1.8028,1.7908,1.776,1.7557,1.7557,1.7516,1.7434,1.7282,1.7115,1.6876,1.6761,1.662,1.6522,1.6522,1.6522,1.6522,1.6522,1.6577,1.6675,1.6675,1.6761,1.6931,1.9473,1.9008,1.8741,1.8942,0.0,1.9369,2.1073,2.2005,2.2983,0.0,2.4106,0.0,0.0,2.3493,2.3027,0.0,0.0,2.1777,2.1055,2.0185,0.0,0.0,0.0,1.7789,0.0,0.0,1.7617,1.8013,1.8246,1.8667,1.9146,1.946,1.9656,1.9798,0.0,1.9798,0.0,0.0,0.0,0.0,0.0,1.9798,1.9798,0.0,1.9724,1.9274,1.8806,1.8377,0.0,1.7574,1.7529,1.7613,1.7613,1.7613,1.7573,1.7376,1.7323,0.0,0.0,0.0,1.7828,1.8094,0.0,0.0,0.0,0.0,0.0,0.0,0.0,0.0,0.0,0.0,0.0,0.0,0.0,0.0,0.0,0.0,0.0,0.0,0.0,0.0,0.0,0.0,0.0,0.0,1.9726,0.0,1.9611,1.9538,1.9317,1.8993,1.876,1.8383,1.7868,1.7679,1.7516,1.7323,1.7323,1.724,1.7115,1.7073,1.696,1.6761,1.6718,1.662,1.6522,1.6522,1.6522,1.6522,1.6522,1.6577,1.6718,1.6803,1.7015,1.7308,2.0148,1.9853,1.9526,1.9193,1.9343,2.0054,2.1962,2.2961,2.3937,0.0,2.523,0.0,2.4672,0.0,2.3613,0.0,2.2754,2.2217,2.1514,2.0488,0.0,1.8896,1.8311,0.0,0.0,0.0,0.0,0.0,0.0,1.8278,1.8774,1.9251,1.9552,1.9759,0.0,1.9798,1.9798,1.9798,1.9798,0.0,0.0,1.9698,0.0,0.0,1.9246,1.8753,0.0,1.7765,1.735,1.6948,1.6863,1.6947,1.6947,1.6947,1.6947,1.6947,1.6947,1.6947,1.6947,1.7073,0.0,1.7462,1.7881,0.0,1.8948,0.0,0.0,0.0,0.0,0.0,0.0,0.0,0.0,0.0,0.0,0.0,0.0,2.2487,0.0,0.0,0.0,0.0,0.0,0.0,0.0,1.9726,1.969,1.9654,0.0,0.0,1.9116,1.8711,1.8319,1.7908,1.7421,1.7227,1.7018,1.6905,1.6905,1.6863,1.682,1.682,1.6748,1.6633,1.6633,1.6577,1.6522,1.6522,1.6522,1.6522,1.6522,1.662,1.6803,1.696,1.7337,1.7868,2.1207,2.1185,0.0,0.0,2.0183,0.0,0.0,0.0,2.5098,0.0,2.604,2.5809,2.505,2.4257,2.3613,2.3174,2.2754,2.2334,2.1914,2.0644,0.0,0.0,1.8467,1.8076,1.8269,0.0,0.0,0.0,0.0,0.0,1.8278,1.8922,1.9344,1.9617,1.9759,0.0,1.9798,1.9798,1.9798,1.9798,1.9773,1.9472,1.897,1.892,1.8618,1.8091,1.7564,1.7011,1.6522,1.6522,1.6522,1.6522,1.6522,1.6522,1.6522,1.6522,1.6522,1.6522,1.6522,1.662,1.6761,1.6921,0.0,0.0,0.0,0.0,1.9045,0.0,0.0,0.0,0.0,0.0,0.0,0.0,0.0,0.0,0.0,0.0,0.0,0.0,0.0,0.0,0.0,2.041,2.0166,1.9762,1.9726,1.9617,0.0,0.0,1.8836,1.8242,1.7733,1.7227,1.6723,1.6479,1.6392,1.6392,1.6392,1.6436,1.6522,1.6522,1.6522,1.6522,1.6522,1.6522,1.6522,1.6522,1.6522,1.6522,1.6522,1.6693,1.7044,1.7199,1.7787,1.8553,2.1598,2.2286,2.2849,0.0,2.2429,2.2548,0.0,0.0,0.0,0.0,2.583,2.5583,2.5118,2.4346,2.3613,2.3174,2.2754,0.0,0.0,0.0,0.0,1.9307,1.8467,1.8008,1.8076,1.7427,1.7222,1.7513,0.0,0.0,1.8159,1.8762,0.0,0.0,0.0,0.0,1.9798,1.9798,1.9798,1.9773,1.9384,1.9096,1.8883,0.0,1.7714,1.7576,1.7438,1.7011,1.6522,1.6522,1.6522,1.6522,1.6522,1.6522,1.6522,1.6522,1.6522,1.6522,1.6522,1.662,1.6718,1.6748,1.6918,1.7115,0.0,0.0,0.0,0.0,0.0,0.0,0.0,0.0,0.0,0.0,0.0,0.0,0.0,0.0,0.0,2.2822,0.0,0.0,0.0,2.0646,2.0323,2.003,1.9869,1.9705,1.9574,0.0,0.0,1.8242,1.7611,1.7018,1.6552,1.6362,1.6231,1.6231,1.6362,1.6436,1.6522,1.6522,1.6522,1.6522,1.6522,1.6522,1.6522,1.6522,1.6522,1.6522,1.6522,1.685,1.7434,1.7868,1.8305,1.8784,2.2798,2.3607,0.0,2.4442,0.0,0.0,2.4075,2.5074,0.0,2.5967,2.5846,0.0,2.4927,2.4206,2.3535,2.292,2.2646,0.0,2.1357,0.0,0.0,1.9033,1.8359,1.793,1.7744,1.7135,0.0,1.692,0.0,0.0,1.7722,0.0,0.0,0.0,0.0,1.9759,1.9786,1.956,1.9321,1.9083,1.8781,1.853,0.0,1.7614,1.7225,1.6999,1.6999,1.6798,1.6522,1.6522,1.6522,1.6522,1.6522,1.6522,1.6522,1.6522,1.6522,1.6522,1.6522,1.6565,1.662,1.662,1.6663,1.6693,1.6697,1.674,1.6824,0.0,0.0,0.0,0.0,0.0,0.0,0.0,0.0,0.0,0.0,0.0,0.0,0.0,2.2963,0.0,0.0,2.0935,2.0475,2.022,1.9975,1.9777,0.0,0.0,0.0,1.7895,1.731,1.6723,1.6219,1.6057,1.6025,1.6088,1.6231,1.6392,1.6522,1.6522,1.6522,1.6522,1.6522,1.6522,1.6522,1.6522,1.6522,1.6522,1.665,1.7031,1.7516,1.8068,1.8592,1.8988,2.4355,2.5156,0.0,0.0,0.0,0.0,0.0,2.5689,0.0,2.5476,0.0,2.5533,2.4595,2.3959,2.332,2.2578,0.0,2.1777,2.0635,2.0049,1.9414,1.8601,1.8184,1.7764,1.7393,1.6894,1.6517,0.0,0.0,0.0,1.719,0.0,0.0,0.0,0.0,0.0,0.0,1.9171,1.8657,1.8191,1.8129,1.7815,1.7375,1.73,1.6961,1.6522,1.6522,1.6522,1.6522,1.6522,1.6522,1.6522,1.6522,1.6522,1.6522,1.6522,1.6522,1.6522,1.6522,1.6522,1.6522,1.6522,1.6436,1.6349,1.6238,1.612,1.6013,1.5856,1.5832,1.5884,0.0,0.0,0.0,0.0,0.0,0.0,0.0,0.0,0.0,0.0,0.0,0.0,0.0,0.0,2.0626,2.0339,2.0131,1.9827,0.0,0.0,0.0,1.7557,1.6964,1.638,1.5836,0.0,1.5792,1.5988,1.6144,1.6318,1.6522,1.6522,1.6522,1.6522,1.6522,1.6522,1.6522,1.6522,1.6522,1.6522,1.682,1.7115,1.7434,1.7988,1.8592,1.9064,2.5985,0.0,0.0,0.0,0.0,2.6416,2.5325,2.5455,2.5367,2.4771,2.4645,2.4506,2.4267,2.3339,2.2676,2.2519,2.1523,0.0,0.0,0.0,0.0,1.8643,1.79,1.7461,1.7383,1.6592,1.6264,0.0,0.0,0.0,1.7067,0.0,0.0,0.0,0.0,0.0,1.8983,1.8884,0.0,1.8166,1.7714,1.7463,1.7338,1.6861,1.6609,1.6522,1.6522,1.6522,1.6522,1.6522,1.6522,1.6522,1.6522,1.6522,1.6522,1.6522,1.6522,1.6522,1.6522,1.6522,1.6522,1.6522,1.6362,1.6188,1.5957,1.5603,1.5198,1.4823,1.4628,1.4571,1.4663,0.0,0.0,0.0,0.0,0.0,0.0,0.0,0.0,0.0,0.0,2.1439,0.0,0.0,2.0695,2.0494,2.0166,0.0,0.0,0.0,0.0,0.0,1.6921,0.0,0.0,0.0,1.5792,1.5988,1.6144,1.6318,1.6522,1.6522,1.6522,1.6522,1.6522,1.6522,1.6522,1.6522,1.6522,1.6522,1.6675,1.696,1.7282,1.7679,1.8187,1.8745,2.6523,0.0,0.0,0.0,0.0,0.0,0.0,2.4792,2.4676,2.4162,2.4196,2.3989,2.3543,2.2935,2.2334,2.1894,2.1055,2.0381,1.9932,1.9102,1.8437,1.8008,1.7598,1.7168,1.6772,1.6279,1.6017,1.5841,0.0,0.0,1.6627,0.0,0.0,1.8333,0.0,1.8367,0.0,0.0,0.0,1.7029,1.6916,1.6848,1.6734,1.6548,1.6392,1.6362,1.6436,1.6436,1.6436,1.6479,1.6522,1.6522,1.6522,1.6522,1.6522,1.6522,1.6522,1.6522,1.6522,1.6522,1.6522,1.6522,1.6362,1.6156,1.5881,1.5424,1.4971,1.4558,1.4233,1.4035,1.4176,1.4892,0.0,0.0,0.0,0.0,0.0,0.0,0.0,0.0,0.0,0.0,0.0,0.0,0.0,0.0,0.0,0.0,0.0,0.0,0.0,0.0,0.0,0.0,0.0,0.0,0.0,1.61,1.6231,1.6362,1.6522,1.6522,1.6522,1.6522,1.6522,1.6522,1.6522,1.6522,1.6522,1.6522,1.6633,1.6846,1.7086,1.7419,1.7814,1.8305,0.0,2.6679,0.0,0.0,2.6373,0.0,2.468,2.4358,2.4024,2.3667,2.3889,2.3721,2.2938,2.2685,2.2197,2.1252,2.0761,2.0197,1.9354,1.8733,1.8144,1.7468,1.7272,1.6841,1.6145,1.5977,1.5752,0.0,0.0,0.0,0.0,0.0,0.0,0.0,0.0,0.0,0.0,0.0,1.6339,1.5944,1.612,1.6175,1.6156,1.6231,1.6231,1.6156,1.6219,1.6262,1.6262,1.6349,1.6436,1.6522,1.6522,1.6522,1.6522,1.6522,1.6522,1.6522,1.6522,1.6522,1.6522,1.6522,1.6362,1.6144,1.5881,1.5468,1.5006,1.4512,1.4046,1.381,1.3884,1.4398,0.0,0.0,0.0,0.0,0.0,0.0,0.0,0.0,0.0,0.0,1.9587,0.0,0.0,0.0,0.0,0.0,0.0,0.0,0.0,0.0,0.0,1.6767,1.6259,0.0,1.621,1.6231,1.6362,1.6436,1.6522,1.6522,1.6522,1.6522,1.6522,1.6522,1.6522,1.6522,1.6522,1.6522,1.662,1.6761,1.6876,1.7183,1.7502,1.7828,0.0,0.0,0.0,0.0,0.0,0.0,2.4625,2.4368,2.3937,2.3232,2.3359,2.3384,2.2899,2.2825,2.2382,2.1268,2.0639,1.994,1.9244,1.8422,1.7845,1.7615,1.6799,1.6335,1.6125,1.5674,1.5449,0.0,0.0,1.5778,0.0,0.0,0.0,0.0,0.0,0.0,0.0,1.6169,1.5846,1.5635,1.568,1.5736,1.5836,1.5836,1.5836,1.5836,1.5836,1.5881,1.5881,1.5881,1.6132,1.6522,1.6522,1.6522,1.6522,1.6522,1.6522,1.6522,1.6522,1.6522,1.6522,1.6522,1.6436,1.6262,1.5881,1.5513,1.5085,1.4512,1.3999,1.3621,1.3658,1.4082,1.464,0.0,0.0,0.0,0.0,0.0,1.7505,1.813,0.0,0.0,0.0,1.8235,0.0,0.0,1.9376,0.0,0.0,0.0,0.0,1.7926,0.0,1.7756,1.7095,1.6971,1.6724,1.6392,1.6392,1.6436,1.6522,1.6522,1.6522,1.6522,1.6522,1.6522,1.6522,1.6522,1.6522,1.6522,1.6522,1.662,1.6718,1.696,1.724,1.7598,0.0,0.0,0.0,0.0,0.0,0.0,0.0,2.4368,2.418,2.3564,2.3533,2.3261,2.2615,2.2446,2.2066,2.1499,2.0627,1.9782,1.9094,1.8415,1.7644,1.6852,1.6495,1.6128,1.5684,1.5498,1.5283,0.0,0.0,0.0,0.0,0.0,0.0,0.0,0.0,1.5897,1.5862,1.5274,1.4968,1.4915,1.5187,1.5232,1.5175,1.5334,1.5277,1.5175,1.5334,1.5379,1.5379,1.5558,1.5824,1.6088,1.6088,1.6132,1.6207,1.6207,1.6293,1.6436,1.6436,1.6479,1.6522,1.6522,1.6436,1.6362,1.61,1.5736,1.5367,1.4926,1.4222,1.3668,1.342,1.3705,1.4186,0.0,0.0,0.0,0.0,0.0,0.0,1.6585,0.0,1.6025,0.0,1.6497,1.6942,1.7823,0.0,0.0,0.0,0.0,0.0,1.8436,0.0,1.7974,1.733,1.7285,1.6998,1.6479,1.6479,1.6479,1.6522,1.6522,1.6522,1.6522,1.6522,1.6522,1.6522,1.6522,1.6522,1.6522,1.6522,1.6522,1.662,1.6748,1.696,1.724,2.5895,0.0,2.5454,0.0,2.5115,2.4734,2.4279,2.4343,2.4284,2.3771,2.3573,2.3307,2.2569,2.2583,2.2295,2.1603,2.0956,2.0175,1.9152,1.8562,1.7708,1.6528,1.6258,0.0,1.542,1.541,1.5205,1.4785,1.4785,0.0,0.0,0.0,0.0,0.0,1.4892,1.4738,1.482,1.428,1.4082,1.4186,1.4558,1.464,1.4525,1.472,1.4674,1.4525,1.472,1.4777,1.4823,1.5006,1.5142,1.5322,1.5603,1.578,1.5856,1.5856,1.6044,1.6175,1.6219,1.6262,1.6306,1.6306,1.6262,1.6188,1.6069,1.578,1.5457,1.4971,1.4326,1.3716,1.3314,1.3515,1.381,1.3988,0.0,0.0,0.0,1.5141,0.0,0.0,1.5028,1.4892,1.4971,1.4971,1.5429,0.0,0.0,0.0,0.0,0.0,0.0,0.0,0.0,0.0,0.0,1.7626,1.725,1.6522,1.6522,1.6522,1.6522,1.6522,1.6522,1.6522,1.6522,1.6522,1.6522,1.6522,1.6522,1.6522,1.6522,1.6522,1.6522,1.6675,1.6761,1.6931,2.5895,2.5738,2.5559,2.5559,2.5211,2.4714,2.4283,2.4272,2.4179,2.3477,2.3544,2.3457,2.2841,2.3508,2.3273,2.1487,2.1652,2.1167,1.9484,1.8837,1.7988,0.0,0.0,1.573,1.541,1.541,1.5205,1.4785,0.0,0.0,1.4141,0.0,1.4141,1.3995,1.3691,1.3496,1.3498,1.3302,1.3372,1.3621,1.3763,1.3894,1.4014,1.4014,1.4014,1.4014,1.4014,1.4014,1.4014,1.4025,1.4025,1.4212,1.5187,1.5513,1.5513,1.5591,1.5591,1.5635,1.5792,1.5792,1.5792,1.5792,1.5792,1.5792,1.5715,1.5614,1.5289,1.4558,1.4197,1.3868,1.3467,1.3515,1.3621,1.3621,0.0,0.0,0.0,0.0,0.0,1.4014,1.3894,1.3858,1.4025,1.4025,0.0,0.0,0.0,0.0,0.0,0.0,0.0,1.897,1.9369,0.0,1.8204,1.8191,1.7626,1.6522,1.6522,1.6522,1.6522,1.6522,1.6522,1.6522,1.6522,1.6522,1.6522,1.6522,1.6522,1.6522,1.6522,1.6522,1.6522,1.6675,1.6675,1.6761,2.5895,2.5549,2.5295,2.5295,2.4955,2.4617,2.4397,2.4416,2.4295,2.4051,2.4181,2.4105,2.3479,2.3152,2.2889,0.0,2.2034,2.1151,0.0,1.9137,1.8197,1.6717,1.6023,1.5451,1.5103,1.4743,1.4336,1.3916,0.0,0.0,0.0,1.3368,1.3337,1.3109,1.2935,1.2818,1.2833,1.2632,1.2754,1.3007,1.3276,1.3409,1.3457,1.3552,1.3552,1.3447,1.3552,1.36,1.36,1.3705,1.3752,1.38,1.4118,1.4455,1.4743,1.4789,1.5006,1.5289,1.5289,1.5468,1.5614,1.5614,1.5614,1.5603,1.5558,1.5334,1.4903,1.4258,1.3999,1.3726,1.3258,1.3286,1.3324,1.3258,1.3392,0.0,0.0,0.0,1.36,1.36,1.3457,1.3409,1.3457,1.3447,0.0,0.0,0.0,0.0,0.0,0.0,0.0,0.0,1.953,0.0,1.8216,1.8204,1.7639,1.6522,1.6522,1.6522,1.6522,1.6522,1.6522,1.6522,1.6522,1.6522,1.6522,1.6522,1.6522,1.6522,1.6522,1.6522,1.6522,1.6534,1.6565,1.662,2.5705,2.5362,2.5112,2.5196,2.4655,2.4211,2.4181,2.4298,2.426,2.4033,2.4199,2.4181,2.3675,2.3095,0.0,2.2718,2.2049,2.1138,1.9947,1.9236,1.8239,1.6828,1.5974,1.534,1.5018,1.441,0.0,1.3506,1.335,1.3035,1.2539,1.2686,1.2494,1.2024,1.1981,1.1929,1.1809,1.1977,1.2224,1.2529,1.2852,1.3045,1.3094,1.319,1.3142,1.3094,1.319,1.319,1.3142,1.3238,1.3238,1.319,1.3238,1.3525,1.3868,1.4093,1.4373,1.4605,1.4686,1.4812,1.496,1.496,1.496,1.496,1.496,1.472,1.4362,1.3941,1.3752,1.3536,1.3172,1.3104,1.3055,1.2978,1.3007,1.3045,1.3045,0.0,0.0,0.0,0.0,0.0,0.0,1.3094,1.3322,0.0,0.0,0.0,0.0,0.0,0.0,1.9448,1.9512,0.0,1.8216,1.8204,1.7639,1.6522,1.6522,1.6522,1.6522,1.6522,1.6522,1.6522,1.6522,1.6522,1.6522,1.6522,1.6522,1.6522,1.6522,1.6522,1.6522,1.6522,1.6522,1.6522,2.5363,2.5039,2.4876,0.0,2.4325,0.0,2.3798,2.4049,2.4055,2.3569,2.378,2.3835,2.355,2.3121,2.2787,2.2482,0.0,0.0,0.0,1.9287,1.8182,1.7034,1.6032,1.529,1.4919,1.4331,1.3857,1.3467,1.3076,1.2676,1.2274,1.2175,1.1678,1.0871,1.0972,1.0871,1.0667,1.1326,1.1778,1.2076,1.248,1.2725,1.2832,1.2832,1.2832,1.2881,1.2881,1.2783,1.2676,1.2676,1.2578,1.248,1.2627,1.2735,1.2968,1.3536,1.3773,1.3763,1.3884,1.392,1.3931,1.392,1.3931,1.392,1.392,1.3847,1.3668,1.3573,1.342,1.3286,1.3075,1.2929,1.2783,1.2686,1.2529,1.248,1.248,0.0,0.0,0.0,0.0,0.0,0.0,1.293,1.3126,0.0,0.0,0.0,0.0,0.0,1.8382,1.9186,1.9356,1.9006,1.8216,1.8204,1.7639,1.6522,1.6522,1.6522,1.6522,1.6522,1.6522,1.6522,1.6522,1.6522,1.6522,1.6522,1.6522,1.6522,1.6522,1.6522,1.6522,1.6522,1.6522,1.6522,0.0,0.0,2.3714,2.4036,2.382,2.3698,2.4332,2.405,2.3908,2.421,2.3845,2.3599,2.3615,2.3121,2.2739,2.2616,2.1994,2.1269,2.0553,1.9459,1.826,1.6883,1.5807,1.4872,1.4162,1.354,1.3135,1.3027,1.293,1.2676,1.2274,1.2076,1.1528,1.0718,1.0514,1.03,1.0205,1.0557,1.1015,1.1528,1.1828,1.2076,1.2283,1.2283,1.2323,1.2431,1.2431,1.2431,1.2372,1.2372,1.2332,1.2175,1.2224,1.2274,1.2382,1.2968,1.3238,1.3314,1.3112,1.3256,1.3351,1.3256,1.3304,1.3399,1.3399,1.3208,1.2977,1.2803,1.2666,1.251,1.2372,1.2323,1.2234,1.2126,1.2076,1.2026,1.2026,1.2175,0.0,0.0,1.3046,1.3208,1.3208,1.3309,1.3262,0.0,0.0,0.0,0.0,1.6699,1.8043,1.9028,1.9356,1.9107,1.8216,1.8204,1.7639,1.6522,1.6522,1.6522,1.6522,1.6522,1.6522,1.6522,1.6522,1.6522,1.6522,1.6522,1.6522,1.6522,1.6522,1.6522,1.6522,1.6522,1.6522,1.6522,2.3081,2.2912,2.2912,2.3398,2.3171,2.3156,2.3892,2.3835,2.3814,2.3869,2.3692,2.3492,2.3381,2.3034,2.2701,2.2454,2.1628,2.0957,2.0541,1.9294,1.7965,1.676,1.569,1.4718,1.3811,1.3195,1.2881,1.2881,1.2881,1.2676,1.2274,1.2026,1.1418,1.0565,1.036,1.0095,0.9836,1.0198,1.0608,1.1124,1.1427,1.1678,1.1927,1.1927,1.1977,1.2026,1.2026,1.1977,1.1927,1.1877,1.1769,1.1669,1.1719,1.1719,1.1769,1.2076,1.2363,1.2589,1.2442,1.2442,1.255,1.2589,1.2696,1.2793,1.2793,1.2638,1.2452,1.2274,1.2126,1.1977,1.1927,1.1828,1.1719,1.1628,1.1528,1.1427,1.1427,1.1619,0.0,1.2452,1.2706,1.2922,1.3044,1.3147,1.3077,1.2812,1.3561,0.0,1.4641,1.6188,1.7501,1.8614,1.9039,1.8896,1.8216,1.7689,1.708,1.6436,1.6436,1.6392,1.625,1.6349,1.6349,1.6306,1.6392,1.6436,1.6479,1.6479,1.6522,1.6522,1.6522,1.6522,1.6522,1.6522,1.6522,1.6559,2.2189,2.2043,2.2132,2.2766,2.2529,2.2518,2.3183,2.3561,2.3641,2.3332,2.3466,2.3418,2.2958,2.2834,2.2598,2.2138,2.1128,2.0478,2.0363,1.8934,1.7648,1.6585,1.5605,1.4635,1.363,1.3165,1.2881,1.2881,1.2881,1.2676,1.2274,1.2026,1.1418,1.0454,1.036,1.0043,0.9666,0.9984,1.0352,1.0761,1.0964,1.1217,1.1418,1.1418,1.1469,1.1519,1.1519,1.1469,1.1377,1.1217,1.1065,1.0964,1.1065,1.1116,1.1116,1.1116,1.1309,1.1619,1.1669,1.1619,1.1628,1.1927,1.2076,1.2175,1.2175,1.2026,1.1877,1.1719,1.1569,1.1418,1.1418,1.1267,1.1116,1.1065,1.0863,1.071,1.071,0.0,1.1379,1.185,1.2211,1.2483,1.272,1.2718,1.2721,1.2607,1.3402,1.4001,1.4398,1.5708,1.6869,1.7802,1.8387,1.8473,1.8091,1.7036,1.6479,1.6392,1.6392,1.6219,1.5957,1.6057,1.6057,1.5944,1.6175,1.6306,1.6349,1.6392,1.6436,1.6479,1.6479,1.6479,1.6522,1.6609,1.6647,1.6735,2.0898,2.0888,2.1053,2.1604,2.1732,2.2118,2.3197,2.3226,2.32,2.3552,2.3368,2.3178,2.309,2.2558,2.2188,2.2101,2.0989,2.0202,2.0091,1.8944,1.7702,1.6418,1.5539,1.4532,1.329,1.3046,1.2881,1.2881,1.2881,1.2676,1.2274,1.2126,1.1628,1.082,1.0506,1.0138,0.9762,0.9718,0.9821,0.9976,1.0028,1.0123,1.0269,1.0269,1.0387,1.0608,1.0608,1.071,1.082,1.0608,1.0454,1.03,1.0233,1.0226,1.0226,1.0226,1.0174,1.0182,1.0549,1.0761,1.0972,1.1477,1.1528,1.1477,1.1628,1.1276,1.0871,1.0659,1.0438,1.0269,1.0269,1.0226,1.0174,1.0072,1.002,0.9976,0.9976,0.0,1.1003,1.1527,1.2074,1.2405,1.2396,1.2485,1.2447,1.2212,1.2803,1.327,1.357,1.4967,1.5907,1.624,1.7484,1.7947,1.7513,1.6848,1.6479,1.6392,1.6275,1.61,1.5836,1.5736,1.568,1.568,1.5724,1.5856,1.6076,1.6076,1.6219,1.6436,1.6436,1.6436,1.6572,1.7074,1.725,1.7325,2.0518,2.0566,2.073,2.1035,2.1323,2.1715,2.232,2.2468,2.2603,2.2834,2.2813,2.2714,2.2714,2.2305,2.186,2.1564,2.0686,2.0,1.9624,1.859,1.7485,1.6233,1.5401,1.4443,1.3324,1.3104,1.3036,1.3036,1.2929,1.2783,1.2529,1.2382,1.1977,1.1326,1.1015,1.0608,1.0146,0.9932,0.9836,0.9777,0.9718,0.9718,0.9762,0.9762,0.9873,0.9984,0.9984,1.0035,1.0087,0.9932,0.9829,0.9777,0.9718,0.9666,0.9666,0.9666,0.971,0.9814,0.9925,1.0146,1.0411,1.071,1.0863,1.0972,1.1074,1.0718,1.036,1.0198,0.9932,0.9666,0.9666,0.9503,0.9351,0.9414,0.9388,0.0,0.0,0.998,1.0526,1.1032,1.1371,1.1592,1.1816,1.1868,1.1921,1.1904,1.2412,1.2842,1.317,1.418,1.4832,1.5079,1.6609,1.7248,1.6759,1.6573,1.6306,1.5988,1.5869,1.5614,1.5165,1.513,1.5177,1.5289,1.5314,1.5576,1.5982,1.5945,1.6215,1.6707,1.6796,1.7072,1.7451,1.7727,1.7827,1.7903,2.0352,2.041,2.0426,2.0525,2.0793,2.1044,2.1263,2.1615,2.194,2.191,2.2099,2.2175,2.2116,2.1751,2.1275,2.0714,2.0177,1.9599,1.8919,1.8057,1.7229,1.6322,1.5334,1.4361,1.3525,1.3296,1.3172,1.3113,1.2978,1.2881,1.2676,1.2578,1.2274,1.1828,1.1578,1.1175,1.0667,1.0257,0.9999,0.9792,0.9569,0.9465,0.9465,0.9413,0.9413,0.9465,0.9465,0.9465,0.9465,0.9361,0.9316,0.9309,0.9256,0.9263,0.9263,0.9263,0.9413,0.9562,0.951,0.9681,0.9844,1.0043,1.0249,1.0454,1.0454,1.0198,0.994,0.9792,0.9472,0.9204,0.9152,0.8891,0.8743,0.8805,0.0,0.0,0.0,0.9545,0.9996,1.0405,1.0559,1.0778,1.1081,1.1088,1.1256,1.1545,1.2076,1.251,1.2929,1.3494,1.3978,1.4384,1.589,1.6516,1.6156,1.6275,1.6088,1.5591,1.5468,1.5108,1.4523,1.4547,1.466,1.4855,1.4926,1.5321,1.598,1.5893,1.6346,1.7091,1.7217,1.7675,1.8229,1.8355,1.8392,1.848,1.9951,1.9961,1.9899,1.9687,1.9768,1.9958,2.0318,2.0731,2.1065,2.1135,2.1439,2.1564,2.1211,2.0747,2.0222,1.9742,1.9197,1.8631,1.793,1.7361,1.7006,1.6834,1.5314,1.423,1.3773,1.3621,1.342,1.317,1.3113,1.2929,1.2676,1.2686,1.2529,1.2224,1.1977,1.1628,1.1226,1.0608,1.0138,0.9762,0.9361,0.9159,0.9008,0.891,0.8956,0.9061,0.9061,0.9113,0.9211,0.9061,0.9008,0.9008,0.8857,0.8857,0.8857,0.8857,0.8857,0.891,0.9159,0.9263,0.9316,0.9569,0.9666,0.9666,0.9666,0.9465,0.9211,0.9113,0.8844,0.8626,0.8474,0.8421,0.8267,0.8117,0.0,0.0,0.844,0.8999,0.9373,0.9506,0.9918,1.0187,1.0217,1.0272,1.0538,1.1124,1.1628,1.2175,1.2676,1.3084,1.36,1.4373,1.5267,1.5804,1.5988,1.6032,1.5856,1.5591,1.5289,1.488,1.443,1.415,1.4217,1.4432,1.445,1.4992,1.5919,1.6048,1.657,1.74,1.7533,1.7809,1.8267,1.8781,1.892,1.9045,1.9473,1.9531,1.9458,1.9231,1.9314,1.9459,1.951,1.9767,1.9977,2.0172,2.0484,2.0475,2.0104,1.981,1.9436,1.8976,1.8414,1.7909,1.7445,1.7,1.6543,1.6045,1.5269,1.4743,1.4501,1.4129,1.3847,1.3563,1.3286,1.3104,1.2929,1.2881,1.2735,1.2529,1.2323,1.2026,1.1628,1.1167,1.0651,1.0138,0.9718,0.9413,0.9113,0.8956,0.891,0.8857,0.8857,0.891,0.8962,0.891,0.8857,0.8857,0.8804,0.8804,0.8804,0.8804,0.8804,0.8804,0.891,0.9008,0.9113,0.9211,0.9309,0.9361,0.9361,0.9211,0.9061,0.9008,0.8639,0.8372,0.8324,0.7829,0.748,0.7524,0.0,0.7567,0.7949,0.8617,0.9211,0.942,0.9752,1.0137,1.048,1.0457,1.0682,1.1366,1.171,1.2076,1.2529,1.2987,1.3457,1.3999,1.4501,1.5006,1.557,1.5647,1.5457,1.5062,1.4686,1.4269,1.3752,1.361,1.3828,1.4408,1.4276,1.481,1.585,1.5953,1.657,1.7579,1.793,1.8499,1.907,1.9384,1.951,1.9535,1.9023,1.9082,1.9017,1.8645,1.8785,1.8901,1.8849,1.8998,1.9187,1.9341,1.9594,1.9544,1.8973,1.8884,1.8555,1.7975,1.76,1.7181,1.6855,1.6497,1.604,1.5504,1.5334,1.5153,1.5017,1.464,1.4269,1.3905,1.3515,1.3238,1.3085,1.2978,1.2832,1.2783,1.2627,1.2382,1.2076,1.1678,1.1167,1.0659,1.019,0.9769,0.9361,0.9211,0.9061,0.8903,0.8956,0.9008,0.9008,0.9061,0.9061,0.9061,0.9061,0.9008,0.8956,0.891,0.8857,0.8857,0.8804,0.8857,0.8956,0.8956,0.9008,0.9061,0.9061,0.9008,0.8903,0.8903,0.8551,0.8239,0.8087,0.7501,0.7052,0.7097,0.7012,0.7104,0.7497,0.8236,0.8854,0.9214,0.9618,1.002,1.0516,1.0578,1.0872,1.1635,1.193,1.2244,1.2679,1.2978,1.3276,1.3621,1.3847,1.4345,1.5025,1.5143,1.5017,1.4662,1.428,1.3847,1.3409,1.3228,1.3502,1.4103,1.4132,1.4694,1.5714,1.5999,1.6744,1.7798,1.8331,1.8973,1.9604,1.9759,1.9798,1.9798,1.8633,1.8633,1.8496,1.8086,1.8144,1.8269,1.8269,1.8607,1.8808,1.8808,1.8998,1.8778,1.7988,1.7883,1.7507,1.6654,1.657,1.6427,1.5997,1.5758,1.5578,1.5492,1.5513,1.5424,1.5312,1.5051,1.4674,1.4222,1.38,1.344,1.3085,1.2978,1.2881,1.2881,1.2783,1.2627,1.248,1.2076,1.1669,1.1267,1.0659,1.019,0.9762,0.9517,0.9309,0.9211,0.9361,0.9413,0.9413,0.9562,0.9614,0.9614,0.9614,0.951,0.9361,0.9061,0.9008,0.8956,0.8857,0.8804,0.8804,0.8804,0.8804,0.8804,0.8804,0.8804,0.8752,0.8626,0.853,0.8335,0.7723,0.7405,0.7144,0.6647,0.6681,0.6806,0.7134,0.7782,0.834,0.873,0.9266,0.9706,1.0054,1.0422,1.0986,1.1824,1.2223,1.2608,1.3063,1.3115,1.3123,1.3218,1.3478,1.3838,1.4393,1.4529,1.4592,1.4592,1.4057,1.3668,1.342,1.321,1.3264,1.3525,1.3955,1.4656,1.5546,1.6269,1.7179,1.8147,1.8625,1.9105,1.9617,1.9759,1.9798,1.9798,1.8193,1.8193,1.8154,1.8037,1.8076,1.8076,1.8076,1.8144,1.8212,1.8212,1.8135,1.7855,1.7345,1.7114,1.6757,1.6185,1.6134,1.5997,1.5745,1.5099,1.486,1.5152,1.5383,1.5468,1.5424,1.5198,1.488,1.4558,1.4104,1.3678,1.3286,1.3113,1.2978,1.2881,1.2881,1.2783,1.2627,1.2421,1.2076,1.1678,1.1217,1.071,1.019,0.994,0.9725,0.9614,0.9666,0.9762,0.9814,0.9865,0.9865,0.9865,0.9865,0.9762,0.9666,0.9458,0.9316,0.9106,0.8956,0.8857,0.8804,0.8804,0.8804,0.8804,0.8804,0.8804,0.8752,0.8626,0.8373,0.8062,0.7714,0.7087,0.6565,0.6375,0.6248,0.6284,0.6613,0.7461,0.828,0.885,0.9479,1.0138,1.0847,1.0996,1.1378,1.22,1.2703,1.2996,1.3148,1.3365,1.3561,1.3688,1.3844,1.413,1.4469,1.4474,1.4599,1.4816,1.4163,1.3771,1.3601,1.3165,1.3165,1.3525,1.3955,1.4493,1.5215,1.6054,1.6797,1.7512,1.817,1.8815,1.9344,1.9552,1.9708,1.9798,1.8008,1.8008,1.8008,1.8008,1.8008,1.8008,1.8008,1.8008,1.7949,1.7783,1.7595,1.7323,1.671,1.6526,1.6188,1.576,1.5788,1.5713,1.5361,1.5036,1.48,1.4877,1.518,1.5323,1.5345,1.5142,1.4915,1.4789,1.4326,1.3858,1.3467,1.321,1.3036,1.2881,1.2881,1.2832,1.2774,1.2627,1.2431,1.2076,1.1728,1.1267,1.0812,1.0557,1.0352,1.0233,1.0336,1.0438,1.0533,1.0635,1.0635,1.0584,1.0533,1.0336,1.0138,0.988,0.9621,0.9316,0.9211,0.9008,0.8857,0.8857,0.8857,0.8804,0.8804,0.8804,0.8785,0.8723,0.8478,0.8178,0.7712,0.7135,0.6544,0.6133,0.6017,0.6086,0.6354,0.7335,0.8247,0.8952,0.9594,1.0301,1.1052,1.1185,1.1616,1.2465,1.2883,1.3117,1.3173,1.3314,1.344,1.3539,1.3702,1.4003,1.4404,1.445,1.457,1.4819,1.4304,1.3929,1.3709,1.3302,1.3271,1.3525,1.3955,1.4439,1.5048,1.5883,1.657,1.7179,1.7941,1.859,1.9133,1.95,1.9656,1.9798,1.8008,1.8008,1.8008,1.8008,1.8008,1.8008,1.8008,1.7978,1.7812,1.7432,1.7314,1.6963,1.6152,1.6025,1.585,1.5391,1.5546,1.5504,1.5041,1.524,1.5148,1.4763,1.4903,1.5038,1.5119,1.4959,1.4903,1.4869,1.4398,1.3988,1.3573,1.3258,1.3027,1.2881,1.2881,1.2881,1.2881,1.2783,1.2627,1.248,1.2126,1.1769,1.1528,1.1276,1.1124,1.1023,1.1276,1.1377,1.1427,1.1628,1.1628,1.1469,1.1377,1.1023,1.0667,1.0352,0.994,0.9562,0.9465,0.9211,0.9008,0.9008,0.891,0.8804,0.8804,0.8831,0.8811,0.8792,0.8737,0.8491,0.7804,0.7388,0.6937,0.6152,0.6148,0.628,0.6482,0.7335,0.8242,0.8952,0.96,1.0238,1.0744,1.1115,1.1677,1.2613,1.2796,1.2898,1.3072,1.3019,1.2992,1.3048,1.3323,1.3728,1.4336,1.4562,1.4704,1.475,1.4487,1.4162,1.3787,1.3635,1.3564,1.3584,1.4014,1.4468,1.5048,1.576,1.6389,1.7011,1.771,1.8429,1.904,1.9408,1.9656,1.9811,1.8008,1.8008,1.8008,1.8008,1.8008,1.8008,1.8008,1.7734,1.749,1.7393,1.666,1.6104,1.5911,1.5482,1.5243,1.5215,1.5371,1.5439,1.5341,1.5074,1.4903,1.4934,1.465,1.4675,1.5095,1.5018,1.4887,1.4662,1.4362,1.3988,1.361,1.3324,1.3104,1.2881,1.2881,1.2881,1.2881,1.2881,1.2783,1.2627,1.2431,1.2224,1.1977,1.1778,1.1728,1.1669,1.1728,1.1828,1.1927,1.1877,1.1778,1.1619,1.1528,1.1175,1.082,1.0616,1.0205,0.9732,0.9569,0.9263,0.9008,0.9008,0.891,0.8804,0.8804,0.8985,0.9048,0.8824,0.8891,0.8816,0.8135,0.7698,0.7265,0.6749,0.6613,0.6675,0.7007,0.7657,0.8431,0.9145,0.9664,1.0238,1.0744,1.1247,1.1685,1.1988,1.2358,1.2615,1.2615,1.2887,1.3076,1.3212,1.3626,1.4083,1.4458,1.4887,1.5129,1.5251,1.4861,1.4655,1.4557,1.415,1.3941,1.4023,1.4453,1.4697,1.488,1.5541,1.6124,1.674,1.719,1.8018,1.8893,1.9198,1.9488,1.9874,1.8008,1.8008,1.8008,1.8008,1.8008,1.8008,1.8008,1.7822,1.7539,1.7129,1.6544,1.5923,1.546,1.5093,1.4902,1.4961,1.5196,1.5313,1.5313,1.5157,1.5145,1.5202,1.4985,1.4879,1.505,1.507,1.5031,1.4829,1.4352,1.3952,1.3621,1.3409,1.319,1.2978,1.3017,1.3017,1.2978,1.2978,1.2929,1.2783,1.2627,1.2529,1.2372,1.2224,1.2175,1.2175,1.2274,1.2332,1.2382,1.2224,1.2026,1.1778,1.1578,1.1175,1.0769,1.0624,1.0205,0.9799,0.9732,0.942,0.9106,0.9106,0.9064,0.9011,0.9011,0.9077,0.9207,0.9311,0.9304,0.9174,0.8606,0.8286,0.7917,0.7269,0.7199,0.7265,0.7391,0.7972,0.8619,0.9332,0.9722,1.0238,1.0744,1.1052,1.1303,1.1553,1.1802,1.1988,1.205,1.229,1.2536,1.2728,1.3155,1.3649,1.4181,1.4547,1.4902,1.5313,1.5138,1.498,1.4775,1.4551,1.4443,1.4463,1.4687,1.4902,1.5107,1.5515,1.5951,1.64,1.6965,1.7744,1.8548,1.9028,1.9661,2.0263,1.8008,1.8008,1.8008,1.8008,1.8008,1.8008,1.8008,1.7872,1.7551,1.6772,1.6408,1.5875,1.4937,1.4666,1.4538,1.4538,1.4843,1.5088,1.5156,1.5313,1.5362,1.541,1.541,1.5311,1.5137,1.5169,1.5065,1.4958,1.4329,1.3847,1.3515,1.342,1.3286,1.3075,1.318,1.318,1.3123,1.3123,1.3027,1.2929,1.2832,1.2725,1.2725,1.2627,1.2578,1.2578,1.2676,1.2725,1.2676,1.248,1.2175,1.1778,1.1477,1.1015,1.0565,1.0411,1.0051,0.974,0.974,0.9472,0.9159,0.9159,0.918,0.9196,0.925,0.9296,0.9475,0.984,0.9833,0.9656,0.9303,0.9119,0.8805,0.7972,0.8002,0.8083,0.8032,0.8516,0.9066,0.9657,1.0051,1.038,1.083,1.0894,1.1022,1.1277,1.134,1.1446,1.1522,1.1703,1.1799,1.2003,1.2428,1.2981,1.364,1.395,1.4428,1.5088,1.5254,1.5177,1.4893,1.4893,1.4893,1.4893,1.4893,1.5088,1.541,1.5604,1.5836,1.6171,1.6853,1.7501,1.8213,1.9124,1.9994,2.0869,1.8008,1.8008,1.8008,1.8008,1.8008,1.8008,1.8008,1.7552,1.7069,1.6596,1.5638,1.4869,1.4363,1.407,1.3941,1.3941,1.4359,1.4715,1.5029,1.5156,1.5254,1.541,1.541,1.5449,1.5583,1.5216,1.4797,1.4254,1.4142,1.3797,1.3266,1.3266,1.319,1.3075,1.318,1.317,1.318,1.318,1.3142,1.3075,1.3027,1.2978,1.2881,1.2832,1.2832,1.2832,1.2881,1.2783,1.2627,1.2274,1.1877,1.1477,1.0972,1.0462,1.0051,0.9925,0.9666,0.9465,0.9465,0.9263,0.9008,0.9008,0.9126,0.925,0.9566,0.982,0.996,0.9925,1.0268,1.043,1.0073,1.0129,0.9997,0.9499,0.9519,0.9588,0.9432,0.9858,1.0274,1.0697,1.1038,1.1242,1.1303,1.1309,1.137,1.1377,1.158,1.1531,1.1262,1.1451,1.1589,1.163,1.1926,1.2413,1.307,1.358,1.4121,1.4597,1.4902,1.5167,1.5322,1.5322,1.5322,1.5322,1.5322,1.5361,1.541,1.541,1.57,1.6114,1.6513,1.7279,1.8259,1.9775,2.0807,2.1443,1.8008,1.8008,1.8008,1.8008,1.8008,1.8008,1.8008,1.7697,1.7226,1.6749,1.5735,1.4818,1.4197,1.3595,1.3216,1.3268,1.3752,1.4249,1.4547,1.4911,1.5147,1.5254,1.5362,1.542,1.5546,1.5349,1.4818,1.4108,1.4023,1.3811,1.3501,1.3339,1.3276,1.319,1.342,1.3515,1.342,1.3515,1.343,1.3248,1.319,1.3113,1.2978,1.2929,1.2881,1.2881,1.2881,1.2783,1.2529,1.2126,1.1669,1.1175,1.0514,1.0043,0.9725,0.9517,0.9361,0.9316,0.9316,0.9159,0.9049,0.916,0.9376,0.9566,0.986,1.0154,1.0367,1.0305,1.0573,1.0791,1.0533,1.0689,1.0698,1.0306,1.0323,1.036,1.0238,1.0461,1.0673,1.1024,1.1292,1.1423,1.1423,1.1423,1.1423,1.1423,1.1491,1.1438,1.1303,1.137,1.1427,1.1382,1.1625,1.1981,1.2413,1.285,1.3459,1.424,1.4538,1.4902,1.5313,1.5362,1.541,1.541,1.541,1.541,1.541,1.541,1.5594,1.5894,1.64,1.7346,1.8619,1.9794,2.0729,2.1568]}]]